<?xml version="1.0" encoding="UTF-8" standalone="no" ?>
<gpx xmlns="http://www.topografix.com/GPX/1/1" xmlns:xsi="http://www.w3.org/2001/XMLSchema-instance" xsi:schemaLocation="http://www.topografix.com/GPX/1/1 http://www.topografix.com/GPX/1/1/gpx.xsd" version="1.1" creator="VisuGPX - https://www.visugpx.com">
  <metadata>
    <name>cassel</name>
  </metadata>
  <trk>
    <name><![CDATA[cassel]]></name>
    <trkseg>
      <trkpt lat="50.66816" lon="2.9732">
        <ele>34.279855</ele>
        <time>2020-06-06T17:39:38.850Z</time>
      </trkpt>
      <trkpt lat="50.66802" lon="2.97323">
        <ele>34.279855</ele>
        <time>2020-06-06T17:39:41.165Z</time>
      </trkpt>
      <trkpt lat="50.66798" lon="2.97324">
        <ele>34.279855</ele>
        <time>2020-06-06T17:39:41.602Z</time>
      </trkpt>
      <trkpt lat="50.66791" lon="2.97325">
        <ele>34.279855</ele>
        <time>2020-06-06T17:39:42.842Z</time>
      </trkpt>
      <trkpt lat="50.66761" lon="2.97322">
        <ele>34.279855</ele>
        <time>2020-06-06T17:39:47.531Z</time>
      </trkpt>
      <trkpt lat="50.66758" lon="2.97322">
        <ele>34.279855</ele>
        <time>2020-06-06T17:39:48.013Z</time>
      </trkpt>
      <trkpt lat="50.66754" lon="2.97323">
        <ele>34.279855</ele>
        <time>2020-06-06T17:39:48.591Z</time>
      </trkpt>
      <trkpt lat="50.66751" lon="2.97324">
        <ele>34.279855</ele>
        <time>2020-06-06T17:39:49.198Z</time>
      </trkpt>
      <trkpt lat="50.66749" lon="2.97316">
        <ele>34.279855</ele>
        <time>2020-06-06T17:39:50.153Z</time>
      </trkpt>
      <trkpt lat="50.66744" lon="2.97283">
        <ele>34.271478</ele>
        <time>2020-06-06T17:39:53.224Z</time>
      </trkpt>
      <trkpt lat="50.66742" lon="2.97276">
        <ele>34.258029</ele>
        <time>2020-06-06T17:39:53.999Z</time>
      </trkpt>
      <trkpt lat="50.6673" lon="2.97245">
        <ele>34.193459</ele>
        <time>2020-06-06T17:39:59.099Z</time>
      </trkpt>
      <trkpt lat="50.66674" lon="2.97105">
        <ele>33.902723</ele>
        <time>2020-06-06T17:40:18.929Z</time>
      </trkpt>
      <trkpt lat="50.66671" lon="2.97099">
        <ele>33.889017</ele>
        <time>2020-06-06T17:40:20.028Z</time>
      </trkpt>
      <trkpt lat="50.66668" lon="2.97094">
        <ele>33.87837</ele>
        <time>2020-06-06T17:40:20.585Z</time>
      </trkpt>
      <trkpt lat="50.66604" lon="2.97003">
        <ele>33.748039</ele>
        <time>2020-06-06T17:40:36.679Z</time>
      </trkpt>
      <trkpt lat="50.66599" lon="2.96998">
        <ele>33.744291</ele>
        <time>2020-06-06T17:40:37.750Z</time>
      </trkpt>
      <trkpt lat="50.66594" lon="2.96995">
        <ele>33.740882</ele>
        <time>2020-06-06T17:40:39.142Z</time>
      </trkpt>
      <trkpt lat="50.66588" lon="2.96993">
        <ele>33.736505</ele>
        <time>2020-06-06T17:40:41.039Z</time>
      </trkpt>
      <trkpt lat="50.66584" lon="2.96992">
        <ele>33.734265</ele>
        <time>2020-06-06T17:40:41.581Z</time>
      </trkpt>
      <trkpt lat="50.66584" lon="2.96986">
        <ele>33.731829</ele>
        <time>2020-06-06T17:40:42.007Z</time>
      </trkpt>
      <trkpt lat="50.66569" lon="2.96947">
        <ele>33.712791</ele>
        <time>2020-06-06T17:40:46.890Z</time>
      </trkpt>
      <trkpt lat="50.66562" lon="2.96934">
        <ele>33.706067</ele>
        <time>2020-06-06T17:40:48.110Z</time>
      </trkpt>
      <trkpt lat="50.66537" lon="2.96874">
        <ele>33.676351</ele>
        <time>2020-06-06T17:40:54.779Z</time>
      </trkpt>
      <trkpt lat="50.66529" lon="2.96857">
        <ele>33.667786</ele>
        <time>2020-06-06T17:40:57.318Z</time>
      </trkpt>
      <trkpt lat="50.66519" lon="2.96833">
        <ele>33.742848</ele>
        <time>2020-06-06T17:40:59.858Z</time>
      </trkpt>
      <trkpt lat="50.66501" lon="2.96795">
        <ele>33.9121</ele>
        <time>2020-06-06T17:41:04.724Z</time>
      </trkpt>
      <trkpt lat="50.6649" lon="2.96771">
        <ele>34.02469</ele>
        <time>2020-06-06T17:41:08.428Z</time>
      </trkpt>
      <trkpt lat="50.66473" lon="2.96734">
        <ele>34.190038</ele>
        <time>2020-06-06T17:41:13.618Z</time>
      </trkpt>
      <trkpt lat="50.66456" lon="2.96701">
        <ele>34.342277</ele>
        <time>2020-06-06T17:41:18.779Z</time>
      </trkpt>
      <trkpt lat="50.66438" lon="2.96662">
        <ele>34.521591</ele>
        <time>2020-06-06T17:41:24.662Z</time>
      </trkpt>
      <trkpt lat="50.6642" lon="2.96625">
        <ele>34.689285</ele>
        <time>2020-06-06T17:41:29.330Z</time>
      </trkpt>
      <trkpt lat="50.66411" lon="2.96605">
        <ele>34.771314</ele>
        <time>2020-06-06T17:41:31.808Z</time>
      </trkpt>
      <trkpt lat="50.66409" lon="2.96601">
        <ele>34.791112</ele>
        <time>2020-06-06T17:41:32.355Z</time>
      </trkpt>
      <trkpt lat="50.66394" lon="2.96573">
        <ele>34.911398</ele>
        <time>2020-06-06T17:41:35.631Z</time>
      </trkpt>
      <trkpt lat="50.66383" lon="2.96555">
        <ele>34.993702</ele>
        <time>2020-06-06T17:41:38.132Z</time>
      </trkpt>
      <trkpt lat="50.66364" lon="2.96523">
        <ele>35.140863</ele>
        <time>2020-06-06T17:41:42.578Z</time>
      </trkpt>
      <trkpt lat="50.66336" lon="2.96476">
        <ele>35.354005</ele>
        <time>2020-06-06T17:41:49.673Z</time>
      </trkpt>
      <trkpt lat="50.66308" lon="2.96432">
        <ele>35.561425</ele>
        <time>2020-06-06T17:41:56.763Z</time>
      </trkpt>
      <trkpt lat="50.66297" lon="2.96412">
        <ele>35.654107</ele>
        <time>2020-06-06T17:41:59.846Z</time>
      </trkpt>
      <trkpt lat="50.66291" lon="2.96402">
        <ele>35.712957</ele>
        <time>2020-06-06T17:42:01.411Z</time>
      </trkpt>
      <trkpt lat="50.66271" lon="2.96367">
        <ele>35.921778</ele>
        <time>2020-06-06T17:42:06.939Z</time>
      </trkpt>
      <trkpt lat="50.66252" lon="2.96331">
        <ele>36.124746</ele>
        <time>2020-06-06T17:42:12.167Z</time>
      </trkpt>
      <trkpt lat="50.66239" lon="2.96306">
        <ele>36.266462</ele>
        <time>2020-06-06T17:42:15.822Z</time>
      </trkpt>
      <trkpt lat="50.66218" lon="2.96266">
        <ele>36.487636</ele>
        <time>2020-06-06T17:42:21.439Z</time>
      </trkpt>
      <trkpt lat="50.66198" lon="2.96227">
        <ele>36.707943</ele>
        <time>2020-06-06T17:42:27.035Z</time>
      </trkpt>
      <trkpt lat="50.66189" lon="2.96211">
        <ele>36.800958</ele>
        <time>2020-06-06T17:42:29.365Z</time>
      </trkpt>
      <trkpt lat="50.66185" lon="2.96203">
        <ele>36.848311</ele>
        <time>2020-06-06T17:42:30.590Z</time>
      </trkpt>
      <trkpt lat="50.6616" lon="2.96165">
        <ele>36.967162</ele>
        <time>2020-06-06T17:42:36.414Z</time>
      </trkpt>
      <trkpt lat="50.6615" lon="2.96149">
        <ele>37.008716</ele>
        <time>2020-06-06T17:42:38.881Z</time>
      </trkpt>
      <trkpt lat="50.66144" lon="2.9614">
        <ele>37.034001</ele>
        <time>2020-06-06T17:42:40.387Z</time>
      </trkpt>
      <trkpt lat="50.66139" lon="2.96133">
        <ele>37.05394</ele>
        <time>2020-06-06T17:42:41.488Z</time>
      </trkpt>
      <trkpt lat="50.66096" lon="2.96082">
        <ele>37.212043</ele>
        <time>2020-06-06T17:42:50.047Z</time>
      </trkpt>
      <trkpt lat="50.66039" lon="2.96043">
        <ele>37.395503</ele>
        <time>2020-06-06T17:42:59.156Z</time>
      </trkpt>
      <trkpt lat="50.66009" lon="2.96025">
        <ele>37.56462</ele>
        <time>2020-06-06T17:43:03.867Z</time>
      </trkpt>
      <trkpt lat="50.6594" lon="2.95982">
        <ele>37.981615</ele>
        <time>2020-06-06T17:43:16.434Z</time>
      </trkpt>
      <trkpt lat="50.65873" lon="2.9594">
        <ele>38.387589</ele>
        <time>2020-06-06T17:43:29.869Z</time>
      </trkpt>
      <trkpt lat="50.65857" lon="2.9593">
        <ele>38.475996</ele>
        <time>2020-06-06T17:43:33.040Z</time>
      </trkpt>
      <trkpt lat="50.65814" lon="2.95902">
        <ele>38.692753</ele>
        <time>2020-06-06T17:43:41.296Z</time>
      </trkpt>
      <trkpt lat="50.65789" lon="2.95885">
        <ele>38.819345</ele>
        <time>2020-06-06T17:43:45.973Z</time>
      </trkpt>
      <trkpt lat="50.65781" lon="2.95879">
        <ele>38.859504</ele>
        <time>2020-06-06T17:43:47.525Z</time>
      </trkpt>
      <trkpt lat="50.65772" lon="2.95871">
        <ele>38.907327</ele>
        <time>2020-06-06T17:43:49.226Z</time>
      </trkpt>
      <trkpt lat="50.65712" lon="2.95797">
        <ele>39.260194</ele>
        <time>2020-06-06T17:44:01.298Z</time>
      </trkpt>
      <trkpt lat="50.65673" lon="2.95712">
        <ele>38.841101</ele>
        <time>2020-06-06T17:44:10.650Z</time>
      </trkpt>
      <trkpt lat="50.65653" lon="2.95662">
        <ele>38.602427</ele>
        <time>2020-06-06T17:44:15.382Z</time>
      </trkpt>
      <trkpt lat="50.65642" lon="2.95635">
        <ele>38.472898</ele>
        <time>2020-06-06T17:44:17.853Z</time>
      </trkpt>
      <trkpt lat="50.65615" lon="2.95567">
        <ele>38.148562</ele>
        <time>2020-06-06T17:44:24.032Z</time>
      </trkpt>
      <trkpt lat="50.65609" lon="2.95554">
        <ele>38.063805</ele>
        <time>2020-06-06T17:44:25.402Z</time>
      </trkpt>
      <trkpt lat="50.65602" lon="2.95538">
        <ele>37.935392</ele>
        <time>2020-06-06T17:44:26.839Z</time>
      </trkpt>
      <trkpt lat="50.65559" lon="2.95474">
        <ele>37.335026</ele>
        <time>2020-06-06T17:44:34.134Z</time>
      </trkpt>
      <trkpt lat="50.65548" lon="2.95458">
        <ele>37.18397</ele>
        <time>2020-06-06T17:44:35.896Z</time>
      </trkpt>
      <trkpt lat="50.65542" lon="2.9545">
        <ele>37.106369</ele>
        <time>2020-06-06T17:44:36.853Z</time>
      </trkpt>
      <trkpt lat="50.65497" lon="2.95365">
        <ele>36.387322</ele>
        <time>2020-06-06T17:44:45.465Z</time>
      </trkpt>
      <trkpt lat="50.65486" lon="2.95343">
        <ele>36.212445</ele>
        <time>2020-06-06T17:44:47.682Z</time>
      </trkpt>
      <trkpt lat="50.6548" lon="2.9533">
        <ele>36.119815</ele>
        <time>2020-06-06T17:44:48.907Z</time>
      </trkpt>
      <trkpt lat="50.65474" lon="2.95319">
        <ele>36.034205</ele>
        <time>2020-06-06T17:44:50.028Z</time>
      </trkpt>
      <trkpt lat="50.65446" lon="2.95277">
        <ele>35.681922</ele>
        <time>2020-06-06T17:44:54.728Z</time>
      </trkpt>
      <trkpt lat="50.65419" lon="2.95234">
        <ele>35.32585</ele>
        <time>2020-06-06T17:44:59.485Z</time>
      </trkpt>
      <trkpt lat="50.65385" lon="2.95182">
        <ele>34.88851</ele>
        <time>2020-06-06T17:45:05.307Z</time>
      </trkpt>
      <trkpt lat="50.65344" lon="2.95132">
        <ele>34.598885</ele>
        <time>2020-06-06T17:45:11.803Z</time>
      </trkpt>
      <trkpt lat="50.65331" lon="2.95119">
        <ele>34.582336</ele>
        <time>2020-06-06T17:45:13.780Z</time>
      </trkpt>
      <trkpt lat="50.65315" lon="2.95104">
        <ele>34.562467</ele>
        <time>2020-06-06T17:45:16.111Z</time>
      </trkpt>
      <trkpt lat="50.65264" lon="2.95049">
        <ele>34.495273</ele>
        <time>2020-06-06T17:45:25.445Z</time>
      </trkpt>
      <trkpt lat="50.65228" lon="2.95024">
        <ele>34.453538</ele>
        <time>2020-06-06T17:45:31.576Z</time>
      </trkpt>
      <trkpt lat="50.65188" lon="2.95002">
        <ele>34.609884</ele>
        <time>2020-06-06T17:45:38.528Z</time>
      </trkpt>
      <trkpt lat="50.6517" lon="2.94992">
        <ele>34.778138</ele>
        <time>2020-06-06T17:45:42.415Z</time>
      </trkpt>
      <trkpt lat="50.65151" lon="2.9498">
        <ele>34.956569</ele>
        <time>2020-06-06T17:45:45.960Z</time>
      </trkpt>
      <trkpt lat="50.65142" lon="2.94973">
        <ele>35.045543</ele>
        <time>2020-06-06T17:45:48.212Z</time>
      </trkpt>
      <trkpt lat="50.65132" lon="2.94965">
        <ele>35.142735</ele>
        <time>2020-06-06T17:45:50.261Z</time>
      </trkpt>
      <trkpt lat="50.65093" lon="2.94918">
        <ele>35.565791</ele>
        <time>2020-06-06T17:45:59.517Z</time>
      </trkpt>
      <trkpt lat="50.65088" lon="2.94909">
        <ele>35.635099</ele>
        <time>2020-06-06T17:46:01.392Z</time>
      </trkpt>
      <trkpt lat="50.6508" lon="2.94894">
        <ele>35.739562</ele>
        <time>2020-06-06T17:46:03.728Z</time>
      </trkpt>
      <trkpt lat="50.65073" lon="2.94878">
        <ele>35.849445</ele>
        <time>2020-06-06T17:46:06.062Z</time>
      </trkpt>
      <trkpt lat="50.65017" lon="2.94753">
        <ele>36.010254</ele>
        <time>2020-06-06T17:46:22.709Z</time>
      </trkpt>
      <trkpt lat="50.65004" lon="2.94723">
        <ele>36.016181</ele>
        <time>2020-06-06T17:46:26.443Z</time>
      </trkpt>
      <trkpt lat="50.64998" lon="2.94708">
        <ele>36.018957</ele>
        <time>2020-06-06T17:46:27.654Z</time>
      </trkpt>
      <trkpt lat="50.64975" lon="2.94671">
        <ele>36.027354</ele>
        <time>2020-06-06T17:46:32.069Z</time>
      </trkpt>
      <trkpt lat="50.64973" lon="2.94662">
        <ele>36.028998</ele>
        <time>2020-06-06T17:46:32.899Z</time>
      </trkpt>
      <trkpt lat="50.64972" lon="2.94658">
        <ele>36.029619</ele>
        <time>2020-06-06T17:46:33.303Z</time>
      </trkpt>
      <trkpt lat="50.64959" lon="2.94643">
        <ele>36.033761</ele>
        <time>2020-06-06T17:46:35.617Z</time>
      </trkpt>
      <trkpt lat="50.64957" lon="2.94643">
        <ele>36.034377</ele>
        <time>2020-06-06T17:46:35.946Z</time>
      </trkpt>
      <trkpt lat="50.64953" lon="2.94643">
        <ele>36.035379</ele>
        <time>2020-06-06T17:46:36.343Z</time>
      </trkpt>
      <trkpt lat="50.64931" lon="2.94624">
        <ele>35.828837</ele>
        <time>2020-06-06T17:46:39.695Z</time>
      </trkpt>
      <trkpt lat="50.64923" lon="2.94616">
        <ele>35.750062</ele>
        <time>2020-06-06T17:46:40.780Z</time>
      </trkpt>
      <trkpt lat="50.64917" lon="2.94606">
        <ele>35.676097</ele>
        <time>2020-06-06T17:46:41.717Z</time>
      </trkpt>
      <trkpt lat="50.6481" lon="2.94211">
        <ele>33.525032</ele>
        <time>2020-06-06T17:47:15.664Z</time>
      </trkpt>
      <trkpt lat="50.6478" lon="2.94071">
        <ele>33.217644</ele>
        <time>2020-06-06T17:47:28.806Z</time>
      </trkpt>
      <trkpt lat="50.64767" lon="2.9405">
        <ele>33.224221</ele>
        <time>2020-06-06T17:47:31.564Z</time>
      </trkpt>
      <trkpt lat="50.64754" lon="2.94042">
        <ele>33.229121</ele>
        <time>2020-06-06T17:47:33.515Z</time>
      </trkpt>
      <trkpt lat="50.64731" lon="2.94046">
        <ele>33.237203</ele>
        <time>2020-06-06T17:47:36.943Z</time>
      </trkpt>
      <trkpt lat="50.64701" lon="2.94063">
        <ele>33.248604</ele>
        <time>2020-06-06T17:47:41.830Z</time>
      </trkpt>
      <trkpt lat="50.64607" lon="2.94109">
        <ele>33.571561</ele>
        <time>2020-06-06T17:47:58.262Z</time>
      </trkpt>
      <trkpt lat="50.64574" lon="2.94136">
        <ele>33.786568</ele>
        <time>2020-06-06T17:48:04.979Z</time>
      </trkpt>
      <trkpt lat="50.64532" lon="2.942">
        <ele>34.117792</ele>
        <time>2020-06-06T17:48:15.071Z</time>
      </trkpt>
      <trkpt lat="50.64486" lon="2.94268">
        <ele>34.264237</ele>
        <time>2020-06-06T17:48:25.775Z</time>
      </trkpt>
      <trkpt lat="50.64415" lon="2.9438">
        <ele>34.194327</ele>
        <time>2020-06-06T17:48:41.141Z</time>
      </trkpt>
      <trkpt lat="50.6439" lon="2.9441">
        <ele>34.172672</ele>
        <time>2020-06-06T17:48:45.236Z</time>
      </trkpt>
      <trkpt lat="50.64373" lon="2.94395">
        <ele>34.107133</ele>
        <time>2020-06-06T17:48:47.800Z</time>
      </trkpt>
      <trkpt lat="50.64292" lon="2.94217">
        <ele>32.633351</ele>
        <time>2020-06-06T17:49:04.339Z</time>
      </trkpt>
      <trkpt lat="50.64256" lon="2.9412">
        <ele>32.089019</ele>
        <time>2020-06-06T17:49:12.921Z</time>
      </trkpt>
      <trkpt lat="50.64192" lon="2.94089">
        <ele>31.788308</ele>
        <time>2020-06-06T17:49:21.806Z</time>
      </trkpt>
      <trkpt lat="50.64119" lon="2.93968">
        <ele>31.590708</ele>
        <time>2020-06-06T17:49:37.188Z</time>
      </trkpt>
      <trkpt lat="50.64104" lon="2.93928">
        <ele>31.745014</ele>
        <time>2020-06-06T17:49:42.226Z</time>
      </trkpt>
      <trkpt lat="50.64153" lon="2.93889">
        <ele>32.0326</ele>
        <time>2020-06-06T17:49:51.730Z</time>
      </trkpt>
      <trkpt lat="50.6412" lon="2.93804">
        <ele>32.361775</ele>
        <time>2020-06-06T17:50:03.298Z</time>
      </trkpt>
      <trkpt lat="50.64065" lon="2.93674">
        <ele>33.172522</ele>
        <time>2020-06-06T17:50:20.829Z</time>
      </trkpt>
      <trkpt lat="50.64037" lon="2.93606">
        <ele>33.601673</ele>
        <time>2020-06-06T17:50:30.468Z</time>
      </trkpt>
      <trkpt lat="50.64009" lon="2.93539">
        <ele>34.040607</ele>
        <time>2020-06-06T17:50:39.852Z</time>
      </trkpt>
      <trkpt lat="50.63974" lon="2.93462">
        <ele>34.599377</ele>
        <time>2020-06-06T17:50:51.108Z</time>
      </trkpt>
      <trkpt lat="50.63824" lon="2.93155">
        <ele>36.337021</ele>
        <time>2020-06-06T17:51:36.770Z</time>
      </trkpt>
      <trkpt lat="50.63775" lon="2.93115">
        <ele>36.259178</ele>
        <time>2020-06-06T17:51:44.446Z</time>
      </trkpt>
      <trkpt lat="50.63596" lon="2.92929">
        <ele>32.930911</ele>
        <time>2020-06-06T17:52:08.619Z</time>
      </trkpt>
      <trkpt lat="50.63554" lon="2.92907">
        <ele>32.036813</ele>
        <time>2020-06-06T17:52:13.457Z</time>
      </trkpt>
      <trkpt lat="50.63547" lon="2.92907">
        <ele>31.885263</ele>
        <time>2020-06-06T17:52:14.178Z</time>
      </trkpt>
      <trkpt lat="50.63528" lon="2.92911">
        <ele>31.509392</ele>
        <time>2020-06-06T17:52:16.380Z</time>
      </trkpt>
      <trkpt lat="50.63499" lon="2.92916">
        <ele>30.918228</ele>
        <time>2020-06-06T17:52:19.522Z</time>
      </trkpt>
      <trkpt lat="50.6348" lon="2.92909">
        <ele>30.523627</ele>
        <time>2020-06-06T17:52:21.670Z</time>
      </trkpt>
      <trkpt lat="50.63397" lon="2.92841">
        <ele>28.761926</ele>
        <time>2020-06-06T17:52:31.970Z</time>
      </trkpt>
      <trkpt lat="50.63289" lon="2.92803">
        <ele>26.785631</ele>
        <time>2020-06-06T17:52:44.372Z</time>
      </trkpt>
      <trkpt lat="50.63136" lon="2.92694">
        <ele>24.456222</ele>
        <time>2020-06-06T17:53:03.709Z</time>
      </trkpt>
      <trkpt lat="50.63122" lon="2.92684">
        <ele>24.427661</ele>
        <time>2020-06-06T17:53:05.592Z</time>
      </trkpt>
      <trkpt lat="50.63034" lon="2.92619">
        <ele>24.246879</ele>
        <time>2020-06-06T17:53:19.398Z</time>
      </trkpt>
      <trkpt lat="50.63017" lon="2.92602">
        <ele>24.209094</ele>
        <time>2020-06-06T17:53:22.537Z</time>
      </trkpt>
      <trkpt lat="50.63006" lon="2.92574">
        <ele>24.170604</ele>
        <time>2020-06-06T17:53:25.801Z</time>
      </trkpt>
      <trkpt lat="50.62997" lon="2.92542">
        <ele>24.139507</ele>
        <time>2020-06-06T17:53:29.649Z</time>
      </trkpt>
      <trkpt lat="50.62964" lon="2.92431">
        <ele>24.468672</ele>
        <time>2020-06-06T17:53:43.294Z</time>
      </trkpt>
      <trkpt lat="50.62947" lon="2.92396">
        <ele>24.587311</ele>
        <time>2020-06-06T17:53:48.313Z</time>
      </trkpt>
      <trkpt lat="50.62847" lon="2.92289">
        <ele>24.718754</ele>
        <time>2020-06-06T17:54:06.899Z</time>
      </trkpt>
      <trkpt lat="50.6282" lon="2.92258">
        <ele>24.598019</ele>
        <time>2020-06-06T17:54:11.687Z</time>
      </trkpt>
      <trkpt lat="50.62813" lon="2.9224">
        <ele>24.548163</ele>
        <time>2020-06-06T17:54:13.465Z</time>
      </trkpt>
      <trkpt lat="50.62799" lon="2.92209">
        <ele>24.462627</ele>
        <time>2020-06-06T17:54:16.814Z</time>
      </trkpt>
      <trkpt lat="50.62668" lon="2.92038">
        <ele>23.431197</ele>
        <time>2020-06-06T17:54:38.127Z</time>
      </trkpt>
      <trkpt lat="50.62659" lon="2.92016">
        <ele>23.30674</ele>
        <time>2020-06-06T17:54:40.258Z</time>
      </trkpt>
      <trkpt lat="50.6266" lon="2.92002">
        <ele>23.243229</ele>
        <time>2020-06-06T17:54:41.335Z</time>
      </trkpt>
      <trkpt lat="50.62692" lon="2.91911">
        <ele>22.893564</ele>
        <time>2020-06-06T17:54:49.905Z</time>
      </trkpt>
      <trkpt lat="50.62719" lon="2.91866">
        <ele>22.869034</ele>
        <time>2020-06-06T17:54:55.367Z</time>
      </trkpt>
      <trkpt lat="50.6273" lon="2.91856">
        <ele>22.8614</ele>
        <time>2020-06-06T17:54:57.026Z</time>
      </trkpt>
      <trkpt lat="50.6273" lon="2.91838">
        <ele>22.854335</ele>
        <time>2020-06-06T17:54:58.758Z</time>
      </trkpt>
      <trkpt lat="50.62719" lon="2.91803">
        <ele>22.83909</ele>
        <time>2020-06-06T17:55:02.337Z</time>
      </trkpt>
      <trkpt lat="50.62627" lon="2.91667">
        <ele>23.087918</ele>
        <time>2020-06-06T17:55:22.867Z</time>
      </trkpt>
      <trkpt lat="50.62612" lon="2.91652">
        <ele>23.183611</ele>
        <time>2020-06-06T17:55:26.129Z</time>
      </trkpt>
      <trkpt lat="50.62599" lon="2.91652">
        <ele>23.251295</ele>
        <time>2020-06-06T17:55:28.470Z</time>
      </trkpt>
      <trkpt lat="50.62556" lon="2.91685">
        <ele>23.503485</ele>
        <time>2020-06-06T17:55:36.854Z</time>
      </trkpt>
      <trkpt lat="50.62544" lon="2.91677">
        <ele>23.572139</ele>
        <time>2020-06-06T17:55:39.078Z</time>
      </trkpt>
      <trkpt lat="50.62533" lon="2.91653">
        <ele>23.674553</ele>
        <time>2020-06-06T17:55:42.376Z</time>
      </trkpt>
      <trkpt lat="50.62487" lon="2.91577">
        <ele>23.909606</ele>
        <time>2020-06-06T17:55:53.377Z</time>
      </trkpt>
      <trkpt lat="50.6244" lon="2.91497">
        <ele>24.123448</ele>
        <time>2020-06-06T17:56:04.308Z</time>
      </trkpt>
      <trkpt lat="50.6229" lon="2.91247">
        <ele>24.755068</ele>
        <time>2020-06-06T17:56:38.177Z</time>
      </trkpt>
      <trkpt lat="50.62266" lon="2.91205">
        <ele>24.92396</ele>
        <time>2020-06-06T17:56:44.543Z</time>
      </trkpt>
      <trkpt lat="50.62243" lon="2.91167">
        <ele>25.154057</ele>
        <time>2020-06-06T17:56:50.528Z</time>
      </trkpt>
      <trkpt lat="50.62222" lon="2.9112">
        <ele>25.408589</ele>
        <time>2020-06-06T17:56:57.261Z</time>
      </trkpt>
      <trkpt lat="50.62207" lon="2.91063">
        <ele>25.686959</ele>
        <time>2020-06-06T17:57:04.789Z</time>
      </trkpt>
      <trkpt lat="50.62146" lon="2.90841">
        <ele>25.798901</ele>
        <time>2020-06-06T17:57:30.639Z</time>
      </trkpt>
      <trkpt lat="50.62145" lon="2.90825">
        <ele>25.771726</ele>
        <time>2020-06-06T17:57:31.762Z</time>
      </trkpt>
      <trkpt lat="50.62145" lon="2.90751">
        <ele>25.643576</ele>
        <time>2020-06-06T17:57:37.442Z</time>
      </trkpt>
      <trkpt lat="50.62147" lon="2.90674">
        <ele>25.241744</ele>
        <time>2020-06-06T17:57:43.433Z</time>
      </trkpt>
      <trkpt lat="50.62146" lon="2.90664">
        <ele>25.159193</ele>
        <time>2020-06-06T17:57:44.086Z</time>
      </trkpt>
      <trkpt lat="50.62154" lon="2.90662">
        <ele>25.057905</ele>
        <time>2020-06-06T17:57:44.882Z</time>
      </trkpt>
      <trkpt lat="50.62163" lon="2.90658">
        <ele>24.927234</ele>
        <time>2020-06-06T17:57:46.025Z</time>
      </trkpt>
      <trkpt lat="50.62175" lon="2.90653">
        <ele>24.751926</ele>
        <time>2020-06-06T17:57:47.713Z</time>
      </trkpt>
      <trkpt lat="50.62182" lon="2.90648">
        <ele>24.655456</ele>
        <time>2020-06-06T17:57:48.466Z</time>
      </trkpt>
      <trkpt lat="50.62189" lon="2.90642">
        <ele>24.548029</ele>
        <time>2020-06-06T17:57:49.318Z</time>
      </trkpt>
      <trkpt lat="50.62204" lon="2.90626">
        <ele>24.29969</ele>
        <time>2020-06-06T17:57:51.601Z</time>
      </trkpt>
      <trkpt lat="50.62216" lon="2.90611">
        <ele>24.095988</ele>
        <time>2020-06-06T17:57:53.232Z</time>
      </trkpt>
      <trkpt lat="50.62224" lon="2.90603">
        <ele>23.971411</ele>
        <time>2020-06-06T17:57:54.293Z</time>
      </trkpt>
      <trkpt lat="50.62265" lon="2.90575">
        <ele>23.356763</ele>
        <time>2020-06-06T17:57:59.696Z</time>
      </trkpt>
      <trkpt lat="50.62269" lon="2.90572">
        <ele>23.30429</ele>
        <time>2020-06-06T17:58:00.163Z</time>
      </trkpt>
      <trkpt lat="50.62316" lon="2.90549">
        <ele>22.904662</ele>
        <time>2020-06-06T17:58:05.855Z</time>
      </trkpt>
      <trkpt lat="50.62394" lon="2.90522">
        <ele>22.381092</ele>
        <time>2020-06-06T17:58:16.803Z</time>
      </trkpt>
      <trkpt lat="50.624" lon="2.90519">
        <ele>22.34033</ele>
        <time>2020-06-06T17:58:17.750Z</time>
      </trkpt>
      <trkpt lat="50.62452" lon="2.9048">
        <ele>21.961967</ele>
        <time>2020-06-06T17:58:25.311Z</time>
      </trkpt>
      <trkpt lat="50.62478" lon="2.90458">
        <ele>21.735465</ele>
        <time>2020-06-06T17:58:29.221Z</time>
      </trkpt>
      <trkpt lat="50.62493" lon="2.90444">
        <ele>21.601984</ele>
        <time>2020-06-06T17:58:31.472Z</time>
      </trkpt>
      <trkpt lat="50.62508" lon="2.90429">
        <ele>21.473041</ele>
        <time>2020-06-06T17:58:33.685Z</time>
      </trkpt>
      <trkpt lat="50.62538" lon="2.90396">
        <ele>21.190593</ele>
        <time>2020-06-06T17:58:38.501Z</time>
      </trkpt>
      <trkpt lat="50.62566" lon="2.90365">
        <ele>20.932869</ele>
        <time>2020-06-06T17:58:42.782Z</time>
      </trkpt>
      <trkpt lat="50.6257" lon="2.9036">
        <ele>20.892537</ele>
        <time>2020-06-06T17:58:43.451Z</time>
      </trkpt>
      <trkpt lat="50.62596" lon="2.90332">
        <ele>20.65651</ele>
        <time>2020-06-06T17:58:47.319Z</time>
      </trkpt>
      <trkpt lat="50.62619" lon="2.90306">
        <ele>20.432984</ele>
        <time>2020-06-06T17:58:50.703Z</time>
      </trkpt>
      <trkpt lat="50.62624" lon="2.903">
        <ele>20.376072</ele>
        <time>2020-06-06T17:58:51.554Z</time>
      </trkpt>
      <trkpt lat="50.62669" lon="2.90252">
        <ele>19.940614</ele>
        <time>2020-06-06T17:58:58.190Z</time>
      </trkpt>
      <trkpt lat="50.62695" lon="2.90217">
        <ele>19.66195</ele>
        <time>2020-06-06T17:59:02.513Z</time>
      </trkpt>
      <trkpt lat="50.6278" lon="2.9008">
        <ele>19.09055</ele>
        <time>2020-06-06T17:59:18.205Z</time>
      </trkpt>
      <trkpt lat="50.62818" lon="2.90017">
        <ele>19.030471</ele>
        <time>2020-06-06T17:59:26.217Z</time>
      </trkpt>
      <trkpt lat="50.62857" lon="2.89953">
        <ele>18.969347</ele>
        <time>2020-06-06T17:59:35.089Z</time>
      </trkpt>
      <trkpt lat="50.6288" lon="2.89914">
        <ele>19.10545</ele>
        <time>2020-06-06T17:59:40.737Z</time>
      </trkpt>
      <trkpt lat="50.6288" lon="2.89914">
        <ele>19.10545</ele>
        <time>2020-06-06T17:59:40.762Z</time>
      </trkpt>
      <trkpt lat="50.6288" lon="2.89914">
        <ele>19.10545</ele>
        <time>2020-06-06T17:59:40.766Z</time>
      </trkpt>
      <trkpt lat="50.62897" lon="2.89886">
        <ele>19.261338</ele>
        <time>2020-06-06T17:59:45.291Z</time>
      </trkpt>
      <trkpt lat="50.62929" lon="2.89839">
        <ele>19.531668</ele>
        <time>2020-06-06T17:59:52.996Z</time>
      </trkpt>
      <trkpt lat="50.62947" lon="2.89815">
        <ele>19.675756</ele>
        <time>2020-06-06T17:59:57.449Z</time>
      </trkpt>
      <trkpt lat="50.63015" lon="2.8972">
        <ele>19.99349</ele>
        <time>2020-06-06T18:00:12.962Z</time>
      </trkpt>
      <trkpt lat="50.63052" lon="2.89669">
        <ele>19.847328</ele>
        <time>2020-06-06T18:00:20.338Z</time>
      </trkpt>
      <trkpt lat="50.63078" lon="2.89634">
        <ele>19.744129</ele>
        <time>2020-06-06T18:00:24.854Z</time>
      </trkpt>
      <trkpt lat="50.63096" lon="2.8961">
        <ele>19.672417</ele>
        <time>2020-06-06T18:00:27.832Z</time>
      </trkpt>
      <trkpt lat="50.63111" lon="2.89593">
        <ele>19.616052</ele>
        <time>2020-06-06T18:00:30.368Z</time>
      </trkpt>
      <trkpt lat="50.63125" lon="2.89579">
        <ele>19.565862</ele>
        <time>2020-06-06T18:00:32.366Z</time>
      </trkpt>
      <trkpt lat="50.6318" lon="2.89529">
        <ele>19.258042</ele>
        <time>2020-06-06T18:00:40.302Z</time>
      </trkpt>
      <trkpt lat="50.63194" lon="2.89516">
        <ele>19.170273</ele>
        <time>2020-06-06T18:00:42.315Z</time>
      </trkpt>
      <trkpt lat="50.63263" lon="2.89447">
        <ele>18.740641</ele>
        <time>2020-06-06T18:00:52.871Z</time>
      </trkpt>
      <trkpt lat="50.63424" lon="2.89287">
        <ele>18.610607</ele>
        <time>2020-06-06T18:01:21.897Z</time>
      </trkpt>
      <trkpt lat="50.63532" lon="2.89111">
        <ele>18.625231</ele>
        <time>2020-06-06T18:01:45.208Z</time>
      </trkpt>
      <trkpt lat="50.63544" lon="2.89092">
        <ele>18.626617</ele>
        <time>2020-06-06T18:01:47.555Z</time>
      </trkpt>
      <trkpt lat="50.63555" lon="2.89074">
        <ele>18.62797</ele>
        <time>2020-06-06T18:01:49.946Z</time>
      </trkpt>
      <trkpt lat="50.63673" lon="2.88886">
        <ele>18.315571</ele>
        <time>2020-06-06T18:02:13.664Z</time>
      </trkpt>
      <trkpt lat="50.63917" lon="2.88482">
        <ele>17.713697</ele>
        <time>2020-06-06T18:03:03.864Z</time>
      </trkpt>
      <trkpt lat="50.63946" lon="2.88404">
        <ele>17.741183</ele>
        <time>2020-06-06T18:03:12.006Z</time>
      </trkpt>
      <trkpt lat="50.63972" lon="2.8831">
        <ele>17.907902</ele>
        <time>2020-06-06T18:03:21.855Z</time>
      </trkpt>
      <trkpt lat="50.63981" lon="2.88262">
        <ele>17.989361</ele>
        <time>2020-06-06T18:03:27.112Z</time>
      </trkpt>
      <trkpt lat="50.63993" lon="2.88196">
        <ele>18.100363</ele>
        <time>2020-06-06T18:03:34.515Z</time>
      </trkpt>
      <trkpt lat="50.63999" lon="2.88159">
        <ele>18.218764</ele>
        <time>2020-06-06T18:03:39.046Z</time>
      </trkpt>
      <trkpt lat="50.6401" lon="2.88129">
        <ele>18.360704</ele>
        <time>2020-06-06T18:03:42.746Z</time>
      </trkpt>
      <trkpt lat="50.64014" lon="2.88123">
        <ele>18.396176</ele>
        <time>2020-06-06T18:03:43.692Z</time>
      </trkpt>
      <trkpt lat="50.6402" lon="2.88117">
        <ele>18.443773</ele>
        <time>2020-06-06T18:03:45.256Z</time>
      </trkpt>
      <trkpt lat="50.64027" lon="2.88111">
        <ele>18.497861</ele>
        <time>2020-06-06T18:03:46.670Z</time>
      </trkpt>
      <trkpt lat="50.64135" lon="2.8805">
        <ele>19.255047</ele>
        <time>2020-06-06T18:04:07.202Z</time>
      </trkpt>
      <trkpt lat="50.64197" lon="2.88014">
        <ele>19.191399</ele>
        <time>2020-06-06T18:04:17.851Z</time>
      </trkpt>
      <trkpt lat="50.64419" lon="2.87881">
        <ele>18.348065</ele>
        <time>2020-06-06T18:04:48.891Z</time>
      </trkpt>
      <trkpt lat="50.64425" lon="2.87877">
        <ele>18.314564</ele>
        <time>2020-06-06T18:04:49.698Z</time>
      </trkpt>
      <trkpt lat="50.64446" lon="2.87858">
        <ele>18.190681</ele>
        <time>2020-06-06T18:04:52.994Z</time>
      </trkpt>
      <trkpt lat="50.6453" lon="2.87779">
        <ele>17.975173</ele>
        <time>2020-06-06T18:05:06.548Z</time>
      </trkpt>
      <trkpt lat="50.64561" lon="2.87761">
        <ele>17.953625</ele>
        <time>2020-06-06T18:05:11.221Z</time>
      </trkpt>
      <trkpt lat="50.64567" lon="2.87756">
        <ele>17.94921</ele>
        <time>2020-06-06T18:05:12.275Z</time>
      </trkpt>
      <trkpt lat="50.64568" lon="2.8776">
        <ele>17.947605</ele>
        <time>2020-06-06T18:05:12.604Z</time>
      </trkpt>
      <trkpt lat="50.64576" lon="2.87765">
        <ele>17.941593</ele>
        <time>2020-06-06T18:05:13.974Z</time>
      </trkpt>
      <trkpt lat="50.64579" lon="2.87764">
        <ele>17.940029</ele>
        <time>2020-06-06T18:05:14.329Z</time>
      </trkpt>
      <trkpt lat="50.6458" lon="2.87762">
        <ele>17.938502</ele>
        <time>2020-06-06T18:05:14.697Z</time>
      </trkpt>
      <trkpt lat="50.64582" lon="2.87759">
        <ele>17.936911</ele>
        <time>2020-06-06T18:05:15.087Z</time>
      </trkpt>
      <trkpt lat="50.64582" lon="2.87748">
        <ele>17.932396</ele>
        <time>2020-06-06T18:05:16.165Z</time>
      </trkpt>
      <trkpt lat="50.6458" lon="2.87745">
        <ele>17.930838</ele>
        <time>2020-06-06T18:05:16.553Z</time>
      </trkpt>
      <trkpt lat="50.64583" lon="2.87741">
        <ele>17.928607</ele>
        <time>2020-06-06T18:05:17.157Z</time>
      </trkpt>
      <trkpt lat="50.64607" lon="2.87709">
        <ele>17.907609</ele>
        <time>2020-06-06T18:05:22.097Z</time>
      </trkpt>
      <trkpt lat="50.64671" lon="2.87651">
        <ele>17.999936</ele>
        <time>2020-06-06T18:05:33.546Z</time>
      </trkpt>
      <trkpt lat="50.64682" lon="2.87641">
        <ele>18.020496</ele>
        <time>2020-06-06T18:05:35.436Z</time>
      </trkpt>
      <trkpt lat="50.64701" lon="2.87624">
        <ele>18.05838</ele>
        <time>2020-06-06T18:05:38.852Z</time>
      </trkpt>
      <trkpt lat="50.6474" lon="2.87589">
        <ele>18.13392</ele>
        <time>2020-06-06T18:05:45.709Z</time>
      </trkpt>
      <trkpt lat="50.64781" lon="2.87551">
        <ele>18.21937</ele>
        <time>2020-06-06T18:05:53.088Z</time>
      </trkpt>
      <trkpt lat="50.64866" lon="2.87472">
        <ele>18.458235</ele>
        <time>2020-06-06T18:06:08.828Z</time>
      </trkpt>
      <trkpt lat="50.64907" lon="2.87434">
        <ele>18.572797</ele>
        <time>2020-06-06T18:06:16.281Z</time>
      </trkpt>
      <trkpt lat="50.64927" lon="2.87415">
        <ele>18.629826</ele>
        <time>2020-06-06T18:06:20.080Z</time>
      </trkpt>
      <trkpt lat="50.6495" lon="2.87395">
        <ele>18.660084</ele>
        <time>2020-06-06T18:06:24.268Z</time>
      </trkpt>
      <trkpt lat="50.64962" lon="2.87386">
        <ele>18.672376</ele>
        <time>2020-06-06T18:06:26.312Z</time>
      </trkpt>
      <trkpt lat="50.64942" lon="2.8732">
        <ele>18.717335</ele>
        <time>2020-06-06T18:06:33.628Z</time>
      </trkpt>
      <trkpt lat="50.649" lon="2.8716">
        <ele>18.773495</ele>
        <time>2020-06-06T18:06:49.939Z</time>
      </trkpt>
      <trkpt lat="50.64879" lon="2.87082">
        <ele>18.60184</ele>
        <time>2020-06-06T18:06:57.475Z</time>
      </trkpt>
      <trkpt lat="50.64871" lon="2.87038">
        <ele>18.508796</ele>
        <time>2020-06-06T18:07:01.513Z</time>
      </trkpt>
      <trkpt lat="50.6481" lon="2.86797">
        <ele>18.004824</ele>
        <time>2020-06-06T18:07:23.641Z</time>
      </trkpt>
      <trkpt lat="50.64797" lon="2.86662">
        <ele>17.749846</ele>
        <time>2020-06-06T18:07:35.717Z</time>
      </trkpt>
      <trkpt lat="50.64794" lon="2.86494">
        <ele>17.573825</ele>
        <time>2020-06-06T18:07:51.187Z</time>
      </trkpt>
      <trkpt lat="50.64793" lon="2.86448">
        <ele>17.531032</ele>
        <time>2020-06-06T18:07:55.463Z</time>
      </trkpt>
      <trkpt lat="50.64792" lon="2.86259">
        <ele>17.252034</ele>
        <time>2020-06-06T18:08:12.347Z</time>
      </trkpt>
      <trkpt lat="50.64786" lon="2.86208">
        <ele>17.147076</ele>
        <time>2020-06-06T18:08:16.915Z</time>
      </trkpt>
      <trkpt lat="50.64772" lon="2.86159">
        <ele>17.040661</ele>
        <time>2020-06-06T18:08:21.477Z</time>
      </trkpt>
      <trkpt lat="50.64714" lon="2.85999">
        <ele>16.678086</ele>
        <time>2020-06-06T18:08:37.348Z</time>
      </trkpt>
      <trkpt lat="50.64633" lon="2.85778">
        <ele>16.31162</ele>
        <time>2020-06-06T18:08:59.973Z</time>
      </trkpt>
      <trkpt lat="50.64629" lon="2.85767">
        <ele>16.30817</ele>
        <time>2020-06-06T18:09:01.108Z</time>
      </trkpt>
      <trkpt lat="50.64516" lon="2.85452">
        <ele>16.289372</ele>
        <time>2020-06-06T18:09:35.682Z</time>
      </trkpt>
      <trkpt lat="50.64453" lon="2.85316">
        <ele>16.341305</ele>
        <time>2020-06-06T18:09:51.698Z</time>
      </trkpt>
      <trkpt lat="50.64414" lon="2.85238">
        <ele>16.393763</ele>
        <time>2020-06-06T18:10:01.136Z</time>
      </trkpt>
      <trkpt lat="50.64391" lon="2.85204">
        <ele>16.41984</ele>
        <time>2020-06-06T18:10:05.851Z</time>
      </trkpt>
      <trkpt lat="50.64375" lon="2.85158">
        <ele>16.447751</ele>
        <time>2020-06-06T18:10:10.976Z</time>
      </trkpt>
      <trkpt lat="50.64375" lon="2.8513">
        <ele>16.462421</ele>
        <time>2020-06-06T18:10:13.705Z</time>
      </trkpt>
      <trkpt lat="50.64382" lon="2.851">
        <ele>16.490501</ele>
        <time>2020-06-06T18:10:16.912Z</time>
      </trkpt>
      <trkpt lat="50.64434" lon="2.85014">
        <ele>16.596125</ele>
        <time>2020-06-06T18:10:28.704Z</time>
      </trkpt>
      <trkpt lat="50.64512" lon="2.84889">
        <ele>16.690263</ele>
        <time>2020-06-06T18:10:45.784Z</time>
      </trkpt>
      <trkpt lat="50.64591" lon="2.84697">
        <ele>16.52949</ele>
        <time>2020-06-06T18:11:06.580Z</time>
      </trkpt>
      <trkpt lat="50.64706" lon="2.84424">
        <ele>15.941555</ele>
        <time>2020-06-06T18:11:35.011Z</time>
      </trkpt>
      <trkpt lat="50.64741" lon="2.84378">
        <ele>15.970477</ele>
        <time>2020-06-06T18:11:41.583Z</time>
      </trkpt>
      <trkpt lat="50.65021" lon="2.83973">
        <ele>16.442752</ele>
        <time>2020-06-06T18:12:41.031Z</time>
      </trkpt>
      <trkpt lat="50.65048" lon="2.8394">
        <ele>16.450869</ele>
        <time>2020-06-06T18:12:45.925Z</time>
      </trkpt>
      <trkpt lat="50.65106" lon="2.83895">
        <ele>16.469709</ele>
        <time>2020-06-06T18:12:55.296Z</time>
      </trkpt>
      <trkpt lat="50.65135" lon="2.83871">
        <ele>16.511917</ele>
        <time>2020-06-06T18:13:00.116Z</time>
      </trkpt>
      <trkpt lat="50.65148" lon="2.83859">
        <ele>16.531348</ele>
        <time>2020-06-06T18:13:02.484Z</time>
      </trkpt>
      <trkpt lat="50.65229" lon="2.8376">
        <ele>16.662604</ele>
        <time>2020-06-06T18:13:17.752Z</time>
      </trkpt>
      <trkpt lat="50.65234" lon="2.83755">
        <ele>16.670155</ele>
        <time>2020-06-06T18:13:18.797Z</time>
      </trkpt>
      <trkpt lat="50.6521" lon="2.83655">
        <ele>16.944894</ele>
        <time>2020-06-06T18:13:30.184Z</time>
      </trkpt>
      <trkpt lat="50.65207" lon="2.83644">
        <ele>16.985423</ele>
        <time>2020-06-06T18:13:31.572Z</time>
      </trkpt>
      <trkpt lat="50.65205" lon="2.83605">
        <ele>17.118426</ele>
        <time>2020-06-06T18:13:35.856Z</time>
      </trkpt>
      <trkpt lat="50.65205" lon="2.83596">
        <ele>17.146362</ele>
        <time>2020-06-06T18:13:36.810Z</time>
      </trkpt>
      <trkpt lat="50.65217" lon="2.83546">
        <ele>17.326362</ele>
        <time>2020-06-06T18:13:42.693Z</time>
      </trkpt>
      <trkpt lat="50.65222" lon="2.83519">
        <ele>17.422201</ele>
        <time>2020-06-06T18:13:45.903Z</time>
      </trkpt>
      <trkpt lat="50.65227" lon="2.83517">
        <ele>17.448833</ele>
        <time>2020-06-06T18:13:46.829Z</time>
      </trkpt>
      <trkpt lat="50.6534" lon="2.83419">
        <ele>17.868647</ele>
        <time>2020-06-06T18:14:08.268Z</time>
      </trkpt>
      <trkpt lat="50.65353" lon="2.834">
        <ele>17.912717</ele>
        <time>2020-06-06T18:14:11.301Z</time>
      </trkpt>
      <trkpt lat="50.6538" lon="2.833">
        <ele>18.07848</ele>
        <time>2020-06-06T18:14:21.404Z</time>
      </trkpt>
      <trkpt lat="50.65387" lon="2.83282">
        <ele>18.063444</ele>
        <time>2020-06-06T18:14:23.404Z</time>
      </trkpt>
      <trkpt lat="50.65396" lon="2.83263">
        <ele>18.037067</ele>
        <time>2020-06-06T18:14:25.509Z</time>
      </trkpt>
      <trkpt lat="50.65439" lon="2.8318">
        <ele>17.917017</ele>
        <time>2020-06-06T18:14:35.283Z</time>
      </trkpt>
      <trkpt lat="50.65454" lon="2.83149">
        <ele>17.874323</ele>
        <time>2020-06-06T18:14:38.762Z</time>
      </trkpt>
      <trkpt lat="50.65461" lon="2.83136">
        <ele>17.855116</ele>
        <time>2020-06-06T18:14:40.246Z</time>
      </trkpt>
      <trkpt lat="50.6551" lon="2.83042">
        <ele>17.741092</ele>
        <time>2020-06-06T18:14:50.954Z</time>
      </trkpt>
      <trkpt lat="50.65522" lon="2.83019">
        <ele>17.722916</ele>
        <time>2020-06-06T18:14:53.619Z</time>
      </trkpt>
      <trkpt lat="50.65536" lon="2.82994">
        <ele>17.70282</ele>
        <time>2020-06-06T18:14:56.563Z</time>
      </trkpt>
      <trkpt lat="50.65573" lon="2.82926">
        <ele>17.648261</ele>
        <time>2020-06-06T18:15:04.872Z</time>
      </trkpt>
      <trkpt lat="50.65587" lon="2.82903">
        <ele>17.62901</ele>
        <time>2020-06-06T18:15:07.821Z</time>
      </trkpt>
      <trkpt lat="50.6564" lon="2.8284">
        <ele>17.581341</ele>
        <time>2020-06-06T18:15:17.637Z</time>
      </trkpt>
      <trkpt lat="50.65757" lon="2.82625">
        <ele>17.472316</ele>
        <time>2020-06-06T18:15:44.303Z</time>
      </trkpt>
      <trkpt lat="50.65768" lon="2.82608">
        <ele>17.450767</ele>
        <time>2020-06-06T18:15:46.479Z</time>
      </trkpt>
      <trkpt lat="50.65844" lon="2.8252">
        <ele>17.313502</ele>
        <time>2020-06-06T18:15:59.950Z</time>
      </trkpt>
      <trkpt lat="50.65991" lon="2.82343">
        <ele>16.84122</ele>
        <time>2020-06-06T18:16:25.478Z</time>
      </trkpt>
      <trkpt lat="50.66047" lon="2.82213">
        <ele>16.647582</ele>
        <time>2020-06-06T18:16:39.517Z</time>
      </trkpt>
      <trkpt lat="50.66128" lon="2.82102">
        <ele>16.489275</ele>
        <time>2020-06-06T18:16:55.145Z</time>
      </trkpt>
      <trkpt lat="50.66183" lon="2.82051">
        <ele>16.400792</ele>
        <time>2020-06-06T18:17:04.394Z</time>
      </trkpt>
      <trkpt lat="50.66241" lon="2.8191">
        <ele>16.254254</ele>
        <time>2020-06-06T18:17:19.582Z</time>
      </trkpt>
      <trkpt lat="50.66269" lon="2.81864">
        <ele>16.174982</ele>
        <time>2020-06-06T18:17:25.191Z</time>
      </trkpt>
      <trkpt lat="50.66357" lon="2.81766">
        <ele>15.912284</ele>
        <time>2020-06-06T18:17:40.257Z</time>
      </trkpt>
      <trkpt lat="50.66415" lon="2.81668">
        <ele>15.772361</ele>
        <time>2020-06-06T18:17:52.166Z</time>
      </trkpt>
      <trkpt lat="50.6638" lon="2.8158">
        <ele>15.733697</ele>
        <time>2020-06-06T18:18:01.631Z</time>
      </trkpt>
      <trkpt lat="50.66343" lon="2.81435">
        <ele>15.734508</ele>
        <time>2020-06-06T18:18:16.648Z</time>
      </trkpt>
      <trkpt lat="50.66308" lon="2.8135">
        <ele>15.878161</ele>
        <time>2020-06-06T18:18:26.697Z</time>
      </trkpt>
      <trkpt lat="50.66256" lon="2.81246">
        <ele>16.067221</ele>
        <time>2020-06-06T18:18:40.139Z</time>
      </trkpt>
      <trkpt lat="50.66148" lon="2.81065">
        <ele>16.339763</ele>
        <time>2020-06-06T18:19:04.842Z</time>
      </trkpt>
      <trkpt lat="50.65887" lon="2.80734">
        <ele>16.401747</ele>
        <time>2020-06-06T18:19:54.835Z</time>
      </trkpt>
      <trkpt lat="50.65842" lon="2.80664">
        <ele>16.36066</ele>
        <time>2020-06-06T18:20:03.801Z</time>
      </trkpt>
      <trkpt lat="50.65972" lon="2.80512">
        <ele>15.98173</ele>
        <time>2020-06-06T18:20:26.336Z</time>
      </trkpt>
      <trkpt lat="50.66068" lon="2.80421">
        <ele>16.03271</ele>
        <time>2020-06-06T18:20:42.665Z</time>
      </trkpt>
      <trkpt lat="50.66148" lon="2.80328">
        <ele>16.133814</ele>
        <time>2020-06-06T18:20:58.493Z</time>
      </trkpt>
      <trkpt lat="50.66156" lon="2.8032">
        <ele>16.150727</ele>
        <time>2020-06-06T18:21:00.051Z</time>
      </trkpt>
      <trkpt lat="50.66218" lon="2.80251">
        <ele>16.287812</ele>
        <time>2020-06-06T18:21:12.051Z</time>
      </trkpt>
      <trkpt lat="50.66231" lon="2.80237">
        <ele>16.317009</ele>
        <time>2020-06-06T18:21:14.601Z</time>
      </trkpt>
      <trkpt lat="50.66225" lon="2.80172">
        <ele>16.391759</ele>
        <time>2020-06-06T18:21:20.996Z</time>
      </trkpt>
      <trkpt lat="50.66222" lon="2.80154">
        <ele>16.413213</ele>
        <time>2020-06-06T18:21:22.870Z</time>
      </trkpt>
      <trkpt lat="50.66191" lon="2.79975">
        <ele>16.052016</ele>
        <time>2020-06-06T18:21:39.797Z</time>
      </trkpt>
      <trkpt lat="50.66276" lon="2.79919">
        <ele>15.643224</ele>
        <time>2020-06-06T18:21:51.741Z</time>
      </trkpt>
      <trkpt lat="50.66317" lon="2.79897">
        <ele>15.321823</ele>
        <time>2020-06-06T18:21:57.133Z</time>
      </trkpt>
      <trkpt lat="50.66381" lon="2.79857">
        <ele>14.812103</ele>
        <time>2020-06-06T18:22:05.973Z</time>
      </trkpt>
      <trkpt lat="50.66384" lon="2.79855">
        <ele>14.78882</ele>
        <time>2020-06-06T18:22:06.301Z</time>
      </trkpt>
      <trkpt lat="50.66443" lon="2.79818">
        <ele>14.37926</ele>
        <time>2020-06-06T18:22:14.383Z</time>
      </trkpt>
      <trkpt lat="50.6649" lon="2.79798">
        <ele>14.156575</ele>
        <time>2020-06-06T18:22:20.404Z</time>
      </trkpt>
      <trkpt lat="50.66574" lon="2.79829">
        <ele>13.755599</ele>
        <time>2020-06-06T18:22:32.286Z</time>
      </trkpt>
      <trkpt lat="50.666" lon="2.79891">
        <ele>13.680915</ele>
        <time>2020-06-06T18:22:39.019Z</time>
      </trkpt>
      <trkpt lat="50.66635" lon="2.7987">
        <ele>13.730795</ele>
        <time>2020-06-06T18:22:44.492Z</time>
      </trkpt>
      <trkpt lat="50.66809" lon="2.79701">
        <ele>14.077675</ele>
        <time>2020-06-06T18:23:16.954Z</time>
      </trkpt>
      <trkpt lat="50.66831" lon="2.79686">
        <ele>14.130609</ele>
        <time>2020-06-06T18:23:20.855Z</time>
      </trkpt>
      <trkpt lat="50.6699" lon="2.79628">
        <ele>14.38127</ele>
        <time>2020-06-06T18:23:45.986Z</time>
      </trkpt>
      <trkpt lat="50.67182" lon="2.79415">
        <ele>14.688885</ele>
        <time>2020-06-06T18:24:21.438Z</time>
      </trkpt>
      <trkpt lat="50.67354" lon="2.79249">
        <ele>15.406226</ele>
        <time>2020-06-06T18:24:54.521Z</time>
      </trkpt>
      <trkpt lat="50.6739" lon="2.79215">
        <ele>15.599648</ele>
        <time>2020-06-06T18:25:01.741Z</time>
      </trkpt>
      <trkpt lat="50.67407" lon="2.79198">
        <ele>15.701556</ele>
        <time>2020-06-06T18:25:05.497Z</time>
      </trkpt>
      <trkpt lat="50.67517" lon="2.79092">
        <ele>16.326054</ele>
        <time>2020-06-06T18:25:27.382Z</time>
      </trkpt>
      <trkpt lat="50.67527" lon="2.79071">
        <ele>16.296036</ele>
        <time>2020-06-06T18:25:29.725Z</time>
      </trkpt>
      <trkpt lat="50.67533" lon="2.79055">
        <ele>16.274689</ele>
        <time>2020-06-06T18:25:31.737Z</time>
      </trkpt>
      <trkpt lat="50.6753" lon="2.79046">
        <ele>16.263263</ele>
        <time>2020-06-06T18:25:32.676Z</time>
      </trkpt>
      <trkpt lat="50.67517" lon="2.7903">
        <ele>16.232376</ele>
        <time>2020-06-06T18:25:34.895Z</time>
      </trkpt>
      <trkpt lat="50.67407" lon="2.78938">
        <ele>16.005434</ele>
        <time>2020-06-06T18:25:51.966Z</time>
      </trkpt>
      <trkpt lat="50.67302" lon="2.78785">
        <ele>15.658384</ele>
        <time>2020-06-06T18:26:11.567Z</time>
      </trkpt>
      <trkpt lat="50.67274" lon="2.78725">
        <ele>15.554755</ele>
        <time>2020-06-06T18:26:18.477Z</time>
      </trkpt>
      <trkpt lat="50.67246" lon="2.78559">
        <ele>15.475032</ele>
        <time>2020-06-06T18:26:34.566Z</time>
      </trkpt>
      <trkpt lat="50.67152" lon="2.78311">
        <ele>15.408832</ele>
        <time>2020-06-06T18:27:01.117Z</time>
      </trkpt>
      <trkpt lat="50.67026" lon="2.78074">
        <ele>15.543732</ele>
        <time>2020-06-06T18:27:31.251Z</time>
      </trkpt>
      <trkpt lat="50.67018" lon="2.78058">
        <ele>15.557457</ele>
        <time>2020-06-06T18:27:33.345Z</time>
      </trkpt>
      <trkpt lat="50.66943" lon="2.77908">
        <ele>15.515261</ele>
        <time>2020-06-06T18:27:51.355Z</time>
      </trkpt>
      <trkpt lat="50.66894" lon="2.77801">
        <ele>15.443517</ele>
        <time>2020-06-06T18:28:03.360Z</time>
      </trkpt>
      <trkpt lat="50.66778" lon="2.77579">
        <ele>14.904905</ele>
        <time>2020-06-06T18:28:28.537Z</time>
      </trkpt>
      <trkpt lat="50.66749" lon="2.77504">
        <ele>14.757712</ele>
        <time>2020-06-06T18:28:36.102Z</time>
      </trkpt>
      <trkpt lat="50.66746" lon="2.77464">
        <ele>14.690571</ele>
        <time>2020-06-06T18:28:39.680Z</time>
      </trkpt>
      <trkpt lat="50.66749" lon="2.77414">
        <ele>14.608198</ele>
        <time>2020-06-06T18:28:44.073Z</time>
      </trkpt>
      <trkpt lat="50.66752" lon="2.77392">
        <ele>14.570572</ele>
        <time>2020-06-06T18:28:46.130Z</time>
      </trkpt>
      <trkpt lat="50.66779" lon="2.77282">
        <ele>14.4368</ele>
        <time>2020-06-06T18:28:56.380Z</time>
      </trkpt>
      <trkpt lat="50.66783" lon="2.77262">
        <ele>14.447993</ele>
        <time>2020-06-06T18:28:58.318Z</time>
      </trkpt>
      <trkpt lat="50.66784" lon="2.77246">
        <ele>14.456269</ele>
        <time>2020-06-06T18:28:59.720Z</time>
      </trkpt>
      <trkpt lat="50.66786" lon="2.77234">
        <ele>14.462993</ele>
        <time>2020-06-06T18:29:00.879Z</time>
      </trkpt>
      <trkpt lat="50.66785" lon="2.77217">
        <ele>14.472086</ele>
        <time>2020-06-06T18:29:02.672Z</time>
      </trkpt>
      <trkpt lat="50.66784" lon="2.77193">
        <ele>14.484871</ele>
        <time>2020-06-06T18:29:04.938Z</time>
      </trkpt>
      <trkpt lat="50.66777" lon="2.77128">
        <ele>14.519712</ele>
        <time>2020-06-06T18:29:11.391Z</time>
      </trkpt>
      <trkpt lat="50.66776" lon="2.77118">
        <ele>14.524972</ele>
        <time>2020-06-06T18:29:12.339Z</time>
      </trkpt>
      <trkpt lat="50.6676" lon="2.77002">
        <ele>14.635874</ele>
        <time>2020-06-06T18:29:24.536Z</time>
      </trkpt>
      <trkpt lat="50.6676" lon="2.77002">
        <ele>14.638102</ele>
        <time>2020-06-06T18:29:24.742Z</time>
      </trkpt>
      <trkpt lat="50.66746" lon="2.76961">
        <ele>14.739603</ele>
        <time>2020-06-06T18:29:29.240Z</time>
      </trkpt>
      <trkpt lat="50.66722" lon="2.76926">
        <ele>14.852773</ele>
        <time>2020-06-06T18:29:34.627Z</time>
      </trkpt>
      <trkpt lat="50.66714" lon="2.76918">
        <ele>14.882714</ele>
        <time>2020-06-06T18:29:36.037Z</time>
      </trkpt>
      <trkpt lat="50.66563" lon="2.76861">
        <ele>15.221832</ele>
        <time>2020-06-06T18:30:01.520Z</time>
      </trkpt>
      <trkpt lat="50.66555" lon="2.76849">
        <ele>15.226535</ele>
        <time>2020-06-06T18:30:03.255Z</time>
      </trkpt>
      <trkpt lat="50.66545" lon="2.76835">
        <ele>15.232005</ele>
        <time>2020-06-06T18:30:05.129Z</time>
      </trkpt>
      <trkpt lat="50.66522" lon="2.76778">
        <ele>15.25053</ele>
        <time>2020-06-06T18:30:11.267Z</time>
      </trkpt>
      <trkpt lat="50.66509" lon="2.76711">
        <ele>15.269475</ele>
        <time>2020-06-06T18:30:17.519Z</time>
      </trkpt>
      <trkpt lat="50.66479" lon="2.7662">
        <ele>15.138661</ele>
        <time>2020-06-06T18:30:26.658Z</time>
      </trkpt>
      <trkpt lat="50.66471" lon="2.76599">
        <ele>15.10688</ele>
        <time>2020-06-06T18:30:28.631Z</time>
      </trkpt>
      <trkpt lat="50.66466" lon="2.76582">
        <ele>15.080698</ele>
        <time>2020-06-06T18:30:30.360Z</time>
      </trkpt>
      <trkpt lat="50.66459" lon="2.76565">
        <ele>15.054213</ele>
        <time>2020-06-06T18:30:32.228Z</time>
      </trkpt>
      <trkpt lat="50.66435" lon="2.76508">
        <ele>14.963464</ele>
        <time>2020-06-06T18:30:38.220Z</time>
      </trkpt>
      <trkpt lat="50.66404" lon="2.7638">
        <ele>14.988996</ele>
        <time>2020-06-06T18:30:51.006Z</time>
      </trkpt>
      <trkpt lat="50.66384" lon="2.76321">
        <ele>15.065031</ele>
        <time>2020-06-06T18:30:57.810Z</time>
      </trkpt>
      <trkpt lat="50.66357" lon="2.76288">
        <ele>15.126411</ele>
        <time>2020-06-06T18:31:03.207Z</time>
      </trkpt>
      <trkpt lat="50.66245" lon="2.762">
        <ele>15.35202</ele>
        <time>2020-06-06T18:31:23.206Z</time>
      </trkpt>
      <trkpt lat="50.66317" lon="2.7602">
        <ele>15.550564</ele>
        <time>2020-06-06T18:31:51.391Z</time>
      </trkpt>
      <trkpt lat="50.66405" lon="2.75869">
        <ele>15.593348</ele>
        <time>2020-06-06T18:32:17.574Z</time>
      </trkpt>
      <trkpt lat="50.66459" lon="2.75807">
        <ele>15.615066</ele>
        <time>2020-06-06T18:32:31.081Z</time>
      </trkpt>
      <trkpt lat="50.6654" lon="2.757">
        <ele>15.64904</ele>
        <time>2020-06-06T18:32:52.665Z</time>
      </trkpt>
      <trkpt lat="50.66605" lon="2.75677">
        <ele>15.713808</ele>
        <time>2020-06-06T18:33:06.560Z</time>
      </trkpt>
      <trkpt lat="50.66794" lon="2.75634">
        <ele>15.909401</ele>
        <time>2020-06-06T18:33:46.407Z</time>
      </trkpt>
      <trkpt lat="50.66842" lon="2.756">
        <ele>15.904896</ele>
        <time>2020-06-06T18:33:57.058Z</time>
      </trkpt>
      <trkpt lat="50.66854" lon="2.75584">
        <ele>15.903556</ele>
        <time>2020-06-06T18:34:00.175Z</time>
      </trkpt>
      <trkpt lat="50.66865" lon="2.75549">
        <ele>15.901398</ele>
        <time>2020-06-06T18:34:05.134Z</time>
      </trkpt>
      <trkpt lat="50.66876" lon="2.75418">
        <ele>15.846809</ele>
        <time>2020-06-06T18:34:21.461Z</time>
      </trkpt>
      <trkpt lat="50.66903" lon="2.75232">
        <ele>15.716687</ele>
        <time>2020-06-06T18:34:45.137Z</time>
      </trkpt>
      <trkpt lat="50.66969" lon="2.75021">
        <ele>16.028128</ele>
        <time>2020-06-06T18:35:17.138Z</time>
      </trkpt>
      <trkpt lat="50.66961" lon="2.74958">
        <ele>16.123389</ele>
        <time>2020-06-06T18:35:25.990Z</time>
      </trkpt>
      <trkpt lat="50.66961" lon="2.74945">
        <ele>16.121719</ele>
        <time>2020-06-06T18:35:28.169Z</time>
      </trkpt>
      <trkpt lat="50.66952" lon="2.7494">
        <ele>16.113902</ele>
        <time>2020-06-06T18:35:29.529Z</time>
      </trkpt>
      <trkpt lat="50.66814" lon="2.74684">
        <ele>15.836214</ele>
        <time>2020-06-06T18:35:59.677Z</time>
      </trkpt>
      <trkpt lat="50.66791" lon="2.74647">
        <ele>15.744373</ele>
        <time>2020-06-06T18:36:04.014Z</time>
      </trkpt>
      <trkpt lat="50.66787" lon="2.7464">
        <ele>15.727879</ele>
        <time>2020-06-06T18:36:04.801Z</time>
      </trkpt>
      <trkpt lat="50.66768" lon="2.74615">
        <ele>15.658422</ele>
        <time>2020-06-06T18:36:08.136Z</time>
      </trkpt>
      <trkpt lat="50.6676" lon="2.74609">
        <ele>15.633688</ele>
        <time>2020-06-06T18:36:09.355Z</time>
      </trkpt>
      <trkpt lat="50.66751" lon="2.74611">
        <ele>15.60824</ele>
        <time>2020-06-06T18:36:10.599Z</time>
      </trkpt>
      <trkpt lat="50.66731" lon="2.74631">
        <ele>15.543058</ele>
        <time>2020-06-06T18:36:13.842Z</time>
      </trkpt>
      <trkpt lat="50.66712" lon="2.74625">
        <ele>15.487405</ele>
        <time>2020-06-06T18:36:16.646Z</time>
      </trkpt>
      <trkpt lat="50.66665" lon="2.74532">
        <ele>15.595689</ele>
        <time>2020-06-06T18:36:27.891Z</time>
      </trkpt>
      <trkpt lat="50.66608" lon="2.74425">
        <ele>15.752772</ele>
        <time>2020-06-06T18:36:42.199Z</time>
      </trkpt>
      <trkpt lat="50.66571" lon="2.74366">
        <ele>15.903546</ele>
        <time>2020-06-06T18:36:50.805Z</time>
      </trkpt>
      <trkpt lat="50.66519" lon="2.74286">
        <ele>16.168165</ele>
        <time>2020-06-06T18:37:02.607Z</time>
      </trkpt>
      <trkpt lat="50.66519" lon="2.74285">
        <ele>16.169457</ele>
        <time>2020-06-06T18:37:02.708Z</time>
      </trkpt>
      <trkpt lat="50.6643" lon="2.74187">
        <ele>16.454221</ele>
        <time>2020-06-06T18:37:20.372Z</time>
      </trkpt>
      <trkpt lat="50.6641" lon="2.74153">
        <ele>16.460779</ele>
        <time>2020-06-06T18:37:24.893Z</time>
      </trkpt>
      <trkpt lat="50.66371" lon="2.74083">
        <ele>16.474088</ele>
        <time>2020-06-06T18:37:33.648Z</time>
      </trkpt>
      <trkpt lat="50.66363" lon="2.74066">
        <ele>16.477123</ele>
        <time>2020-06-06T18:37:35.707Z</time>
      </trkpt>
      <trkpt lat="50.66299" lon="2.73944">
        <ele>16.296712</ele>
        <time>2020-06-06T18:37:49.692Z</time>
      </trkpt>
      <trkpt lat="50.66242" lon="2.73818">
        <ele>15.954369</ele>
        <time>2020-06-06T18:38:02.779Z</time>
      </trkpt>
      <trkpt lat="50.6623" lon="2.73818">
        <ele>15.911717</ele>
        <time>2020-06-06T18:38:04.435Z</time>
      </trkpt>
      <trkpt lat="50.66189" lon="2.73867">
        <ele>15.821481</ele>
        <time>2020-06-06T18:38:11.508Z</time>
      </trkpt>
      <trkpt lat="50.66099" lon="2.73812">
        <ele>15.721156</ele>
        <time>2020-06-06T18:38:25.549Z</time>
      </trkpt>
      <trkpt lat="50.66018" lon="2.73814">
        <ele>15.693807</ele>
        <time>2020-06-06T18:38:37.891Z</time>
      </trkpt>
      <trkpt lat="50.65953" lon="2.73792">
        <ele>15.73717</ele>
        <time>2020-06-06T18:38:48.174Z</time>
      </trkpt>
      <trkpt lat="50.65884" lon="2.73737">
        <ele>15.786955</ele>
        <time>2020-06-06T18:38:59.683Z</time>
      </trkpt>
      <trkpt lat="50.65721" lon="2.7354">
        <ele>15.731869</ele>
        <time>2020-06-06T18:39:29.832Z</time>
      </trkpt>
      <trkpt lat="50.65645" lon="2.73391">
        <ele>15.754175</ele>
        <time>2020-06-06T18:39:47.993Z</time>
      </trkpt>
      <trkpt lat="50.65626" lon="2.73328">
        <ele>15.748981</ele>
        <time>2020-06-06T18:39:54.472Z</time>
      </trkpt>
      <trkpt lat="50.65703" lon="2.73198">
        <ele>15.597136</ele>
        <time>2020-06-06T18:40:16.743Z</time>
      </trkpt>
      <trkpt lat="50.65747" lon="2.73134">
        <ele>15.519672</ele>
        <time>2020-06-06T18:40:28.454Z</time>
      </trkpt>
      <trkpt lat="50.65847" lon="2.7308">
        <ele>15.572526</ele>
        <time>2020-06-06T18:40:49.560Z</time>
      </trkpt>
      <trkpt lat="50.6587" lon="2.73059">
        <ele>15.585694</ele>
        <time>2020-06-06T18:40:55.022Z</time>
      </trkpt>
      <trkpt lat="50.65999" lon="2.72804">
        <ele>15.908216</ele>
        <time>2020-06-06T18:41:38.955Z</time>
      </trkpt>
      <trkpt lat="50.66179" lon="2.72417">
        <ele>15.828916</ele>
        <time>2020-06-06T18:42:40.054Z</time>
      </trkpt>
      <trkpt lat="50.66284" lon="2.7227">
        <ele>15.826544</ele>
        <time>2020-06-06T18:43:08.433Z</time>
      </trkpt>
      <trkpt lat="50.66319" lon="2.72235">
        <ele>15.843012</ele>
        <time>2020-06-06T18:43:16.920Z</time>
      </trkpt>
      <trkpt lat="50.66302" lon="2.72235">
        <ele>15.849941</ele>
        <time>2020-06-06T18:43:19.442Z</time>
      </trkpt>
      <trkpt lat="50.66267" lon="2.72205">
        <ele>15.865649</ele>
        <time>2020-06-06T18:43:25.372Z</time>
      </trkpt>
      <trkpt lat="50.66068" lon="2.71851">
        <ele>16.374531</ele>
        <time>2020-06-06T18:44:12.687Z</time>
      </trkpt>
      <trkpt lat="50.66055" lon="2.71829">
        <ele>16.396261</ele>
        <time>2020-06-06T18:44:15.414Z</time>
      </trkpt>
      <trkpt lat="50.66051" lon="2.71821">
        <ele>16.403296</ele>
        <time>2020-06-06T18:44:16.741Z</time>
      </trkpt>
      <trkpt lat="50.66047" lon="2.71814">
        <ele>16.410773</ele>
        <time>2020-06-06T18:44:17.738Z</time>
      </trkpt>
      <trkpt lat="50.66045" lon="2.71811">
        <ele>16.413675</ele>
        <time>2020-06-06T18:44:18.129Z</time>
      </trkpt>
      <trkpt lat="50.66043" lon="2.71807">
        <ele>16.417612</ele>
        <time>2020-06-06T18:44:18.667Z</time>
      </trkpt>
      <trkpt lat="50.66045" lon="2.71804">
        <ele>16.421369</ele>
        <time>2020-06-06T18:44:19.196Z</time>
      </trkpt>
      <trkpt lat="50.66278" lon="2.71606">
        <ele>16.196532</ele>
        <time>2020-06-06T18:45:11.525Z</time>
      </trkpt>
      <trkpt lat="50.6642" lon="2.71499">
        <ele>16.024462</ele>
        <time>2020-06-06T18:45:42.410Z</time>
      </trkpt>
      <trkpt lat="50.66432" lon="2.71491">
        <ele>16.016179</ele>
        <time>2020-06-06T18:45:45.011Z</time>
      </trkpt>
      <trkpt lat="50.66437" lon="2.71487">
        <ele>16.012306</ele>
        <time>2020-06-06T18:45:46.130Z</time>
      </trkpt>
      <trkpt lat="50.66506" lon="2.71421">
        <ele>15.959594</ele>
        <time>2020-06-06T18:46:02.414Z</time>
      </trkpt>
      <trkpt lat="50.66539" lon="2.71393">
        <ele>15.935228</ele>
        <time>2020-06-06T18:46:09.924Z</time>
      </trkpt>
      <trkpt lat="50.6657" lon="2.71367">
        <ele>15.955559</ele>
        <time>2020-06-06T18:46:17.069Z</time>
      </trkpt>
      <trkpt lat="50.66687" lon="2.71265">
        <ele>16.159789</ele>
        <time>2020-06-06T18:46:44.953Z</time>
      </trkpt>
      <trkpt lat="50.66773" lon="2.71201">
        <ele>16.35862</ele>
        <time>2020-06-06T18:47:05.188Z</time>
      </trkpt>
      <trkpt lat="50.66855" lon="2.7111">
        <ele>16.588682</ele>
        <time>2020-06-06T18:47:26.478Z</time>
      </trkpt>
      <trkpt lat="50.66879" lon="2.7108">
        <ele>16.617099</ele>
        <time>2020-06-06T18:47:33.058Z</time>
      </trkpt>
      <trkpt lat="50.66886" lon="2.71073">
        <ele>16.618585</ele>
        <time>2020-06-06T18:47:34.730Z</time>
      </trkpt>
      <trkpt lat="50.67808" lon="2.70049">
        <ele>16.589326</ele>
        <time>2020-06-06T18:51:23.177Z</time>
      </trkpt>
      <trkpt lat="50.67811" lon="2.70047">
        <ele>16.57983</ele>
        <time>2020-06-06T18:51:24.194Z</time>
      </trkpt>
      <trkpt lat="50.67806" lon="2.7003">
        <ele>16.547356</ele>
        <time>2020-06-06T18:51:25.732Z</time>
      </trkpt>
      <trkpt lat="50.67718" lon="2.69752">
        <ele>15.754747</ele>
        <time>2020-06-06T18:51:51.713Z</time>
      </trkpt>
      <trkpt lat="50.6772" lon="2.69614">
        <ele>15.365833</ele>
        <time>2020-06-06T18:52:03.262Z</time>
      </trkpt>
      <trkpt lat="50.67717" lon="2.69593">
        <ele>15.342265</ele>
        <time>2020-06-06T18:52:05.192Z</time>
      </trkpt>
      <trkpt lat="50.67648" lon="2.694">
        <ele>15.109651</ele>
        <time>2020-06-06T18:52:25.204Z</time>
      </trkpt>
      <trkpt lat="50.67628" lon="2.69347">
        <ele>15.144295</ele>
        <time>2020-06-06T18:52:31.234Z</time>
      </trkpt>
      <trkpt lat="50.67583" lon="2.69224">
        <ele>15.301765</ele>
        <time>2020-06-06T18:52:45.422Z</time>
      </trkpt>
      <trkpt lat="50.67558" lon="2.69154">
        <ele>15.392342</ele>
        <time>2020-06-06T18:52:53.603Z</time>
      </trkpt>
      <trkpt lat="50.67549" lon="2.69077">
        <ele>15.448554</ele>
        <time>2020-06-06T18:53:01.154Z</time>
      </trkpt>
      <trkpt lat="50.67548" lon="2.6905">
        <ele>15.465749</ele>
        <time>2020-06-06T18:53:03.953Z</time>
      </trkpt>
      <trkpt lat="50.67535" lon="2.68895">
        <ele>15.564213</ele>
        <time>2020-06-06T18:53:19.013Z</time>
      </trkpt>
      <trkpt lat="50.67524" lon="2.68756">
        <ele>15.601459</ele>
        <time>2020-06-06T18:53:32.087Z</time>
      </trkpt>
      <trkpt lat="50.67523" lon="2.68749">
        <ele>15.602461</ele>
        <time>2020-06-06T18:53:32.798Z</time>
      </trkpt>
      <trkpt lat="50.67586" lon="2.68669">
        <ele>15.619643</ele>
        <time>2020-06-06T18:53:49.064Z</time>
      </trkpt>
      <trkpt lat="50.6771" lon="2.68528">
        <ele>15.675631</ele>
        <time>2020-06-06T18:54:20.364Z</time>
      </trkpt>
      <trkpt lat="50.67738" lon="2.68493">
        <ele>15.689875</ele>
        <time>2020-06-06T18:54:27.585Z</time>
      </trkpt>
      <trkpt lat="50.67816" lon="2.684">
        <ele>15.737477</ele>
        <time>2020-06-06T18:54:47.686Z</time>
      </trkpt>
      <trkpt lat="50.68121" lon="2.68148">
        <ele>15.937344</ele>
        <time>2020-06-06T18:55:58.295Z</time>
      </trkpt>
      <trkpt lat="50.68199" lon="2.68064">
        <ele>15.926662</ele>
        <time>2020-06-06T18:56:17.356Z</time>
      </trkpt>
      <trkpt lat="50.68496" lon="2.67693">
        <ele>15.213703</ele>
        <time>2020-06-06T18:57:31.301Z</time>
      </trkpt>
      <trkpt lat="50.68537" lon="2.67645">
        <ele>15.177412</ele>
        <time>2020-06-06T18:57:41.368Z</time>
      </trkpt>
      <trkpt lat="50.68617" lon="2.6755">
        <ele>15.119359</ele>
        <time>2020-06-06T18:58:01.463Z</time>
      </trkpt>
      <trkpt lat="50.68682" lon="2.67481">
        <ele>15.081434</ele>
        <time>2020-06-06T18:58:17.241Z</time>
      </trkpt>
      <trkpt lat="50.68719" lon="2.67454">
        <ele>15.06441</ele>
        <time>2020-06-06T18:58:25.476Z</time>
      </trkpt>
      <trkpt lat="50.6884" lon="2.67388">
        <ele>15.01232</ele>
        <time>2020-06-06T18:58:50.950Z</time>
      </trkpt>
      <trkpt lat="50.68946" lon="2.67347">
        <ele>14.970779</ele>
        <time>2020-06-06T18:59:12.797Z</time>
      </trkpt>
      <trkpt lat="50.68974" lon="2.67329">
        <ele>14.959423</ele>
        <time>2020-06-06T18:59:18.875Z</time>
      </trkpt>
      <trkpt lat="50.69185" lon="2.67085">
        <ele>15.456301</ele>
        <time>2020-06-06T19:00:14.007Z</time>
      </trkpt>
      <trkpt lat="50.69259" lon="2.66916">
        <ele>15.827845</ele>
        <time>2020-06-06T19:00:42.004Z</time>
      </trkpt>
      <trkpt lat="50.6931" lon="2.66831">
        <ele>16.10037</ele>
        <time>2020-06-06T19:00:58.071Z</time>
      </trkpt>
      <trkpt lat="50.6938" lon="2.66788">
        <ele>16.37871</ele>
        <time>2020-06-06T19:01:14.493Z</time>
      </trkpt>
      <trkpt lat="50.6944" lon="2.66753">
        <ele>16.519815</ele>
        <time>2020-06-06T19:01:28.417Z</time>
      </trkpt>
      <trkpt lat="50.69422" lon="2.66711">
        <ele>16.585967</ele>
        <time>2020-06-06T19:01:33.573Z</time>
      </trkpt>
      <trkpt lat="50.6936" lon="2.66574">
        <ele>16.759988</ele>
        <time>2020-06-06T19:01:49.787Z</time>
      </trkpt>
      <trkpt lat="50.69321" lon="2.66532">
        <ele>16.743898</ele>
        <time>2020-06-06T19:01:56.628Z</time>
      </trkpt>
      <trkpt lat="50.69271" lon="2.66501">
        <ele>16.725282</ele>
        <time>2020-06-06T19:02:04.472Z</time>
      </trkpt>
      <trkpt lat="50.69263" lon="2.66492">
        <ele>16.722026</ele>
        <time>2020-06-06T19:02:05.771Z</time>
      </trkpt>
      <trkpt lat="50.69258" lon="2.66488">
        <ele>16.720175</ele>
        <time>2020-06-06T19:02:06.610Z</time>
      </trkpt>
      <trkpt lat="50.69252" lon="2.66473">
        <ele>16.716153</ele>
        <time>2020-06-06T19:02:08.344Z</time>
      </trkpt>
      <trkpt lat="50.69235" lon="2.66393">
        <ele>16.699825</ele>
        <time>2020-06-06T19:02:16.181Z</time>
      </trkpt>
      <trkpt lat="50.69221" lon="2.66381">
        <ele>16.696197</ele>
        <time>2020-06-06T19:02:18.522Z</time>
      </trkpt>
      <trkpt lat="50.69173" lon="2.66395">
        <ele>16.684737</ele>
        <time>2020-06-06T19:02:25.716Z</time>
      </trkpt>
      <trkpt lat="50.69159" lon="2.66391">
        <ele>16.681612</ele>
        <time>2020-06-06T19:02:27.634Z</time>
      </trkpt>
      <trkpt lat="50.69152" lon="2.66377">
        <ele>16.678821</ele>
        <time>2020-06-06T19:02:29.425Z</time>
      </trkpt>
      <trkpt lat="50.69143" lon="2.66315">
        <ele>16.669387</ele>
        <time>2020-06-06T19:02:35.414Z</time>
      </trkpt>
      <trkpt lat="50.69097" lon="2.6616">
        <ele>16.530567</ele>
        <time>2020-06-06T19:02:51.085Z</time>
      </trkpt>
      <trkpt lat="50.69" lon="2.65865">
        <ele>16.167096</ele>
        <time>2020-06-06T19:03:20.836Z</time>
      </trkpt>
      <trkpt lat="50.68983" lon="2.65816">
        <ele>16.105358</ele>
        <time>2020-06-06T19:03:25.891Z</time>
      </trkpt>
      <trkpt lat="50.68978" lon="2.65802">
        <ele>16.087274</ele>
        <time>2020-06-06T19:03:27.397Z</time>
      </trkpt>
      <trkpt lat="50.68971" lon="2.65781">
        <ele>16.060338</ele>
        <time>2020-06-06T19:03:29.590Z</time>
      </trkpt>
      <trkpt lat="50.68894" lon="2.65553">
        <ele>16.031018</ele>
        <time>2020-06-06T19:03:53.759Z</time>
      </trkpt>
      <trkpt lat="50.68772" lon="2.65191">
        <ele>16.281896</ele>
        <time>2020-06-06T19:04:33.026Z</time>
      </trkpt>
      <trkpt lat="50.6871" lon="2.64925">
        <ele>16.697241</ele>
        <time>2020-06-06T19:05:02.024Z</time>
      </trkpt>
      <trkpt lat="50.68758" lon="2.64895">
        <ele>16.834855</ele>
        <time>2020-06-06T19:05:10.487Z</time>
      </trkpt>
      <trkpt lat="50.68817" lon="2.64863">
        <ele>17.000174</ele>
        <time>2020-06-06T19:05:20.391Z</time>
      </trkpt>
      <trkpt lat="50.6903" lon="2.64732">
        <ele>17.060981</ele>
        <time>2020-06-06T19:05:53.972Z</time>
      </trkpt>
      <trkpt lat="50.69066" lon="2.64711">
        <ele>17.102871</ele>
        <time>2020-06-06T19:05:59.721Z</time>
      </trkpt>
      <trkpt lat="50.69102" lon="2.6469">
        <ele>17.144471</ele>
        <time>2020-06-06T19:06:05.521Z</time>
      </trkpt>
      <trkpt lat="50.69175" lon="2.64645">
        <ele>17.247231</ele>
        <time>2020-06-06T19:06:17.877Z</time>
      </trkpt>
      <trkpt lat="50.69318" lon="2.64561">
        <ele>17.637274</ele>
        <time>2020-06-06T19:06:42.220Z</time>
      </trkpt>
      <trkpt lat="50.69363" lon="2.64535">
        <ele>17.801086</ele>
        <time>2020-06-06T19:06:49.552Z</time>
      </trkpt>
      <trkpt lat="50.69373" lon="2.64529">
        <ele>17.840137</ele>
        <time>2020-06-06T19:06:51.102Z</time>
      </trkpt>
      <trkpt lat="50.69475" lon="2.64465">
        <ele>18.257747</ele>
        <time>2020-06-06T19:07:09.520Z</time>
      </trkpt>
      <trkpt lat="50.69479" lon="2.64463">
        <ele>18.274706</ele>
        <time>2020-06-06T19:07:10.138Z</time>
      </trkpt>
      <trkpt lat="50.69498" lon="2.64452">
        <ele>18.349051</ele>
        <time>2020-06-06T19:07:13.665Z</time>
      </trkpt>
      <trkpt lat="50.69519" lon="2.64439">
        <ele>18.43168</ele>
        <time>2020-06-06T19:07:17.243Z</time>
      </trkpt>
      <trkpt lat="50.69523" lon="2.64437">
        <ele>18.44535</ele>
        <time>2020-06-06T19:07:18.099Z</time>
      </trkpt>
      <trkpt lat="50.69601" lon="2.6439">
        <ele>18.744214</ele>
        <time>2020-06-06T19:07:32.129Z</time>
      </trkpt>
      <trkpt lat="50.6962" lon="2.64379">
        <ele>18.814704</ele>
        <time>2020-06-06T19:07:35.253Z</time>
      </trkpt>
      <trkpt lat="50.69648" lon="2.64362">
        <ele>18.921564</ele>
        <time>2020-06-06T19:07:40.239Z</time>
      </trkpt>
      <trkpt lat="50.69743" lon="2.64306">
        <ele>18.784787</ele>
        <time>2020-06-06T19:07:55.023Z</time>
      </trkpt>
      <trkpt lat="50.69766" lon="2.64287">
        <ele>18.714451</ele>
        <time>2020-06-06T19:07:58.484Z</time>
      </trkpt>
      <trkpt lat="50.69785" lon="2.64272">
        <ele>18.656418</ele>
        <time>2020-06-06T19:08:01.291Z</time>
      </trkpt>
      <trkpt lat="50.69866" lon="2.642">
        <ele>18.327849</ele>
        <time>2020-06-06T19:08:13.679Z</time>
      </trkpt>
      <trkpt lat="50.69933" lon="2.64138">
        <ele>17.966633</ele>
        <time>2020-06-06T19:08:23.935Z</time>
      </trkpt>
      <trkpt lat="50.70075" lon="2.64008">
        <ele>17.385954</ele>
        <time>2020-06-06T19:08:46.242Z</time>
      </trkpt>
      <trkpt lat="50.70152" lon="2.63937">
        <ele>17.165041</ele>
        <time>2020-06-06T19:08:58.810Z</time>
      </trkpt>
      <trkpt lat="50.70183" lon="2.63908">
        <ele>17.165854</ele>
        <time>2020-06-06T19:09:04.083Z</time>
      </trkpt>
      <trkpt lat="50.70552" lon="2.63561">
        <ele>17.337492</ele>
        <time>2020-06-06T19:10:08.215Z</time>
      </trkpt>
      <trkpt lat="50.70654" lon="2.63466">
        <ele>17.57484</ele>
        <time>2020-06-06T19:10:27.578Z</time>
      </trkpt>
      <trkpt lat="50.70666" lon="2.63455">
        <ele>17.611496</ele>
        <time>2020-06-06T19:10:29.827Z</time>
      </trkpt>
      <trkpt lat="50.70735" lon="2.6339">
        <ele>17.826627</ele>
        <time>2020-06-06T19:10:42.591Z</time>
      </trkpt>
      <trkpt lat="50.70772" lon="2.63355">
        <ele>17.928974</ele>
        <time>2020-06-06T19:10:49.232Z</time>
      </trkpt>
      <trkpt lat="50.70803" lon="2.63319">
        <ele>17.993263</ele>
        <time>2020-06-06T19:10:55.073Z</time>
      </trkpt>
      <trkpt lat="50.7088" lon="2.63249">
        <ele>18.14364</ele>
        <time>2020-06-06T19:11:08.519Z</time>
      </trkpt>
      <trkpt lat="50.70978" lon="2.63167">
        <ele>18.450603</ele>
        <time>2020-06-06T19:11:26.750Z</time>
      </trkpt>
      <trkpt lat="50.71002" lon="2.6316">
        <ele>18.530503</ele>
        <time>2020-06-06T19:11:30.700Z</time>
      </trkpt>
      <trkpt lat="50.71058" lon="2.63158">
        <ele>18.720626</ele>
        <time>2020-06-06T19:11:39.840Z</time>
      </trkpt>
      <trkpt lat="50.71099" lon="2.63162">
        <ele>18.804486</ele>
        <time>2020-06-06T19:11:46.433Z</time>
      </trkpt>
      <trkpt lat="50.7121" lon="2.6317">
        <ele>18.689671</ele>
        <time>2020-06-06T19:12:02.850Z</time>
      </trkpt>
      <trkpt lat="50.71297" lon="2.63176">
        <ele>18.676161</ele>
        <time>2020-06-06T19:12:14.431Z</time>
      </trkpt>
      <trkpt lat="50.71321" lon="2.63177">
        <ele>18.710977</ele>
        <time>2020-06-06T19:12:17.663Z</time>
      </trkpt>
      <trkpt lat="50.71328" lon="2.63178">
        <ele>18.721163</ele>
        <time>2020-06-06T19:12:18.629Z</time>
      </trkpt>
      <trkpt lat="50.71334" lon="2.63178">
        <ele>18.730171</ele>
        <time>2020-06-06T19:12:19.473Z</time>
      </trkpt>
      <trkpt lat="50.71339" lon="2.63179">
        <ele>18.737703</ele>
        <time>2020-06-06T19:12:20.137Z</time>
      </trkpt>
      <trkpt lat="50.71342" lon="2.63179">
        <ele>18.74257</ele>
        <time>2020-06-06T19:12:20.644Z</time>
      </trkpt>
      <trkpt lat="50.71364" lon="2.63181">
        <ele>18.775473</ele>
        <time>2020-06-06T19:12:23.944Z</time>
      </trkpt>
      <trkpt lat="50.71374" lon="2.63181">
        <ele>18.789329</ele>
        <time>2020-06-06T19:12:25.278Z</time>
      </trkpt>
      <trkpt lat="50.71412" lon="2.63185">
        <ele>18.845444</ele>
        <time>2020-06-06T19:12:31.177Z</time>
      </trkpt>
      <trkpt lat="50.71441" lon="2.63187">
        <ele>18.888104</ele>
        <time>2020-06-06T19:12:35.979Z</time>
      </trkpt>
      <trkpt lat="50.7201" lon="2.63224">
        <ele>29.469875</ele>
        <time>2020-06-06T19:14:41.813Z</time>
      </trkpt>
      <trkpt lat="50.72045" lon="2.63226">
        <ele>30.731137</ele>
        <time>2020-06-06T19:14:51.960Z</time>
      </trkpt>
      <trkpt lat="50.72106" lon="2.63229">
        <ele>32.937143</ele>
        <time>2020-06-06T19:15:10.738Z</time>
      </trkpt>
      <trkpt lat="50.72175" lon="2.63237">
        <ele>35.468806</ele>
        <time>2020-06-06T19:15:32.816Z</time>
      </trkpt>
      <trkpt lat="50.72195" lon="2.63239">
        <ele>36.36144</ele>
        <time>2020-06-06T19:15:39.818Z</time>
      </trkpt>
      <trkpt lat="50.72357" lon="2.6325">
        <ele>43.404081</ele>
        <time>2020-06-06T19:16:31.209Z</time>
      </trkpt>
      <trkpt lat="50.72454" lon="2.63257">
        <ele>47.795743</ele>
        <time>2020-06-06T19:17:03.649Z</time>
      </trkpt>
      <trkpt lat="50.72502" lon="2.6326">
        <ele>50.01214</ele>
        <time>2020-06-06T19:17:19.743Z</time>
      </trkpt>
      <trkpt lat="50.72527" lon="2.63262">
        <ele>51.093551</ele>
        <time>2020-06-06T19:17:28.197Z</time>
      </trkpt>
      <trkpt lat="50.72616" lon="2.63266">
        <ele>53.989583</ele>
        <time>2020-06-06T19:17:56.837Z</time>
      </trkpt>
      <trkpt lat="50.72661" lon="2.63269">
        <ele>55.447606</ele>
        <time>2020-06-06T19:18:09.714Z</time>
      </trkpt>
      <trkpt lat="50.72665" lon="2.63269">
        <ele>55.571257</ele>
        <time>2020-06-06T19:18:10.658Z</time>
      </trkpt>
      <trkpt lat="50.72677" lon="2.63263">
        <ele>55.99673</ele>
        <time>2020-06-06T19:18:13.732Z</time>
      </trkpt>
      <trkpt lat="50.72703" lon="2.63251">
        <ele>56.83148</ele>
        <time>2020-06-06T19:18:19.067Z</time>
      </trkpt>
      <trkpt lat="50.72715" lon="2.63244">
        <ele>56.676501</ele>
        <time>2020-06-06T19:18:21.432Z</time>
      </trkpt>
      <trkpt lat="50.72717" lon="2.63243">
        <ele>56.65024</ele>
        <time>2020-06-06T19:18:21.810Z</time>
      </trkpt>
      <trkpt lat="50.72786" lon="2.63204">
        <ele>55.758323</ele>
        <time>2020-06-06T19:18:31.657Z</time>
      </trkpt>
      <trkpt lat="50.72857" lon="2.63157">
        <ele>54.807708</ele>
        <time>2020-06-06T19:18:39.949Z</time>
      </trkpt>
      <trkpt lat="50.72879" lon="2.63141">
        <ele>54.26402</ele>
        <time>2020-06-06T19:18:42.328Z</time>
      </trkpt>
      <trkpt lat="50.72913" lon="2.63117">
        <ele>52.853588</ele>
        <time>2020-06-06T19:18:46.056Z</time>
      </trkpt>
      <trkpt lat="50.7296" lon="2.63074">
        <ele>50.815333</ele>
        <time>2020-06-06T19:18:51.300Z</time>
      </trkpt>
      <trkpt lat="50.72983" lon="2.63053">
        <ele>49.847293</ele>
        <time>2020-06-06T19:18:53.805Z</time>
      </trkpt>
      <trkpt lat="50.73005" lon="2.63033">
        <ele>48.882496</ele>
        <time>2020-06-06T19:18:56.339Z</time>
      </trkpt>
      <trkpt lat="50.73054" lon="2.62986">
        <ele>47.068583</ele>
        <time>2020-06-06T19:19:02.096Z</time>
      </trkpt>
      <trkpt lat="50.73069" lon="2.62971">
        <ele>46.573464</ele>
        <time>2020-06-06T19:19:03.936Z</time>
      </trkpt>
      <trkpt lat="50.73153" lon="2.62893">
        <ele>43.945453</ele>
        <time>2020-06-06T19:19:14.157Z</time>
      </trkpt>
      <trkpt lat="50.73172" lon="2.62875">
        <ele>43.356572</ele>
        <time>2020-06-06T19:19:16.488Z</time>
      </trkpt>
      <trkpt lat="50.73191" lon="2.62857">
        <ele>42.935447</ele>
        <time>2020-06-06T19:19:18.932Z</time>
      </trkpt>
      <trkpt lat="50.73218" lon="2.62831">
        <ele>42.601383</ele>
        <time>2020-06-06T19:19:22.686Z</time>
      </trkpt>
      <trkpt lat="50.73259" lon="2.62792">
        <ele>42.105341</ele>
        <time>2020-06-06T19:19:28.346Z</time>
      </trkpt>
      <trkpt lat="50.73256" lon="2.62786">
        <ele>42.053387</ele>
        <time>2020-06-06T19:19:28.914Z</time>
      </trkpt>
      <trkpt lat="50.73257" lon="2.62762">
        <ele>41.8948</ele>
        <time>2020-06-06T19:19:30.855Z</time>
      </trkpt>
      <trkpt lat="50.73266" lon="2.62749">
        <ele>41.770023</ele>
        <time>2020-06-06T19:19:32.300Z</time>
      </trkpt>
      <trkpt lat="50.73291" lon="2.62739">
        <ele>41.502466</ele>
        <time>2020-06-06T19:19:35.526Z</time>
      </trkpt>
      <trkpt lat="50.73362" lon="2.62672">
        <ele>41.3483</ele>
        <time>2020-06-06T19:19:47.533Z</time>
      </trkpt>
      <trkpt lat="50.73465" lon="2.62596">
        <ele>41.75398</ele>
        <time>2020-06-06T19:20:07.075Z</time>
      </trkpt>
      <trkpt lat="50.73481" lon="2.62582">
        <ele>41.816991</ele>
        <time>2020-06-06T19:20:10.151Z</time>
      </trkpt>
      <trkpt lat="50.73487" lon="2.62575">
        <ele>41.845277</ele>
        <time>2020-06-06T19:20:11.762Z</time>
      </trkpt>
      <trkpt lat="50.7359" lon="2.6248">
        <ele>42.283514</ele>
        <time>2020-06-06T19:20:32.248Z</time>
      </trkpt>
      <trkpt lat="50.73633" lon="2.62431">
        <ele>42.449773</ele>
        <time>2020-06-06T19:20:40.462Z</time>
      </trkpt>
      <trkpt lat="50.73752" lon="2.61744">
        <ele>38.819426</ele>
        <time>2020-06-06T19:21:37.435Z</time>
      </trkpt>
      <trkpt lat="50.73752" lon="2.61714">
        <ele>38.606255</ele>
        <time>2020-06-06T19:21:39.726Z</time>
      </trkpt>
      <trkpt lat="50.73741" lon="2.61642">
        <ele>38.090197</ele>
        <time>2020-06-06T19:21:45.220Z</time>
      </trkpt>
      <trkpt lat="50.73732" lon="2.6152">
        <ele>36.930645</ele>
        <time>2020-06-06T19:21:54.099Z</time>
      </trkpt>
      <trkpt lat="50.73715" lon="2.61381">
        <ele>35.4614</ele>
        <time>2020-06-06T19:22:04.224Z</time>
      </trkpt>
      <trkpt lat="50.73711" lon="2.61249">
        <ele>34.231334</ele>
        <time>2020-06-06T19:22:13.703Z</time>
      </trkpt>
      <trkpt lat="50.73685" lon="2.61088">
        <ele>32.814215</ele>
        <time>2020-06-06T19:22:26.034Z</time>
      </trkpt>
      <trkpt lat="50.73681" lon="2.61078">
        <ele>32.713089</ele>
        <time>2020-06-06T19:22:26.816Z</time>
      </trkpt>
      <trkpt lat="50.73683" lon="2.61063">
        <ele>32.581469</ele>
        <time>2020-06-06T19:22:28.113Z</time>
      </trkpt>
      <trkpt lat="50.73704" lon="2.60997">
        <ele>32.464383</ele>
        <time>2020-06-06T19:22:34.226Z</time>
      </trkpt>
      <trkpt lat="50.73684" lon="2.6072">
        <ele>32.73685</ele>
        <time>2020-06-06T19:23:01.775Z</time>
      </trkpt>
      <trkpt lat="50.73682" lon="2.60683">
        <ele>32.9713</ele>
        <time>2020-06-06T19:23:06.015Z</time>
      </trkpt>
      <trkpt lat="50.73692" lon="2.60675">
        <ele>33.083955</ele>
        <time>2020-06-06T19:23:09.015Z</time>
      </trkpt>
      <trkpt lat="50.73787" lon="2.60588">
        <ele>34.196996</ele>
        <time>2020-06-06T19:23:36.876Z</time>
      </trkpt>
      <trkpt lat="50.73806" lon="2.60579">
        <ele>34.547317</ele>
        <time>2020-06-06T19:23:42.082Z</time>
      </trkpt>
      <trkpt lat="50.73832" lon="2.60572">
        <ele>35.000407</ele>
        <time>2020-06-06T19:23:49.254Z</time>
      </trkpt>
      <trkpt lat="50.73904" lon="2.60599">
        <ele>36.287814</ele>
        <time>2020-06-06T19:24:09.157Z</time>
      </trkpt>
      <trkpt lat="50.73942" lon="2.60615">
        <ele>36.968913</ele>
        <time>2020-06-06T19:24:20.433Z</time>
      </trkpt>
      <trkpt lat="50.73982" lon="2.6063">
        <ele>37.675188</ele>
        <time>2020-06-06T19:24:32.064Z</time>
      </trkpt>
      <trkpt lat="50.74026" lon="2.6065">
        <ele>38.464494</ele>
        <time>2020-06-06T19:25:26.186Z</time>
      </trkpt>
      <trkpt lat="50.7404" lon="2.60653">
        <ele>38.706991</ele>
        <time>2020-06-06T19:25:42.755Z</time>
      </trkpt>
      <trkpt lat="50.74068" lon="2.6065">
        <ele>39.18859</ele>
        <time>2020-06-06T19:26:15.716Z</time>
      </trkpt>
      <trkpt lat="50.74086" lon="2.60639">
        <ele>39.540473</ele>
        <time>2020-06-06T19:26:40.065Z</time>
      </trkpt>
      <trkpt lat="50.74204" lon="2.60565">
        <ele>40.923302</ele>
        <time>2020-06-06T19:29:07.134Z</time>
      </trkpt>
      <trkpt lat="50.74229" lon="2.60552">
        <ele>41.110412</ele>
        <time>2020-06-06T19:29:37.969Z</time>
      </trkpt>
      <trkpt lat="50.7427" lon="2.60533">
        <ele>41.404891</ele>
        <time>2020-06-06T19:29:50.144Z</time>
      </trkpt>
      <trkpt lat="50.74378" lon="2.60494">
        <ele>41.148457</ele>
        <time>2020-06-06T19:30:20.510Z</time>
      </trkpt>
      <trkpt lat="50.74757" lon="2.60332">
        <ele>38.346491</ele>
        <time>2020-06-06T19:31:59.601Z</time>
      </trkpt>
      <trkpt lat="50.74761" lon="2.60305">
        <ele>38.184397</ele>
        <time>2020-06-06T19:32:01.672Z</time>
      </trkpt>
      <trkpt lat="50.74815" lon="2.5997">
        <ele>35.897318</ele>
        <time>2020-06-06T19:32:28.004Z</time>
      </trkpt>
      <trkpt lat="50.74818" lon="2.59934">
        <ele>35.694662</ele>
        <time>2020-06-06T19:32:30.910Z</time>
      </trkpt>
      <trkpt lat="50.74818" lon="2.5993">
        <ele>35.681522</ele>
        <time>2020-06-06T19:32:31.181Z</time>
      </trkpt>
      <trkpt lat="50.74819" lon="2.59923">
        <ele>35.655791</ele>
        <time>2020-06-06T19:32:31.748Z</time>
      </trkpt>
      <trkpt lat="50.74822" lon="2.59924">
        <ele>35.639957</ele>
        <time>2020-06-06T19:32:32.193Z</time>
      </trkpt>
      <trkpt lat="50.74934" lon="2.5985">
        <ele>34.929432</ele>
        <time>2020-06-06T19:32:54.290Z</time>
      </trkpt>
      <trkpt lat="50.75023" lon="2.59858">
        <ele>34.650038</ele>
        <time>2020-06-06T19:33:11.803Z</time>
      </trkpt>
      <trkpt lat="50.75076" lon="2.59847">
        <ele>34.59674</ele>
        <time>2020-06-06T19:33:22.590Z</time>
      </trkpt>
      <trkpt lat="50.75141" lon="2.59784">
        <ele>34.520345</ele>
        <time>2020-06-06T19:33:38.158Z</time>
      </trkpt>
      <trkpt lat="50.75253" lon="2.59647">
        <ele>33.888207</ele>
        <time>2020-06-06T19:34:05.104Z</time>
      </trkpt>
      <trkpt lat="50.75279" lon="2.59629">
        <ele>33.763379</ele>
        <time>2020-06-06T19:34:10.053Z</time>
      </trkpt>
      <trkpt lat="50.75307" lon="2.59621">
        <ele>33.517013</ele>
        <time>2020-06-06T19:34:15.478Z</time>
      </trkpt>
      <trkpt lat="50.75309" lon="2.5962">
        <ele>33.498072</ele>
        <time>2020-06-06T19:34:15.762Z</time>
      </trkpt>
      <trkpt lat="50.7531" lon="2.59619">
        <ele>33.483563</ele>
        <time>2020-06-06T19:34:15.878Z</time>
      </trkpt>
      <trkpt lat="50.7532" lon="2.59595">
        <ele>33.283722</ele>
        <time>2020-06-06T19:34:18.156Z</time>
      </trkpt>
      <trkpt lat="50.75326" lon="2.59564">
        <ele>33.058464</ele>
        <time>2020-06-06T19:34:20.555Z</time>
      </trkpt>
      <trkpt lat="50.7533" lon="2.59472">
        <ele>32.427321</ele>
        <time>2020-06-06T19:34:27.605Z</time>
      </trkpt>
      <trkpt lat="50.75328" lon="2.59401">
        <ele>31.935626</ele>
        <time>2020-06-06T19:34:32.956Z</time>
      </trkpt>
      <trkpt lat="50.75328" lon="2.59392">
        <ele>31.874492</ele>
        <time>2020-06-06T19:34:33.520Z</time>
      </trkpt>
      <trkpt lat="50.75393" lon="2.59351">
        <ele>31.651721</ele>
        <time>2020-06-06T19:34:45.960Z</time>
      </trkpt>
      <trkpt lat="50.75497" lon="2.59304">
        <ele>31.449537</ele>
        <time>2020-06-06T19:35:07.885Z</time>
      </trkpt>
      <trkpt lat="50.75539" lon="2.59294">
        <ele>31.870739</ele>
        <time>2020-06-06T19:35:17.951Z</time>
      </trkpt>
      <trkpt lat="50.75546" lon="2.5929">
        <ele>31.967946</ele>
        <time>2020-06-06T19:35:19.801Z</time>
      </trkpt>
      <trkpt lat="50.75548" lon="2.59298">
        <ele>32.042194</ele>
        <time>2020-06-06T19:35:20.793Z</time>
      </trkpt>
      <trkpt lat="50.75561" lon="2.59347">
        <ele>32.52877</ele>
        <time>2020-06-06T19:35:27.853Z</time>
      </trkpt>
      <trkpt lat="50.75576" lon="2.59404">
        <ele>33.087633</ele>
        <time>2020-06-06T19:35:36.015Z</time>
      </trkpt>
      <trkpt lat="50.75591" lon="2.59461">
        <ele>33.645777</ele>
        <time>2020-06-06T19:35:44.690Z</time>
      </trkpt>
      <trkpt lat="50.75599" lon="2.59495">
        <ele>33.973482</ele>
        <time>2020-06-06T19:35:49.978Z</time>
      </trkpt>
      <trkpt lat="50.75602" lon="2.59508">
        <ele>34.117878</ele>
        <time>2020-06-06T19:35:51.940Z</time>
      </trkpt>
      <trkpt lat="50.75613" lon="2.59552">
        <ele>34.666236</ele>
        <time>2020-06-06T19:35:58.836Z</time>
      </trkpt>
      <trkpt lat="50.75622" lon="2.59587">
        <ele>35.101668</ele>
        <time>2020-06-06T19:36:04.174Z</time>
      </trkpt>
      <trkpt lat="50.75629" lon="2.59616">
        <ele>35.452567</ele>
        <time>2020-06-06T19:36:08.454Z</time>
      </trkpt>
      <trkpt lat="50.75648" lon="2.59686">
        <ele>36.325805</ele>
        <time>2020-06-06T19:36:19.273Z</time>
      </trkpt>
      <trkpt lat="50.75654" lon="2.59716">
        <ele>36.683478</ele>
        <time>2020-06-06T19:36:23.596Z</time>
      </trkpt>
      <trkpt lat="50.75657" lon="2.59728">
        <ele>36.833597</ele>
        <time>2020-06-06T19:36:25.568Z</time>
      </trkpt>
      <trkpt lat="50.75666" lon="2.59765">
        <ele>37.28016</ele>
        <time>2020-06-06T19:36:31.007Z</time>
      </trkpt>
      <trkpt lat="50.75684" lon="2.59838">
        <ele>37.786418</ele>
        <time>2020-06-06T19:36:41.352Z</time>
      </trkpt>
      <trkpt lat="50.75705" lon="2.59922">
        <ele>38.370141</ele>
        <time>2020-06-06T19:36:52.133Z</time>
      </trkpt>
      <trkpt lat="50.75713" lon="2.59949">
        <ele>38.560132</ele>
        <time>2020-06-06T19:36:55.590Z</time>
      </trkpt>
      <trkpt lat="50.75715" lon="2.59956">
        <ele>38.608947</ele>
        <time>2020-06-06T19:36:56.378Z</time>
      </trkpt>
      <trkpt lat="50.75722" lon="2.59978">
        <ele>38.768613</ele>
        <time>2020-06-06T19:36:59.014Z</time>
      </trkpt>
      <trkpt lat="50.75733" lon="2.60009">
        <ele>38.994354</ele>
        <time>2020-06-06T19:37:02.824Z</time>
      </trkpt>
      <trkpt lat="50.75759" lon="2.60075">
        <ele>39.197182</ele>
        <time>2020-06-06T19:37:10.812Z</time>
      </trkpt>
      <trkpt lat="50.75763" lon="2.60087">
        <ele>39.219904</ele>
        <time>2020-06-06T19:37:12.307Z</time>
      </trkpt>
      <trkpt lat="50.75799" lon="2.60177">
        <ele>39.387971</ele>
        <time>2020-06-06T19:37:23.314Z</time>
      </trkpt>
      <trkpt lat="50.75805" lon="2.60204">
        <ele>39.434032</ele>
        <time>2020-06-06T19:37:26.081Z</time>
      </trkpt>
      <trkpt lat="50.75806" lon="2.60217">
        <ele>39.454268</ele>
        <time>2020-06-06T19:37:27.157Z</time>
      </trkpt>
      <trkpt lat="50.7581" lon="2.60273">
        <ele>39.54496</ele>
        <time>2020-06-06T19:37:32.595Z</time>
      </trkpt>
      <trkpt lat="50.75815" lon="2.60337">
        <ele>39.533236</ele>
        <time>2020-06-06T19:37:38.505Z</time>
      </trkpt>
      <trkpt lat="50.75814" lon="2.60347">
        <ele>39.530416</ele>
        <time>2020-06-06T19:37:39.649Z</time>
      </trkpt>
      <trkpt lat="50.75816" lon="2.60347">
        <ele>39.529563</ele>
        <time>2020-06-06T19:37:39.886Z</time>
      </trkpt>
      <trkpt lat="50.75838" lon="2.60372">
        <ele>39.516675</ele>
        <time>2020-06-06T19:37:43.708Z</time>
      </trkpt>
      <trkpt lat="50.75881" lon="2.60447">
        <ele>39.486446</ele>
        <time>2020-06-06T19:37:53.715Z</time>
      </trkpt>
      <trkpt lat="50.75883" lon="2.60451">
        <ele>39.484876</ele>
        <time>2020-06-06T19:37:54.218Z</time>
      </trkpt>
      <trkpt lat="50.75888" lon="2.60459">
        <ele>39.481576</ele>
        <time>2020-06-06T19:37:55.190Z</time>
      </trkpt>
      <trkpt lat="50.75889" lon="2.6046">
        <ele>39.481</ele>
        <time>2020-06-06T19:37:55.445Z</time>
      </trkpt>
      <trkpt lat="50.7589" lon="2.60461">
        <ele>39.480423</ele>
        <time>2020-06-06T19:37:55.662Z</time>
      </trkpt>
      <trkpt lat="50.75896" lon="2.60468">
        <ele>39.47687</ele>
        <time>2020-06-06T19:37:56.893Z</time>
      </trkpt>
      <trkpt lat="50.75898" lon="2.6047">
        <ele>39.475901</ele>
        <time>2020-06-06T19:37:57.164Z</time>
      </trkpt>
      <trkpt lat="50.75898" lon="2.60471">
        <ele>39.475413</ele>
        <time>2020-06-06T19:37:57.295Z</time>
      </trkpt>
      <trkpt lat="50.759" lon="2.60473">
        <ele>39.474522</ele>
        <time>2020-06-06T19:37:57.581Z</time>
      </trkpt>
      <trkpt lat="50.75901" lon="2.60474">
        <ele>39.474047</ele>
        <time>2020-06-06T19:37:57.713Z</time>
      </trkpt>
      <trkpt lat="50.75902" lon="2.60474">
        <ele>39.473585</ele>
        <time>2020-06-06T19:37:57.845Z</time>
      </trkpt>
      <trkpt lat="50.75911" lon="2.60468">
        <ele>39.468864</ele>
        <time>2020-06-06T19:37:59.258Z</time>
      </trkpt>
      <trkpt lat="50.75911" lon="2.60467">
        <ele>39.468383</ele>
        <time>2020-06-06T19:37:59.389Z</time>
      </trkpt>
      <trkpt lat="50.75912" lon="2.60465">
        <ele>39.467912</ele>
        <time>2020-06-06T19:37:59.534Z</time>
      </trkpt>
      <trkpt lat="50.75912" lon="2.60462">
        <ele>39.467009</ele>
        <time>2020-06-06T19:37:59.824Z</time>
      </trkpt>
      <trkpt lat="50.75912" lon="2.60461">
        <ele>39.46653</ele>
        <time>2020-06-06T19:37:59.976Z</time>
      </trkpt>
      <trkpt lat="50.75912" lon="2.60457">
        <ele>39.449831</ele>
        <time>2020-06-06T19:38:00.261Z</time>
      </trkpt>
      <trkpt lat="50.75918" lon="2.60404">
        <ele>39.128053</ele>
        <time>2020-06-06T19:38:04.879Z</time>
      </trkpt>
      <trkpt lat="50.7592" lon="2.60398">
        <ele>39.085035</ele>
        <time>2020-06-06T19:38:05.416Z</time>
      </trkpt>
      <trkpt lat="50.7592" lon="2.60398">
        <ele>39.085035</ele>
        <time>2020-06-06T19:38:05.457Z</time>
      </trkpt>
      <trkpt lat="50.75917" lon="2.60403">
        <ele>39.046888</ele>
        <time>2020-06-06T19:38:06.006Z</time>
      </trkpt>
      <trkpt lat="50.75902" lon="2.60448">
        <ele>38.735992</ele>
        <time>2020-06-06T19:38:09.959Z</time>
      </trkpt>
      <trkpt lat="50.75899" lon="2.60452">
        <ele>38.702585</ele>
        <time>2020-06-06T19:38:10.441Z</time>
      </trkpt>
      <trkpt lat="50.75899" lon="2.60453">
        <ele>38.695158</ele>
        <time>2020-06-06T19:38:10.534Z</time>
      </trkpt>
      <trkpt lat="50.75897" lon="2.60469">
        <ele>38.596428</ele>
        <time>2020-06-06T19:38:11.771Z</time>
      </trkpt>
      <trkpt lat="50.75898" lon="2.6047">
        <ele>38.587273</ele>
        <time>2020-06-06T19:38:11.886Z</time>
      </trkpt>
      <trkpt lat="50.75898" lon="2.60471">
        <ele>38.577503</ele>
        <time>2020-06-06T19:38:12.000Z</time>
      </trkpt>
      <trkpt lat="50.759" lon="2.60473">
        <ele>38.559684</ele>
        <time>2020-06-06T19:38:12.239Z</time>
      </trkpt>
      <trkpt lat="50.75901" lon="2.60474">
        <ele>38.550194</ele>
        <time>2020-06-06T19:38:12.353Z</time>
      </trkpt>
      <trkpt lat="50.75902" lon="2.60474">
        <ele>38.540952</ele>
        <time>2020-06-06T19:38:12.468Z</time>
      </trkpt>
      <trkpt lat="50.75911" lon="2.60468">
        <ele>38.446556</ele>
        <time>2020-06-06T19:38:13.672Z</time>
      </trkpt>
      <trkpt lat="50.75911" lon="2.60467">
        <ele>38.436933</ele>
        <time>2020-06-06T19:38:13.774Z</time>
      </trkpt>
      <trkpt lat="50.75912" lon="2.60465">
        <ele>38.427517</ele>
        <time>2020-06-06T19:38:13.882Z</time>
      </trkpt>
      <trkpt lat="50.75912" lon="2.60462">
        <ele>38.409461</ele>
        <time>2020-06-06T19:38:14.119Z</time>
      </trkpt>
      <trkpt lat="50.75912" lon="2.60461">
        <ele>38.399885</ele>
        <time>2020-06-06T19:38:14.295Z</time>
      </trkpt>
      <trkpt lat="50.75912" lon="2.60457">
        <ele>38.37714</ele>
        <time>2020-06-06T19:38:14.598Z</time>
      </trkpt>
      <trkpt lat="50.75918" lon="2.60404">
        <ele>38.055363</ele>
        <time>2020-06-06T19:38:18.674Z</time>
      </trkpt>
      <trkpt lat="50.7592" lon="2.60398">
        <ele>38.012344</ele>
        <time>2020-06-06T19:38:19.265Z</time>
      </trkpt>
      <trkpt lat="50.75922" lon="2.60394">
        <ele>37.983996</ele>
        <time>2020-06-06T19:38:19.575Z</time>
      </trkpt>
      <trkpt lat="50.75924" lon="2.60388">
        <ele>37.942419</ele>
        <time>2020-06-06T19:38:20.148Z</time>
      </trkpt>
      <trkpt lat="50.75947" lon="2.60339">
        <ele>37.446564</ele>
        <time>2020-06-06T19:38:24.714Z</time>
      </trkpt>
      <trkpt lat="50.75958" lon="2.60316">
        <ele>37.151803</ele>
        <time>2020-06-06T19:38:26.804Z</time>
      </trkpt>
      <trkpt lat="50.76007" lon="2.60187">
        <ele>35.595693</ele>
        <time>2020-06-06T19:38:37.479Z</time>
      </trkpt>
      <trkpt lat="50.76041" lon="2.60093">
        <ele>34.639341</ele>
        <time>2020-06-06T19:38:45.166Z</time>
      </trkpt>
      <trkpt lat="50.76054" lon="2.60056">
        <ele>34.399039</ele>
        <time>2020-06-06T19:38:48.348Z</time>
      </trkpt>
      <trkpt lat="50.76057" lon="2.60048">
        <ele>34.346974</ele>
        <time>2020-06-06T19:38:49.006Z</time>
      </trkpt>
      <trkpt lat="50.76089" lon="2.59958">
        <ele>33.759734</ele>
        <time>2020-06-06T19:38:57.137Z</time>
      </trkpt>
      <trkpt lat="50.76102" lon="2.59927">
        <ele>33.55215</ele>
        <time>2020-06-06T19:39:00.128Z</time>
      </trkpt>
      <trkpt lat="50.76127" lon="2.59858">
        <ele>33.264577</ele>
        <time>2020-06-06T19:39:07.394Z</time>
      </trkpt>
      <trkpt lat="50.76153" lon="2.59785">
        <ele>33.413983</ele>
        <time>2020-06-06T19:39:15.569Z</time>
      </trkpt>
      <trkpt lat="50.76162" lon="2.5976">
        <ele>33.465179</ele>
        <time>2020-06-06T19:39:18.658Z</time>
      </trkpt>
      <trkpt lat="50.76194" lon="2.59669">
        <ele>33.653206</ele>
        <time>2020-06-06T19:39:29.850Z</time>
      </trkpt>
      <trkpt lat="50.76201" lon="2.59675">
        <ele>33.674454</ele>
        <time>2020-06-06T19:39:31.101Z</time>
      </trkpt>
      <trkpt lat="50.76237" lon="2.59721">
        <ele>33.854822</ele>
        <time>2020-06-06T19:39:38.632Z</time>
      </trkpt>
      <trkpt lat="50.76249" lon="2.59738">
        <ele>33.93563</ele>
        <time>2020-06-06T19:39:41.463Z</time>
      </trkpt>
      <trkpt lat="50.76259" lon="2.59755">
        <ele>34.006341</ele>
        <time>2020-06-06T19:39:43.878Z</time>
      </trkpt>
      <trkpt lat="50.76273" lon="2.59772">
        <ele>34.091241</ele>
        <time>2020-06-06T19:39:46.740Z</time>
      </trkpt>
      <trkpt lat="50.76292" lon="2.59785">
        <ele>34.192321</ele>
        <time>2020-06-06T19:39:50.068Z</time>
      </trkpt>
      <trkpt lat="50.7633" lon="2.59783">
        <ele>34.375798</ele>
        <time>2020-06-06T19:39:56.155Z</time>
      </trkpt>
      <trkpt lat="50.7635" lon="2.59776">
        <ele>34.474375</ele>
        <time>2020-06-06T19:39:59.384Z</time>
      </trkpt>
      <trkpt lat="50.76447" lon="2.59739">
        <ele>35.717138</ele>
        <time>2020-06-06T19:40:17.628Z</time>
      </trkpt>
      <trkpt lat="50.76491" lon="2.59723">
        <ele>36.419755</ele>
        <time>2020-06-06T19:40:27.165Z</time>
      </trkpt>
      <trkpt lat="50.76746" lon="2.59638">
        <ele>42.606762</ele>
        <time>2020-06-06T19:41:31.851Z</time>
      </trkpt>
      <trkpt lat="50.769" lon="2.59601">
        <ele>47.878102</ele>
        <time>2020-06-06T19:42:16.253Z</time>
      </trkpt>
      <trkpt lat="50.76974" lon="2.59571">
        <ele>50.652766</ele>
        <time>2020-06-06T19:42:40.574Z</time>
      </trkpt>
      <trkpt lat="50.77011" lon="2.59566">
        <ele>52.017218</ele>
        <time>2020-06-06T19:42:51.742Z</time>
      </trkpt>
      <trkpt lat="50.77049" lon="2.59572">
        <ele>53.392015</ele>
        <time>2020-06-06T19:43:02.536Z</time>
      </trkpt>
      <trkpt lat="50.77058" lon="2.59575">
        <ele>53.73725</ele>
        <time>2020-06-06T19:43:05.997Z</time>
      </trkpt>
      <trkpt lat="50.77063" lon="2.59577">
        <ele>53.928938</ele>
        <time>2020-06-06T19:43:07.259Z</time>
      </trkpt>
      <trkpt lat="50.7707" lon="2.5958">
        <ele>54.181601</ele>
        <time>2020-06-06T19:43:08.882Z</time>
      </trkpt>
      <trkpt lat="50.77076" lon="2.59583">
        <ele>54.394547</ele>
        <time>2020-06-06T19:43:10.718Z</time>
      </trkpt>
      <trkpt lat="50.77136" lon="2.59616">
        <ele>55.849099</ele>
        <time>2020-06-06T19:43:27.313Z</time>
      </trkpt>
      <trkpt lat="50.77187" lon="2.59631">
        <ele>56.928595</ele>
        <time>2020-06-06T19:43:39.302Z</time>
      </trkpt>
      <trkpt lat="50.77193" lon="2.59632">
        <ele>57.073302</ele>
        <time>2020-06-06T19:43:41.471Z</time>
      </trkpt>
      <trkpt lat="50.77197" lon="2.59632">
        <ele>57.151737</ele>
        <time>2020-06-06T19:43:42.451Z</time>
      </trkpt>
      <trkpt lat="50.77212" lon="2.59632">
        <ele>57.462655</ele>
        <time>2020-06-06T19:43:45.291Z</time>
      </trkpt>
      <trkpt lat="50.77218" lon="2.59631">
        <ele>57.587693</ele>
        <time>2020-06-06T19:43:46.571Z</time>
      </trkpt>
      <trkpt lat="50.77233" lon="2.59629">
        <ele>57.916488</ele>
        <time>2020-06-06T19:43:49.887Z</time>
      </trkpt>
      <trkpt lat="50.77248" lon="2.59627">
        <ele>58.232744</ele>
        <time>2020-06-06T19:43:52.393Z</time>
      </trkpt>
      <trkpt lat="50.77253" lon="2.59627">
        <ele>58.336452</ele>
        <time>2020-06-06T19:43:53.118Z</time>
      </trkpt>
      <trkpt lat="50.77255" lon="2.59627">
        <ele>58.380946</ele>
        <time>2020-06-06T19:43:53.601Z</time>
      </trkpt>
      <trkpt lat="50.77363" lon="2.59626">
        <ele>59.165501</ele>
        <time>2020-06-06T19:44:12.669Z</time>
      </trkpt>
      <trkpt lat="50.77383" lon="2.59624">
        <ele>59.30851</ele>
        <time>2020-06-06T19:44:16.129Z</time>
      </trkpt>
      <trkpt lat="50.77386" lon="2.59623">
        <ele>59.33024</ele>
        <time>2020-06-06T19:44:16.607Z</time>
      </trkpt>
      <trkpt lat="50.77393" lon="2.59622">
        <ele>59.380741</ele>
        <time>2020-06-06T19:44:17.631Z</time>
      </trkpt>
      <trkpt lat="50.77469" lon="2.59612">
        <ele>60.029982</ele>
        <time>2020-06-06T19:44:30.585Z</time>
      </trkpt>
      <trkpt lat="50.77567" lon="2.59608">
        <ele>61.061247</ele>
        <time>2020-06-06T19:44:48.922Z</time>
      </trkpt>
      <trkpt lat="50.77611" lon="2.59602">
        <ele>61.525425</ele>
        <time>2020-06-06T19:44:57.342Z</time>
      </trkpt>
      <trkpt lat="50.77622" lon="2.596">
        <ele>61.680693</ele>
        <time>2020-06-06T19:45:00.162Z</time>
      </trkpt>
      <trkpt lat="50.77763" lon="2.59589">
        <ele>64.01148</ele>
        <time>2020-06-06T19:45:32.465Z</time>
      </trkpt>
      <trkpt lat="50.77768" lon="2.59589">
        <ele>64.084616</ele>
        <time>2020-06-06T19:45:33.854Z</time>
      </trkpt>
      <trkpt lat="50.7778" lon="2.59588">
        <ele>64.282818</ele>
        <time>2020-06-06T19:45:36.188Z</time>
      </trkpt>
      <trkpt lat="50.77789" lon="2.59587">
        <ele>64.435097</ele>
        <time>2020-06-06T19:45:37.329Z</time>
      </trkpt>
      <trkpt lat="50.77791" lon="2.59587">
        <ele>64.480278</ele>
        <time>2020-06-06T19:45:37.990Z</time>
      </trkpt>
      <trkpt lat="50.77794" lon="2.59586">
        <ele>64.524228</ele>
        <time>2020-06-06T19:45:38.853Z</time>
      </trkpt>
      <trkpt lat="50.77829" lon="2.59565">
        <ele>64.416985</ele>
        <time>2020-06-06T19:45:45.137Z</time>
      </trkpt>
      <trkpt lat="50.7786" lon="2.59545">
        <ele>64.284698</ele>
        <time>2020-06-06T19:45:50.359Z</time>
      </trkpt>
      <trkpt lat="50.77864" lon="2.59542">
        <ele>64.266763</ele>
        <time>2020-06-06T19:45:50.969Z</time>
      </trkpt>
      <trkpt lat="50.77881" lon="2.5953">
        <ele>64.193184</ele>
        <time>2020-06-06T19:45:54.046Z</time>
      </trkpt>
      <trkpt lat="50.77885" lon="2.59528">
        <ele>64.178821</ele>
        <time>2020-06-06T19:45:54.495Z</time>
      </trkpt>
      <trkpt lat="50.77888" lon="2.59526">
        <ele>64.16601</ele>
        <time>2020-06-06T19:45:54.801Z</time>
      </trkpt>
      <trkpt lat="50.7795" lon="2.59484">
        <ele>63.901424</ele>
        <time>2020-06-06T19:46:03.590Z</time>
      </trkpt>
      <trkpt lat="50.77955" lon="2.59478">
        <ele>63.874015</ele>
        <time>2020-06-06T19:46:04.268Z</time>
      </trkpt>
      <trkpt lat="50.77965" lon="2.59469">
        <ele>63.742215</ele>
        <time>2020-06-06T19:46:05.530Z</time>
      </trkpt>
      <trkpt lat="50.77987" lon="2.59447">
        <ele>63.145522</ele>
        <time>2020-06-06T19:46:08.323Z</time>
      </trkpt>
      <trkpt lat="50.77993" lon="2.59442">
        <ele>62.996276</ele>
        <time>2020-06-06T19:46:09.026Z</time>
      </trkpt>
      <trkpt lat="50.78001" lon="2.59436">
        <ele>62.788624</ele>
        <time>2020-06-06T19:46:10.017Z</time>
      </trkpt>
      <trkpt lat="50.78056" lon="2.59398">
        <ele>61.422176</ele>
        <time>2020-06-06T19:46:16.330Z</time>
      </trkpt>
      <trkpt lat="50.78107" lon="2.59375">
        <ele>60.222537</ele>
        <time>2020-06-06T19:46:21.928Z</time>
      </trkpt>
      <trkpt lat="50.78115" lon="2.59372">
        <ele>60.028501</ele>
        <time>2020-06-06T19:46:22.809Z</time>
      </trkpt>
      <trkpt lat="50.78123" lon="2.59371">
        <ele>59.844351</ele>
        <time>2020-06-06T19:46:23.653Z</time>
      </trkpt>
      <trkpt lat="50.78212" lon="2.59351">
        <ele>57.741059</ele>
        <time>2020-06-06T19:46:33.300Z</time>
      </trkpt>
      <trkpt lat="50.78225" lon="2.59347">
        <ele>57.418712</ele>
        <time>2020-06-06T19:46:34.690Z</time>
      </trkpt>
      <trkpt lat="50.78237" lon="2.59343">
        <ele>57.129896</ele>
        <time>2020-06-06T19:46:36.016Z</time>
      </trkpt>
      <trkpt lat="50.78282" lon="2.59329">
        <ele>56.045196</ele>
        <time>2020-06-06T19:46:40.927Z</time>
      </trkpt>
      <trkpt lat="50.78581" lon="2.59229">
        <ele>49.540517</ele>
        <time>2020-06-06T19:47:13.895Z</time>
      </trkpt>
      <trkpt lat="50.78603" lon="2.5922">
        <ele>49.107247</ele>
        <time>2020-06-06T19:47:16.423Z</time>
      </trkpt>
      <trkpt lat="50.7861" lon="2.59216">
        <ele>48.957525</ele>
        <time>2020-06-06T19:47:17.342Z</time>
      </trkpt>
      <trkpt lat="50.78651" lon="2.59198">
        <ele>48.167347</ele>
        <time>2020-06-06T19:47:22.173Z</time>
      </trkpt>
      <trkpt lat="50.78686" lon="2.59177">
        <ele>47.675979</ele>
        <time>2020-06-06T19:47:26.664Z</time>
      </trkpt>
      <trkpt lat="50.78727" lon="2.59138">
        <ele>47.107884</ele>
        <time>2020-06-06T19:47:32.249Z</time>
      </trkpt>
      <trkpt lat="50.78748" lon="2.59125">
        <ele>46.838577</ele>
        <time>2020-06-06T19:47:34.948Z</time>
      </trkpt>
      <trkpt lat="50.78824" lon="2.59091">
        <ele>45.869217</ele>
        <time>2020-06-06T19:47:44.796Z</time>
      </trkpt>
      <trkpt lat="50.78876" lon="2.59068">
        <ele>44.908217</ele>
        <time>2020-06-06T19:47:51.247Z</time>
      </trkpt>
      <trkpt lat="50.7915" lon="2.58951">
        <ele>39.270339</ele>
        <time>2020-06-06T19:48:22.146Z</time>
      </trkpt>
      <trkpt lat="50.79187" lon="2.58935">
        <ele>38.50069</ele>
        <time>2020-06-06T19:48:26.247Z</time>
      </trkpt>
      <trkpt lat="50.79207" lon="2.58926">
        <ele>38.13846</ele>
        <time>2020-06-06T19:48:28.347Z</time>
      </trkpt>
      <trkpt lat="50.79299" lon="2.5889">
        <ele>36.457799</ele>
        <time>2020-06-06T19:48:38.794Z</time>
      </trkpt>
      <trkpt lat="50.7934" lon="2.58881">
        <ele>35.732925</ele>
        <time>2020-06-06T19:48:43.670Z</time>
      </trkpt>
      <trkpt lat="50.79345" lon="2.5888">
        <ele>35.659165</ele>
        <time>2020-06-06T19:48:44.317Z</time>
      </trkpt>
      <trkpt lat="50.79395" lon="2.58868">
        <ele>35.694616</ele>
        <time>2020-06-06T19:48:51.437Z</time>
      </trkpt>
      <trkpt lat="50.79432" lon="2.5886">
        <ele>35.721037</ele>
        <time>2020-06-06T19:48:57.171Z</time>
      </trkpt>
      <trkpt lat="50.79456" lon="2.58855">
        <ele>35.738496</ele>
        <time>2020-06-06T19:49:01.127Z</time>
      </trkpt>
      <trkpt lat="50.79528" lon="2.58827">
        <ele>35.793741</ele>
        <time>2020-06-06T19:49:13.908Z</time>
      </trkpt>
      <trkpt lat="50.79559" lon="2.58814">
        <ele>35.82877</ele>
        <time>2020-06-06T19:49:19.469Z</time>
      </trkpt>
      <trkpt lat="50.79598" lon="2.58797">
        <ele>35.873153</ele>
        <time>2020-06-06T19:49:26.087Z</time>
      </trkpt>
      <trkpt lat="50.79775" lon="2.5872">
        <ele>35.579094</ele>
        <time>2020-06-06T19:49:51.635Z</time>
      </trkpt>
      <trkpt lat="50.79942" lon="2.5868">
        <ele>34.370257</ele>
        <time>2020-06-06T19:50:13.314Z</time>
      </trkpt>
      <trkpt lat="50.80176" lon="2.58569">
        <ele>31.483457</ele>
        <time>2020-06-06T19:50:42.385Z</time>
      </trkpt>
      <trkpt lat="50.80187" lon="2.58562">
        <ele>31.324285</ele>
        <time>2020-06-06T19:50:43.834Z</time>
      </trkpt>
      <trkpt lat="50.80202" lon="2.58552">
        <ele>31.107575</ele>
        <time>2020-06-06T19:50:45.636Z</time>
      </trkpt>
      <trkpt lat="50.80218" lon="2.58545">
        <ele>30.880874</ele>
        <time>2020-06-06T19:50:47.569Z</time>
      </trkpt>
      <trkpt lat="50.80228" lon="2.5854">
        <ele>30.717441</ele>
        <time>2020-06-06T19:50:48.793Z</time>
      </trkpt>
      <trkpt lat="50.80235" lon="2.58537">
        <ele>30.586167</ele>
        <time>2020-06-06T19:50:49.626Z</time>
      </trkpt>
      <trkpt lat="50.8027" lon="2.58532">
        <ele>30.023625</ele>
        <time>2020-06-06T19:50:53.574Z</time>
      </trkpt>
      <trkpt lat="50.80274" lon="2.58534">
        <ele>29.957923</ele>
        <time>2020-06-06T19:50:53.977Z</time>
      </trkpt>
      <trkpt lat="50.80275" lon="2.58537">
        <ele>29.91692</ele>
        <time>2020-06-06T19:50:54.248Z</time>
      </trkpt>
      <trkpt lat="50.80284" lon="2.58543">
        <ele>29.756917</ele>
        <time>2020-06-06T19:50:55.415Z</time>
      </trkpt>
      <trkpt lat="50.80297" lon="2.58541">
        <ele>29.556711</ele>
        <time>2020-06-06T19:50:56.919Z</time>
      </trkpt>
      <trkpt lat="50.80299" lon="2.58539">
        <ele>29.516283</ele>
        <time>2020-06-06T19:50:57.173Z</time>
      </trkpt>
      <trkpt lat="50.80301" lon="2.58537">
        <ele>29.475173</ele>
        <time>2020-06-06T19:50:57.434Z</time>
      </trkpt>
      <trkpt lat="50.80307" lon="2.58525">
        <ele>29.315279</ele>
        <time>2020-06-06T19:50:58.482Z</time>
      </trkpt>
      <trkpt lat="50.80308" lon="2.58522">
        <ele>29.275341</ele>
        <time>2020-06-06T19:50:58.769Z</time>
      </trkpt>
      <trkpt lat="50.80309" lon="2.58518">
        <ele>29.233518</ele>
        <time>2020-06-06T19:50:59.059Z</time>
      </trkpt>
      <trkpt lat="50.80305" lon="2.58491">
        <ele>28.949816</ele>
        <time>2020-06-06T19:51:01.159Z</time>
      </trkpt>
      <trkpt lat="50.80303" lon="2.58488">
        <ele>28.909321</ele>
        <time>2020-06-06T19:51:01.416Z</time>
      </trkpt>
      <trkpt lat="50.80301" lon="2.58485">
        <ele>28.867636</ele>
        <time>2020-06-06T19:51:01.699Z</time>
      </trkpt>
      <trkpt lat="50.80299" lon="2.58478">
        <ele>28.790938</ele>
        <time>2020-06-06T19:51:02.173Z</time>
      </trkpt>
      <trkpt lat="50.80299" lon="2.58414">
        <ele>28.122393</ele>
        <time>2020-06-06T19:51:06.791Z</time>
      </trkpt>
      <trkpt lat="50.80299" lon="2.58394">
        <ele>27.925802</ele>
        <time>2020-06-06T19:51:08.306Z</time>
      </trkpt>
      <trkpt lat="50.80323" lon="2.58133">
        <ele>25.460361</ele>
        <time>2020-06-06T19:51:27.696Z</time>
      </trkpt>
      <trkpt lat="50.80325" lon="2.58114">
        <ele>25.286692</ele>
        <time>2020-06-06T19:51:29.065Z</time>
      </trkpt>
      <trkpt lat="50.80341" lon="2.57946">
        <ele>23.897269</ele>
        <time>2020-06-06T19:51:41.376Z</time>
      </trkpt>
      <trkpt lat="50.80344" lon="2.57892">
        <ele>23.459538</ele>
        <time>2020-06-06T19:51:45.500Z</time>
      </trkpt>
      <trkpt lat="50.80345" lon="2.57868">
        <ele>23.258451</ele>
        <time>2020-06-06T19:51:47.264Z</time>
      </trkpt>
      <trkpt lat="50.80345" lon="2.5781">
        <ele>23.051188</ele>
        <time>2020-06-06T19:51:51.943Z</time>
      </trkpt>
      <trkpt lat="50.80342" lon="2.57753">
        <ele>23.171676</ele>
        <time>2020-06-06T19:51:57.183Z</time>
      </trkpt>
      <trkpt lat="50.8034" lon="2.57729">
        <ele>23.222402</ele>
        <time>2020-06-06T19:51:59.958Z</time>
      </trkpt>
      <trkpt lat="50.80337" lon="2.57708">
        <ele>23.266479</ele>
        <time>2020-06-06T19:52:01.914Z</time>
      </trkpt>
      <trkpt lat="50.80328" lon="2.57662">
        <ele>23.368139</ele>
        <time>2020-06-06T19:52:07.226Z</time>
      </trkpt>
      <trkpt lat="50.80323" lon="2.57641">
        <ele>23.413463</ele>
        <time>2020-06-06T19:52:09.128Z</time>
      </trkpt>
      <trkpt lat="50.80316" lon="2.57613">
        <ele>23.477988</ele>
        <time>2020-06-06T19:52:13.444Z</time>
      </trkpt>
      <trkpt lat="50.80306" lon="2.57582">
        <ele>23.551054</ele>
        <time>2020-06-06T19:52:17.518Z</time>
      </trkpt>
      <trkpt lat="50.80304" lon="2.57575">
        <ele>23.568636</ele>
        <time>2020-06-06T19:52:18.679Z</time>
      </trkpt>
      <trkpt lat="50.80299" lon="2.57562">
        <ele>23.609002</ele>
        <time>2020-06-06T19:52:20.827Z</time>
      </trkpt>
      <trkpt lat="50.80244" lon="2.57456">
        <ele>24.286928</ele>
        <time>2020-06-06T19:52:36.484Z</time>
      </trkpt>
      <trkpt lat="50.80227" lon="2.57431">
        <ele>24.466776</ele>
        <time>2020-06-06T19:52:41.122Z</time>
      </trkpt>
      <trkpt lat="50.80197" lon="2.57379">
        <ele>24.813007</ele>
        <time>2020-06-06T19:52:48.873Z</time>
      </trkpt>
      <trkpt lat="50.80197" lon="2.57379">
        <ele>24.813007</ele>
        <time>2020-06-06T19:52:48.904Z</time>
      </trkpt>
      <trkpt lat="50.80194" lon="2.57375">
        <ele>24.844387</ele>
        <time>2020-06-06T19:52:49.359Z</time>
      </trkpt>
      <trkpt lat="50.80013" lon="2.57079">
        <ele>25.885923</ele>
        <time>2020-06-06T19:53:30.999Z</time>
      </trkpt>
      <trkpt lat="50.79858" lon="2.56854">
        <ele>27.446476</ele>
        <time>2020-06-06T19:54:08.151Z</time>
      </trkpt>
      <trkpt lat="50.79838" lon="2.56825">
        <ele>27.72012</ele>
        <time>2020-06-06T19:54:13.595Z</time>
      </trkpt>
      <trkpt lat="50.79819" lon="2.56798">
        <ele>27.968165</ele>
        <time>2020-06-06T19:54:18.692Z</time>
      </trkpt>
      <trkpt lat="50.79769" lon="2.56726">
        <ele>28.716968</ele>
        <time>2020-06-06T19:54:31.965Z</time>
      </trkpt>
      <trkpt lat="50.79743" lon="2.56689">
        <ele>29.157199</ele>
        <time>2020-06-06T19:54:39.123Z</time>
      </trkpt>
      <trkpt lat="50.79722" lon="2.56657">
        <ele>29.517645</ele>
        <time>2020-06-06T19:54:44.895Z</time>
      </trkpt>
      <trkpt lat="50.79654" lon="2.56581">
        <ele>30.566009</ele>
        <time>2020-06-06T19:55:01.643Z</time>
      </trkpt>
      <trkpt lat="50.79642" lon="2.56572">
        <ele>30.696892</ele>
        <time>2020-06-06T19:55:04.168Z</time>
      </trkpt>
      <trkpt lat="50.79641" lon="2.56568">
        <ele>30.725346</ele>
        <time>2020-06-06T19:55:04.753Z</time>
      </trkpt>
      <trkpt lat="50.79638" lon="2.56552">
        <ele>30.825703</ele>
        <time>2020-06-06T19:55:06.588Z</time>
      </trkpt>
      <trkpt lat="50.79637" lon="2.56546">
        <ele>30.864105</ele>
        <time>2020-06-06T19:55:07.614Z</time>
      </trkpt>
      <trkpt lat="50.79637" lon="2.56538">
        <ele>30.915103</ele>
        <time>2020-06-06T19:55:08.544Z</time>
      </trkpt>
      <trkpt lat="50.79635" lon="2.56523">
        <ele>31.008808</ele>
        <time>2020-06-06T19:55:10.324Z</time>
      </trkpt>
      <trkpt lat="50.79633" lon="2.56502">
        <ele>31.141221</ele>
        <time>2020-06-06T19:55:12.762Z</time>
      </trkpt>
      <trkpt lat="50.79632" lon="2.56495">
        <ele>31.187299</ele>
        <time>2020-06-06T19:55:13.588Z</time>
      </trkpt>
      <trkpt lat="50.79631" lon="2.56491">
        <ele>31.213117</ele>
        <time>2020-06-06T19:55:14.328Z</time>
      </trkpt>
      <trkpt lat="50.79599" lon="2.56353">
        <ele>32.125317</ele>
        <time>2020-06-06T19:55:31.691Z</time>
      </trkpt>
      <trkpt lat="50.79604" lon="2.56125">
        <ele>32.735893</ele>
        <time>2020-06-06T19:55:56.349Z</time>
      </trkpt>
      <trkpt lat="50.79628" lon="2.55947">
        <ele>32.708997</ele>
        <time>2020-06-06T19:56:12.904Z</time>
      </trkpt>
      <trkpt lat="50.79676" lon="2.55689">
        <ele>32.039122</ele>
        <time>2020-06-06T19:56:35.336Z</time>
      </trkpt>
      <trkpt lat="50.79684" lon="2.55656">
        <ele>31.936874</ele>
        <time>2020-06-06T19:56:38.327Z</time>
      </trkpt>
      <trkpt lat="50.79688" lon="2.5563">
        <ele>31.861285</ele>
        <time>2020-06-06T19:56:40.530Z</time>
      </trkpt>
      <trkpt lat="50.79695" lon="2.55558">
        <ele>31.655105</ele>
        <time>2020-06-06T19:56:46.612Z</time>
      </trkpt>
      <trkpt lat="50.79684" lon="2.55284">
        <ele>31.170724</ele>
        <time>2020-06-06T19:57:10.646Z</time>
      </trkpt>
      <trkpt lat="50.79646" lon="2.55078">
        <ele>31.175653</ele>
        <time>2020-06-06T19:57:31.122Z</time>
      </trkpt>
      <trkpt lat="50.79636" lon="2.55024">
        <ele>31.228053</ele>
        <time>2020-06-06T19:57:36.710Z</time>
      </trkpt>
      <trkpt lat="50.79631" lon="2.55002">
        <ele>31.250142</ele>
        <time>2020-06-06T19:57:39.131Z</time>
      </trkpt>
      <trkpt lat="50.79559" lon="2.54623">
        <ele>31.705202</ele>
        <time>2020-06-06T19:58:18.433Z</time>
      </trkpt>
      <trkpt lat="50.79562" lon="2.54575">
        <ele>31.69869</ele>
        <time>2020-06-06T19:58:23.050Z</time>
      </trkpt>
      <trkpt lat="50.79581" lon="2.54472">
        <ele>31.684124</ele>
        <time>2020-06-06T19:58:32.732Z</time>
      </trkpt>
      <trkpt lat="50.7958" lon="2.54445">
        <ele>31.680542</ele>
        <time>2020-06-06T19:58:35.279Z</time>
      </trkpt>
      <trkpt lat="50.79562" lon="2.54346">
        <ele>31.735901</ele>
        <time>2020-06-06T19:58:44.658Z</time>
      </trkpt>
      <trkpt lat="50.79561" lon="2.54333">
        <ele>31.758654</ele>
        <time>2020-06-06T19:58:46.206Z</time>
      </trkpt>
      <trkpt lat="50.79568" lon="2.54327">
        <ele>31.78178</ele>
        <time>2020-06-06T19:58:47.341Z</time>
      </trkpt>
      <trkpt lat="50.79597" lon="2.54296">
        <ele>31.875546</ele>
        <time>2020-06-06T19:58:52.745Z</time>
      </trkpt>
      <trkpt lat="50.79614" lon="2.54279">
        <ele>31.930626</ele>
        <time>2020-06-06T19:58:55.941Z</time>
      </trkpt>
      <trkpt lat="50.79622" lon="2.54271">
        <ele>31.956665</ele>
        <time>2020-06-06T19:58:57.747Z</time>
      </trkpt>
      <trkpt lat="50.79656" lon="2.54233">
        <ele>32.07049</ele>
        <time>2020-06-06T19:59:04.416Z</time>
      </trkpt>
      <trkpt lat="50.7968" lon="2.54207">
        <ele>32.150537</ele>
        <time>2020-06-06T19:59:09.416Z</time>
      </trkpt>
      <trkpt lat="50.79692" lon="2.54193">
        <ele>32.233743</ele>
        <time>2020-06-06T19:59:11.894Z</time>
      </trkpt>
      <trkpt lat="50.79702" lon="2.54181">
        <ele>32.315283</ele>
        <time>2020-06-06T19:59:13.783Z</time>
      </trkpt>
      <trkpt lat="50.7972" lon="2.5416">
        <ele>32.462454</ele>
        <time>2020-06-06T19:59:17.733Z</time>
      </trkpt>
      <trkpt lat="50.7972" lon="2.54159">
        <ele>32.46609</ele>
        <time>2020-06-06T19:59:18.004Z</time>
      </trkpt>
      <trkpt lat="50.79767" lon="2.54103">
        <ele>32.852912</ele>
        <time>2020-06-06T19:59:28.446Z</time>
      </trkpt>
      <trkpt lat="50.79857" lon="2.54044">
        <ele>33.377082</ele>
        <time>2020-06-06T19:59:45.916Z</time>
      </trkpt>
      <trkpt lat="50.79861" lon="2.54043">
        <ele>33.382575</ele>
        <time>2020-06-06T19:59:46.634Z</time>
      </trkpt>
      <trkpt lat="50.79867" lon="2.54042">
        <ele>33.39102</ele>
        <time>2020-06-06T19:59:47.828Z</time>
      </trkpt>
      <trkpt lat="50.79867" lon="2.54035">
        <ele>33.39715</ele>
        <time>2020-06-06T19:59:48.720Z</time>
      </trkpt>
      <trkpt lat="50.79869" lon="2.54006">
        <ele>33.420911</ele>
        <time>2020-06-06T19:59:51.213Z</time>
      </trkpt>
      <trkpt lat="50.7987" lon="2.53996">
        <ele>33.42915</ele>
        <time>2020-06-06T19:59:52.277Z</time>
      </trkpt>
      <trkpt lat="50.79869" lon="2.53995">
        <ele>33.430235</ele>
        <time>2020-06-06T19:59:52.565Z</time>
      </trkpt>
      <trkpt lat="50.79862" lon="2.53974">
        <ele>33.449374</ele>
        <time>2020-06-06T19:59:54.813Z</time>
      </trkpt>
      <trkpt lat="50.79861" lon="2.53945">
        <ele>33.473191</ele>
        <time>2020-06-06T19:59:57.447Z</time>
      </trkpt>
      <trkpt lat="50.79861" lon="2.53928">
        <ele>33.487413</ele>
        <time>2020-06-06T19:59:59.431Z</time>
      </trkpt>
      <trkpt lat="50.79863" lon="2.53861">
        <ele>33.54204</ele>
        <time>2020-06-06T20:00:05.645Z</time>
      </trkpt>
      <trkpt lat="50.7989" lon="2.53852">
        <ele>33.576924</ele>
        <time>2020-06-06T20:00:09.464Z</time>
      </trkpt>
      <trkpt lat="50.79895" lon="2.53846">
        <ele>33.562838</ele>
        <time>2020-06-06T20:00:10.573Z</time>
      </trkpt>
      <trkpt lat="50.79897" lon="2.53844">
        <ele>33.548647</ele>
        <time>2020-06-06T20:00:10.797Z</time>
      </trkpt>
      <trkpt lat="50.79894" lon="2.5384">
        <ele>33.524651</ele>
        <time>2020-06-06T20:00:11.223Z</time>
      </trkpt>
      <trkpt lat="50.79889" lon="2.53818">
        <ele>33.423482</ele>
        <time>2020-06-06T20:00:13.131Z</time>
      </trkpt>
      <trkpt lat="50.7987" lon="2.53666">
        <ele>32.758412</ele>
        <time>2020-06-06T20:00:25.295Z</time>
      </trkpt>
      <trkpt lat="50.79871" lon="2.53662">
        <ele>32.74018</ele>
        <time>2020-06-06T20:00:25.621Z</time>
      </trkpt>
      <trkpt lat="50.79873" lon="2.53657">
        <ele>32.713304</ele>
        <time>2020-06-06T20:00:26.093Z</time>
      </trkpt>
      <trkpt lat="50.79894" lon="2.53631">
        <ele>32.532919</ele>
        <time>2020-06-06T20:00:29.358Z</time>
      </trkpt>
      <trkpt lat="50.79924" lon="2.53599">
        <ele>32.401481</ele>
        <time>2020-06-06T20:00:34.221Z</time>
      </trkpt>
      <trkpt lat="50.79937" lon="2.53588">
        <ele>32.458217</ele>
        <time>2020-06-06T20:00:36.289Z</time>
      </trkpt>
      <trkpt lat="50.79942" lon="2.53585">
        <ele>32.477932</ele>
        <time>2020-06-06T20:00:36.871Z</time>
      </trkpt>
      <trkpt lat="50.79946" lon="2.53583">
        <ele>32.495275</ele>
        <time>2020-06-06T20:00:37.559Z</time>
      </trkpt>
      <trkpt lat="50.80204" lon="2.53504">
        <ele>34.200243</ele>
        <time>2020-06-06T20:01:24.055Z</time>
      </trkpt>
      <trkpt lat="50.80356" lon="2.53372">
        <ele>36.352359</ele>
        <time>2020-06-06T20:01:59.873Z</time>
      </trkpt>
      <trkpt lat="50.80412" lon="2.53337">
        <ele>37.171206</ele>
        <time>2020-06-06T20:02:11.949Z</time>
      </trkpt>
      <trkpt lat="50.80473" lon="2.53309">
        <ele>37.930399</ele>
        <time>2020-06-06T20:02:24.205Z</time>
      </trkpt>
      <trkpt lat="50.80492" lon="2.53302">
        <ele>38.149977</ele>
        <time>2020-06-06T20:02:27.952Z</time>
      </trkpt>
      <trkpt lat="50.80503" lon="2.53297">
        <ele>38.280611</ele>
        <time>2020-06-06T20:02:30.143Z</time>
      </trkpt>
      <trkpt lat="50.8061" lon="2.53255">
        <ele>39.600182</ele>
        <time>2020-06-06T20:02:51.592Z</time>
      </trkpt>
      <trkpt lat="50.80613" lon="2.53254">
        <ele>39.644216</ele>
        <time>2020-06-06T20:02:52.065Z</time>
      </trkpt>
      <trkpt lat="50.80607" lon="2.53161">
        <ele>40.480298</ele>
        <time>2020-06-06T20:03:03.826Z</time>
      </trkpt>
      <trkpt lat="50.8059" lon="2.5294">
        <ele>42.72962</ele>
        <time>2020-06-06T20:03:33.478Z</time>
      </trkpt>
      <trkpt lat="50.80573" lon="2.52807">
        <ele>44.502129</ele>
        <time>2020-06-06T20:03:53.516Z</time>
      </trkpt>
      <trkpt lat="50.80566" lon="2.52743">
        <ele>45.331501</ele>
        <time>2020-06-06T20:04:03.157Z</time>
      </trkpt>
      <trkpt lat="50.80564" lon="2.52715">
        <ele>45.716806</ele>
        <time>2020-06-06T20:04:07.692Z</time>
      </trkpt>
      <trkpt lat="50.80538" lon="2.52327">
        <ele>52.198514</ele>
        <time>2020-06-06T20:05:08.907Z</time>
      </trkpt>
      <trkpt lat="50.80491" lon="2.5206">
        <ele>57.982434</ele>
        <time>2020-06-06T20:05:58.651Z</time>
      </trkpt>
      <trkpt lat="50.8048" lon="2.52007">
        <ele>59.329307</ele>
        <time>2020-06-06T20:06:09.552Z</time>
      </trkpt>
      <trkpt lat="50.80475" lon="2.5199">
        <ele>59.768584</ele>
        <time>2020-06-06T20:06:12.986Z</time>
      </trkpt>
      <trkpt lat="50.80467" lon="2.51961">
        <ele>60.532709</ele>
        <time>2020-06-06T20:06:19.458Z</time>
      </trkpt>
      <trkpt lat="50.80424" lon="2.51835">
        <ele>64.045342</ele>
        <time>2020-06-06T20:06:47.836Z</time>
      </trkpt>
      <trkpt lat="50.80372" lon="2.51633">
        <ele>69.445936</ele>
        <time>2020-06-06T20:07:30.424Z</time>
      </trkpt>
      <trkpt lat="50.80365" lon="2.51609">
        <ele>69.82624</ele>
        <time>2020-06-06T20:07:35.276Z</time>
      </trkpt>
      <trkpt lat="50.80357" lon="2.51576">
        <ele>70.356186</ele>
        <time>2020-06-06T20:07:41.152Z</time>
      </trkpt>
      <trkpt lat="50.80349" lon="2.51548">
        <ele>70.799818</ele>
        <time>2020-06-06T20:07:46.320Z</time>
      </trkpt>
      <trkpt lat="50.80356" lon="2.51544">
        <ele>70.954669</ele>
        <time>2020-06-06T20:07:48.036Z</time>
      </trkpt>
      <trkpt lat="50.80374" lon="2.5154">
        <ele>71.394084</ele>
        <time>2020-06-06T20:07:52.736Z</time>
      </trkpt>
      <trkpt lat="50.80431" lon="2.51548">
        <ele>72.717823</ele>
        <time>2020-06-06T20:08:06.026Z</time>
      </trkpt>
      <trkpt lat="50.80463" lon="2.51531">
        <ele>73.505575</ele>
        <time>2020-06-06T20:08:13.419Z</time>
      </trkpt>
      <trkpt lat="50.80519" lon="2.51446">
        <ele>73.592032</ele>
        <time>2020-06-06T20:08:25.006Z</time>
      </trkpt>
      <trkpt lat="50.80553" lon="2.51363">
        <ele>73.597135</ele>
        <time>2020-06-06T20:08:33.182Z</time>
      </trkpt>
      <trkpt lat="50.80565" lon="2.51349">
        <ele>73.598381</ele>
        <time>2020-06-06T20:08:35.133Z</time>
      </trkpt>
      <trkpt lat="50.80588" lon="2.51348">
        <ele>73.600291</ele>
        <time>2020-06-06T20:08:38.807Z</time>
      </trkpt>
      <trkpt lat="50.80601" lon="2.51346">
        <ele>73.656111</ele>
        <time>2020-06-06T20:08:40.479Z</time>
      </trkpt>
      <trkpt lat="50.80613" lon="2.51341">
        <ele>73.735757</ele>
        <time>2020-06-06T20:08:42.155Z</time>
      </trkpt>
      <trkpt lat="50.80669" lon="2.51309">
        <ele>74.119658</ele>
        <time>2020-06-06T20:08:51.851Z</time>
      </trkpt>
      <trkpt lat="50.80676" lon="2.51305">
        <ele>74.167025</ele>
        <time>2020-06-06T20:08:52.760Z</time>
      </trkpt>
      <trkpt lat="50.8069" lon="2.51294">
        <ele>74.272977</ele>
        <time>2020-06-06T20:08:56.383Z</time>
      </trkpt>
      <trkpt lat="50.80703" lon="2.51278">
        <ele>74.378005</ele>
        <time>2020-06-06T20:08:58.668Z</time>
      </trkpt>
      <trkpt lat="50.80716" lon="2.51239">
        <ele>74.560171</ele>
        <time>2020-06-06T20:09:04.188Z</time>
      </trkpt>
      <trkpt lat="50.8074" lon="2.51103">
        <ele>75.431751</ele>
        <time>2020-06-06T20:09:22.911Z</time>
      </trkpt>
      <trkpt lat="50.80756" lon="2.51074">
        <ele>75.711167</ele>
        <time>2020-06-06T20:09:28.311Z</time>
      </trkpt>
      <trkpt lat="50.80794" lon="2.51049">
        <ele>76.190928</ele>
        <time>2020-06-06T20:09:36.351Z</time>
      </trkpt>
      <trkpt lat="50.80808" lon="2.51039">
        <ele>76.36755</ele>
        <time>2020-06-06T20:09:39.230Z</time>
      </trkpt>
      <trkpt lat="50.80816" lon="2.51033">
        <ele>76.466542</ele>
        <time>2020-06-06T20:09:40.622Z</time>
      </trkpt>
      <trkpt lat="50.80819" lon="2.5103">
        <ele>76.506959</ele>
        <time>2020-06-06T20:09:41.199Z</time>
      </trkpt>
      <trkpt lat="50.80873" lon="2.50988">
        <ele>76.995795</ele>
        <time>2020-06-06T20:09:51.718Z</time>
      </trkpt>
      <trkpt lat="50.80927" lon="2.50924">
        <ele>77.307782</ele>
        <time>2020-06-06T20:10:02.970Z</time>
      </trkpt>
      <trkpt lat="50.80942" lon="2.50902">
        <ele>77.400704</ele>
        <time>2020-06-06T20:10:06.032Z</time>
      </trkpt>
      <trkpt lat="50.80969" lon="2.50859">
        <ele>77.575894</ele>
        <time>2020-06-06T20:10:12.189Z</time>
      </trkpt>
      <trkpt lat="50.81013" lon="2.508">
        <ele>77.653386</ele>
        <time>2020-06-06T20:10:22.181Z</time>
      </trkpt>
      <trkpt lat="50.81071" lon="2.50735">
        <ele>77.588281</ele>
        <time>2020-06-06T20:10:33.717Z</time>
      </trkpt>
      <trkpt lat="50.81147" lon="2.50681">
        <ele>77.223211</ele>
        <time>2020-06-06T20:10:45.003Z</time>
      </trkpt>
      <trkpt lat="50.81164" lon="2.50669">
        <ele>76.616919</ele>
        <time>2020-06-06T20:10:47.384Z</time>
      </trkpt>
      <trkpt lat="50.81179" lon="2.50659">
        <ele>76.088386</ele>
        <time>2020-06-06T20:10:49.092Z</time>
      </trkpt>
      <trkpt lat="50.81216" lon="2.50622">
        <ele>74.684651</ele>
        <time>2020-06-06T20:10:53.557Z</time>
      </trkpt>
      <trkpt lat="50.81249" lon="2.50558">
        <ele>72.987518</ele>
        <time>2020-06-06T20:10:58.749Z</time>
      </trkpt>
      <trkpt lat="50.81268" lon="2.50545">
        <ele>72.331165</ele>
        <time>2020-06-06T20:11:00.701Z</time>
      </trkpt>
      <trkpt lat="50.81294" lon="2.50539">
        <ele>71.325262</ele>
        <time>2020-06-06T20:11:03.114Z</time>
      </trkpt>
      <trkpt lat="50.81311" lon="2.50534">
        <ele>70.387424</ele>
        <time>2020-06-06T20:11:04.733Z</time>
      </trkpt>
      <trkpt lat="50.81368" lon="2.50513">
        <ele>67.176689</ele>
        <time>2020-06-06T20:11:10.200Z</time>
      </trkpt>
      <trkpt lat="50.81411" lon="2.50474">
        <ele>64.487625</ele>
        <time>2020-06-06T20:11:14.796Z</time>
      </trkpt>
      <trkpt lat="50.81411" lon="2.50474">
        <ele>64.482185</ele>
        <time>2020-06-06T20:11:14.826Z</time>
      </trkpt>
      <trkpt lat="50.81549" lon="2.50392">
        <ele>57.589443</ele>
        <time>2020-06-06T20:11:28.789Z</time>
      </trkpt>
      <trkpt lat="50.81615" lon="2.50338">
        <ele>54.383951</ele>
        <time>2020-06-06T20:11:36.197Z</time>
      </trkpt>
      <trkpt lat="50.81644" lon="2.50316">
        <ele>53.303637</ele>
        <time>2020-06-06T20:11:39.405Z</time>
      </trkpt>
      <trkpt lat="50.81661" lon="2.50304">
        <ele>52.709899</ele>
        <time>2020-06-06T20:11:41.304Z</time>
      </trkpt>
      <trkpt lat="50.81697" lon="2.50286">
        <ele>51.51044</ele>
        <time>2020-06-06T20:11:45.134Z</time>
      </trkpt>
      <trkpt lat="50.81706" lon="2.5028">
        <ele>51.213558</ele>
        <time>2020-06-06T20:11:46.057Z</time>
      </trkpt>
      <trkpt lat="50.81698" lon="2.50264">
        <ele>50.809949</ele>
        <time>2020-06-06T20:11:47.367Z</time>
      </trkpt>
      <trkpt lat="50.81686" lon="2.50238">
        <ele>50.169542</ele>
        <time>2020-06-06T20:11:49.385Z</time>
      </trkpt>
      <trkpt lat="50.81625" lon="2.50045">
        <ele>47.205091</ele>
        <time>2020-06-06T20:12:03.663Z</time>
      </trkpt>
      <trkpt lat="50.81613" lon="2.50013">
        <ele>46.84876</ele>
        <time>2020-06-06T20:12:06.353Z</time>
      </trkpt>
      <trkpt lat="50.81611" lon="2.50006">
        <ele>46.772885</ele>
        <time>2020-06-06T20:12:06.942Z</time>
      </trkpt>
      <trkpt lat="50.81573" lon="2.49877">
        <ele>46.094827</ele>
        <time>2020-06-06T20:12:19.334Z</time>
      </trkpt>
      <trkpt lat="50.81558" lon="2.49842">
        <ele>46.590829</ele>
        <time>2020-06-06T20:12:24.086Z</time>
      </trkpt>
      <trkpt lat="50.81531" lon="2.49794">
        <ele>47.350592</ele>
        <time>2020-06-06T20:12:32.517Z</time>
      </trkpt>
      <trkpt lat="50.81479" lon="2.49729">
        <ele>48.580463</ele>
        <time>2020-06-06T20:12:49.905Z</time>
      </trkpt>
      <trkpt lat="50.81459" lon="2.49693">
        <ele>49.248018</ele>
        <time>2020-06-06T20:12:58.260Z</time>
      </trkpt>
      <trkpt lat="50.81417" lon="2.49578">
        <ele>52.799133</ele>
        <time>2020-06-06T20:13:22.687Z</time>
      </trkpt>
      <trkpt lat="50.81321" lon="2.49371">
        <ele>60.576399</ele>
        <time>2020-06-06T20:14:19.060Z</time>
      </trkpt>
      <trkpt lat="50.8131" lon="2.4935">
        <ele>61.513443</ele>
        <time>2020-06-06T20:14:26.023Z</time>
      </trkpt>
      <trkpt lat="50.81282" lon="2.49301">
        <ele>63.824313</ele>
        <time>2020-06-06T20:14:42.447Z</time>
      </trkpt>
      <trkpt lat="50.81253" lon="2.49268">
        <ele>65.803061</ele>
        <time>2020-06-06T20:14:56.182Z</time>
      </trkpt>
      <trkpt lat="50.81218" lon="2.49232">
        <ele>67.70178</ele>
        <time>2020-06-06T20:15:11.655Z</time>
      </trkpt>
      <trkpt lat="50.812" lon="2.49216">
        <ele>68.533411</ele>
        <time>2020-06-06T20:15:18.978Z</time>
      </trkpt>
      <trkpt lat="50.81181" lon="2.492">
        <ele>69.418858</ele>
        <time>2020-06-06T20:15:26.734Z</time>
      </trkpt>
      <trkpt lat="50.81066" lon="2.4913">
        <ele>74.203565</ele>
        <time>2020-06-06T20:16:01.647Z</time>
      </trkpt>
      <trkpt lat="50.81023" lon="2.49085">
        <ele>75.289217</ele>
        <time>2020-06-06T20:16:13.689Z</time>
      </trkpt>
      <trkpt lat="50.81001" lon="2.4904">
        <ele>76.043405</ele>
        <time>2020-06-06T20:16:21.202Z</time>
      </trkpt>
      <trkpt lat="50.80995" lon="2.49022">
        <ele>76.302592</ele>
        <time>2020-06-06T20:16:23.483Z</time>
      </trkpt>
      <trkpt lat="50.8099" lon="2.49002">
        <ele>76.592122</ele>
        <time>2020-06-06T20:16:26.663Z</time>
      </trkpt>
      <trkpt lat="50.80978" lon="2.48922">
        <ele>77.674141</ele>
        <time>2020-06-06T20:16:38.291Z</time>
      </trkpt>
      <trkpt lat="50.80974" lon="2.48828">
        <ele>79.379283</ele>
        <time>2020-06-06T20:16:52.527Z</time>
      </trkpt>
      <trkpt lat="50.80957" lon="2.48771">
        <ele>80.528567</ele>
        <time>2020-06-06T20:17:02.313Z</time>
      </trkpt>
      <trkpt lat="50.80951" lon="2.48756">
        <ele>80.839537</ele>
        <time>2020-06-06T20:17:05.274Z</time>
      </trkpt>
      <trkpt lat="50.8091" lon="2.48628">
        <ele>83.787185</ele>
        <time>2020-06-06T20:17:32.050Z</time>
      </trkpt>
      <trkpt lat="50.80896" lon="2.48571">
        <ele>85.531821</ele>
        <time>2020-06-06T20:17:44.274Z</time>
      </trkpt>
      <trkpt lat="50.80895" lon="2.48528">
        <ele>86.783747</ele>
        <time>2020-06-06T20:17:52.774Z</time>
      </trkpt>
      <trkpt lat="50.80896" lon="2.48522">
        <ele>86.937878</ele>
        <time>2020-06-06T20:17:54.625Z</time>
      </trkpt>
      <trkpt lat="50.8089" lon="2.48509">
        <ele>87.400705</ele>
        <time>2020-06-06T20:17:58.707Z</time>
      </trkpt>
      <trkpt lat="50.80857" lon="2.48438">
        <ele>89.928307</ele>
        <time>2020-06-06T20:18:19.587Z</time>
      </trkpt>
      <trkpt lat="50.80765" lon="2.48271">
        <ele>98.253568</ele>
        <time>2020-06-06T20:19:19.440Z</time>
      </trkpt>
      <trkpt lat="50.80685" lon="2.48216">
        <ele>104.263762</ele>
        <time>2020-06-06T20:20:03.186Z</time>
      </trkpt>
      <trkpt lat="50.80636" lon="2.48139">
        <ele>110.215264</ele>
        <time>2020-06-06T20:20:38.765Z</time>
      </trkpt>
      <trkpt lat="50.80636" lon="2.48139">
        <ele>110.215264</ele>
        <time>2020-06-06T20:20:38.815Z</time>
      </trkpt>
      <trkpt lat="50.80636" lon="2.48139">
        <ele>110.215264</ele>
        <time>2020-06-06T20:20:38.820Z</time>
      </trkpt>
      <trkpt lat="50.80636" lon="2.48139">
        <ele>110.215264</ele>
        <time>2020-06-06T20:20:38.822Z</time>
      </trkpt>
      <trkpt lat="50.80636" lon="2.48139">
        <ele>110.22073</ele>
        <time>2020-06-06T20:20:38.834Z</time>
      </trkpt>
      <trkpt lat="50.80628" lon="2.48129">
        <ele>111.10254</ele>
        <time>2020-06-06T20:20:40.731Z</time>
      </trkpt>
      <trkpt lat="50.80568" lon="2.48067">
        <ele>117.300797</ele>
        <time>2020-06-06T20:20:54.075Z</time>
      </trkpt>
      <trkpt lat="50.80558" lon="2.48061">
        <ele>118.302434</ele>
        <time>2020-06-06T20:20:56.064Z</time>
      </trkpt>
      <trkpt lat="50.80551" lon="2.48061">
        <ele>119.016907</ele>
        <time>2020-06-06T20:20:57.366Z</time>
      </trkpt>
      <trkpt lat="50.80532" lon="2.48074">
        <ele>121.129716</ele>
        <time>2020-06-06T20:21:01.224Z</time>
      </trkpt>
      <trkpt lat="50.80516" lon="2.48098">
        <ele>123.379927</ele>
        <time>2020-06-06T20:21:05.331Z</time>
      </trkpt>
      <trkpt lat="50.80495" lon="2.48139">
        <ele>126.784077</ele>
        <time>2020-06-06T20:21:11.555Z</time>
      </trkpt>
      <trkpt lat="50.8048" lon="2.48187">
        <ele>130.238077</ele>
        <time>2020-06-06T20:21:17.869Z</time>
      </trkpt>
      <trkpt lat="50.80477" lon="2.4821">
        <ele>131.75292</ele>
        <time>2020-06-06T20:21:20.640Z</time>
      </trkpt>
      <trkpt lat="50.80477" lon="2.48225">
        <ele>132.720467</ele>
        <time>2020-06-06T20:21:22.409Z</time>
      </trkpt>
      <trkpt lat="50.8049" lon="2.48283">
        <ele>136.655427</ele>
        <time>2020-06-06T20:21:29.668Z</time>
      </trkpt>
      <trkpt lat="50.80429" lon="2.48286">
        <ele>142.508605</ele>
        <time>2020-06-06T20:21:41.094Z</time>
      </trkpt>
      <trkpt lat="50.80367" lon="2.4829">
        <ele>148.371528</ele>
        <time>2020-06-06T20:21:52.538Z</time>
      </trkpt>
      <trkpt lat="50.80306" lon="2.48293">
        <ele>153.564458</ele>
        <time>2020-06-06T20:22:03.935Z</time>
      </trkpt>
      <trkpt lat="50.80306" lon="2.48293">
        <ele>153.574482</ele>
        <time>2020-06-06T20:22:04.059Z</time>
      </trkpt>
      <trkpt lat="50.80282" lon="2.48293">
        <ele>154.205642</ele>
        <time>2020-06-06T20:22:21.249Z</time>
      </trkpt>
      <trkpt lat="50.80281" lon="2.48296">
        <ele>154.247989</ele>
        <time>2020-06-06T20:22:23.576Z</time>
      </trkpt>
      <trkpt lat="50.80276" lon="2.48302">
        <ele>154.413321</ele>
        <time>2020-06-06T20:22:31.865Z</time>
      </trkpt>
      <trkpt lat="50.80274" lon="2.48304">
        <ele>154.482633</ele>
        <time>2020-06-06T20:22:35.132Z</time>
      </trkpt>
      <trkpt lat="50.80273" lon="2.48301">
        <ele>154.536262</ele>
        <time>2020-06-06T20:22:37.354Z</time>
      </trkpt>
      <trkpt lat="50.8027" lon="2.48293">
        <ele>154.681303</ele>
        <time>2020-06-06T20:22:39.135Z</time>
      </trkpt>
      <trkpt lat="50.80269" lon="2.48291">
        <ele>154.715603</ele>
        <time>2020-06-06T20:22:39.592Z</time>
      </trkpt>
      <trkpt lat="50.80267" lon="2.48284">
        <ele>154.846859</ele>
        <time>2020-06-06T20:22:40.659Z</time>
      </trkpt>
      <trkpt lat="50.80265" lon="2.48279">
        <ele>154.94386</ele>
        <time>2020-06-06T20:22:41.121Z</time>
      </trkpt>
      <trkpt lat="50.80259" lon="2.48263">
        <ele>155.243017</ele>
        <time>2020-06-06T20:22:44.427Z</time>
      </trkpt>
      <trkpt lat="50.80256" lon="2.48256">
        <ele>155.376802</ele>
        <time>2020-06-06T20:22:45.819Z</time>
      </trkpt>
      <trkpt lat="50.80255" lon="2.48252">
        <ele>155.457348</ele>
        <time>2020-06-06T20:22:48.846Z</time>
      </trkpt>
      <trkpt lat="50.80252" lon="2.48246">
        <ele>155.576117</ele>
        <time>2020-06-06T20:22:50.027Z</time>
      </trkpt>
      <trkpt lat="50.8025" lon="2.48241">
        <ele>155.674423</ele>
        <time>2020-06-06T20:22:51.038Z</time>
      </trkpt>
      <trkpt lat="50.80248" lon="2.48235">
        <ele>155.778409</ele>
        <time>2020-06-06T20:22:51.509Z</time>
      </trkpt>
      <trkpt lat="50.80245" lon="2.4823">
        <ele>155.886511</ele>
        <time>2020-06-06T20:22:52.010Z</time>
      </trkpt>
      <trkpt lat="50.80242" lon="2.48224">
        <ele>156.005524</ele>
        <time>2020-06-06T20:22:52.505Z</time>
      </trkpt>
      <trkpt lat="50.8024" lon="2.48221">
        <ele>156.085836</ele>
        <time>2020-06-06T20:22:53.096Z</time>
      </trkpt>
      <trkpt lat="50.80239" lon="2.48218">
        <ele>156.136882</ele>
        <time>2020-06-06T20:22:53.325Z</time>
      </trkpt>
      <trkpt lat="50.80236" lon="2.48215">
        <ele>156.219198</ele>
        <time>2020-06-06T20:22:53.688Z</time>
      </trkpt>
      <trkpt lat="50.80234" lon="2.48212">
        <ele>156.292379</ele>
        <time>2020-06-06T20:22:54.360Z</time>
      </trkpt>
      <trkpt lat="50.80233" lon="2.48211">
        <ele>156.312429</ele>
        <time>2020-06-06T20:22:54.434Z</time>
      </trkpt>
      <trkpt lat="50.80187" lon="2.48186">
        <ele>157.562213</ele>
        <time>2020-06-06T20:23:05.314Z</time>
      </trkpt>
      <trkpt lat="50.80186" lon="2.48184">
        <ele>157.606343</ele>
        <time>2020-06-06T20:23:05.471Z</time>
      </trkpt>
      <trkpt lat="50.80184" lon="2.48187">
        <ele>157.664002</ele>
        <time>2020-06-06T20:23:06.066Z</time>
      </trkpt>
      <trkpt lat="50.80121" lon="2.4825">
        <ele>153.673378</ele>
        <time>2020-06-06T20:23:27.351Z</time>
      </trkpt>
      <trkpt lat="50.80118" lon="2.48252">
        <ele>153.449894</ele>
        <time>2020-06-06T20:23:28.185Z</time>
      </trkpt>
      <trkpt lat="50.80118" lon="2.48252">
        <ele>153.449894</ele>
        <time>2020-06-06T20:23:28.191Z</time>
      </trkpt>
      <trkpt lat="50.80116" lon="2.48253">
        <ele>153.292319</ele>
        <time>2020-06-06T20:23:28.791Z</time>
      </trkpt>
      <trkpt lat="50.8011" lon="2.48258">
        <ele>152.860752</ele>
        <time>2020-06-06T20:23:30.614Z</time>
      </trkpt>
      <trkpt lat="50.80089" lon="2.48274">
        <ele>151.312145</ele>
        <time>2020-06-06T20:23:36.863Z</time>
      </trkpt>
      <trkpt lat="50.80068" lon="2.48305">
        <ele>149.426616</ele>
        <time>2020-06-06T20:23:43.882Z</time>
      </trkpt>
      <trkpt lat="50.80048" lon="2.48366">
        <ele>146.584728</ele>
        <time>2020-06-06T20:23:54.823Z</time>
      </trkpt>
      <trkpt lat="50.80047" lon="2.4837">
        <ele>146.37658</ele>
        <time>2020-06-06T20:23:55.597Z</time>
      </trkpt>
      <trkpt lat="50.80045" lon="2.48369">
        <ele>146.194543</ele>
        <time>2020-06-06T20:23:56.278Z</time>
      </trkpt>
      <trkpt lat="50.80035" lon="2.48363">
        <ele>145.114036</ele>
        <time>2020-06-06T20:23:58.685Z</time>
      </trkpt>
      <trkpt lat="50.80031" lon="2.48359">
        <ele>144.496787</ele>
        <time>2020-06-06T20:23:59.935Z</time>
      </trkpt>
      <trkpt lat="50.80026" lon="2.48353">
        <ele>143.813534</ele>
        <time>2020-06-06T20:24:00.433Z</time>
      </trkpt>
      <trkpt lat="50.79999" lon="2.4828">
        <ele>137.515703</ele>
        <time>2020-06-06T20:24:05.039Z</time>
      </trkpt>
      <trkpt lat="50.79997" lon="2.48271">
        <ele>136.821572</ele>
        <time>2020-06-06T20:24:05.531Z</time>
      </trkpt>
      <trkpt lat="50.79996" lon="2.48265">
        <ele>136.345739</ele>
        <time>2020-06-06T20:24:05.863Z</time>
      </trkpt>
      <trkpt lat="50.79989" lon="2.48222">
        <ele>133.070476</ele>
        <time>2020-06-06T20:24:08.277Z</time>
      </trkpt>
      <trkpt lat="50.79955" lon="2.48151">
        <ele>126.451868</ele>
        <time>2020-06-06T20:24:13.046Z</time>
      </trkpt>
      <trkpt lat="50.79948" lon="2.48141">
        <ele>125.422343</ele>
        <time>2020-06-06T20:24:13.806Z</time>
      </trkpt>
      <trkpt lat="50.79938" lon="2.4813">
        <ele>123.990665</ele>
        <time>2020-06-06T20:24:14.816Z</time>
      </trkpt>
      <trkpt lat="50.7979" lon="2.47976">
        <ele>103.375035</ele>
        <time>2020-06-06T20:24:29.931Z</time>
      </trkpt>
      <trkpt lat="50.79787" lon="2.47972">
        <ele>102.988353</ele>
        <time>2020-06-06T20:24:30.251Z</time>
      </trkpt>
      <trkpt lat="50.79783" lon="2.47966">
        <ele>102.507454</ele>
        <time>2020-06-06T20:24:30.700Z</time>
      </trkpt>
      <trkpt lat="50.79782" lon="2.47964">
        <ele>102.298424</ele>
        <time>2020-06-06T20:24:30.881Z</time>
      </trkpt>
      <trkpt lat="50.79673" lon="2.47798">
        <ele>87.480017</ele>
        <time>2020-06-06T20:24:43.927Z</time>
      </trkpt>
      <trkpt lat="50.79655" lon="2.47774">
        <ele>85.762122</ele>
        <time>2020-06-06T20:24:46.062Z</time>
      </trkpt>
      <trkpt lat="50.79649" lon="2.47767">
        <ele>85.361027</ele>
        <time>2020-06-06T20:24:46.718Z</time>
      </trkpt>
      <trkpt lat="50.79561" lon="2.47677">
        <ele>79.799267</ele>
        <time>2020-06-06T20:24:56.443Z</time>
      </trkpt>
      <trkpt lat="50.79534" lon="2.47642">
        <ele>77.911218</ele>
        <time>2020-06-06T20:24:59.846Z</time>
      </trkpt>
      <trkpt lat="50.79532" lon="2.47639">
        <ele>77.748761</ele>
        <time>2020-06-06T20:25:00.108Z</time>
      </trkpt>
      <trkpt lat="50.79527" lon="2.4763">
        <ele>77.349314</ele>
        <time>2020-06-06T20:25:00.878Z</time>
      </trkpt>
      <trkpt lat="50.79424" lon="2.47475">
        <ele>74.455655</ele>
        <time>2020-06-06T20:25:16.703Z</time>
      </trkpt>
      <trkpt lat="50.79384" lon="2.47434">
        <ele>73.581648</ele>
        <time>2020-06-06T20:25:22.971Z</time>
      </trkpt>
      <trkpt lat="50.7929" lon="2.47358">
        <ele>71.78792</ele>
        <time>2020-06-06T20:25:35.808Z</time>
      </trkpt>
      <trkpt lat="50.79274" lon="2.47341">
        <ele>71.459429</ele>
        <time>2020-06-06T20:25:37.902Z</time>
      </trkpt>
      <trkpt lat="50.79254" lon="2.47304">
        <ele>70.930967</ele>
        <time>2020-06-06T20:25:41.144Z</time>
      </trkpt>
      <trkpt lat="50.79249" lon="2.47292">
        <ele>70.774188</ele>
        <time>2020-06-06T20:25:42.181Z</time>
      </trkpt>
      <trkpt lat="50.79224" lon="2.47237">
        <ele>69.384734</ele>
        <time>2020-06-06T20:25:46.583Z</time>
      </trkpt>
      <trkpt lat="50.79212" lon="2.47208">
        <ele>68.494577</ele>
        <time>2020-06-06T20:25:48.769Z</time>
      </trkpt>
      <trkpt lat="50.79203" lon="2.47188">
        <ele>67.87143</ele>
        <time>2020-06-06T20:25:50.313Z</time>
      </trkpt>
      <trkpt lat="50.79197" lon="2.47174">
        <ele>67.426351</ele>
        <time>2020-06-06T20:25:51.341Z</time>
      </trkpt>
      <trkpt lat="50.79162" lon="2.47094">
        <ele>64.946624</ele>
        <time>2020-06-06T20:25:57.320Z</time>
      </trkpt>
      <trkpt lat="50.7914" lon="2.46931">
        <ele>59.885783</ele>
        <time>2020-06-06T20:26:07.238Z</time>
      </trkpt>
      <trkpt lat="50.79113" lon="2.46858">
        <ele>57.084566</ele>
        <time>2020-06-06T20:26:12.260Z</time>
      </trkpt>
      <trkpt lat="50.79025" lon="2.46716">
        <ele>50.693327</ele>
        <time>2020-06-06T20:26:23.917Z</time>
      </trkpt>
      <trkpt lat="50.78964" lon="2.46646">
        <ele>47.056402</ele>
        <time>2020-06-06T20:26:31.025Z</time>
      </trkpt>
      <trkpt lat="50.78951" lon="2.46639">
        <ele>46.407869</ele>
        <time>2020-06-06T20:26:32.406Z</time>
      </trkpt>
      <trkpt lat="50.78948" lon="2.46638">
        <ele>46.25443</ele>
        <time>2020-06-06T20:26:32.667Z</time>
      </trkpt>
      <trkpt lat="50.78948" lon="2.46643">
        <ele>46.111027</ele>
        <time>2020-06-06T20:26:32.973Z</time>
      </trkpt>
      <trkpt lat="50.78938" lon="2.46658">
        <ele>45.46276</ele>
        <time>2020-06-06T20:26:34.395Z</time>
      </trkpt>
      <trkpt lat="50.78898" lon="2.46683">
        <ele>44.785553</ele>
        <time>2020-06-06T20:26:38.817Z</time>
      </trkpt>
      <trkpt lat="50.78896" lon="2.46688">
        <ele>44.759254</ele>
        <time>2020-06-06T20:26:39.288Z</time>
      </trkpt>
      <trkpt lat="50.78875" lon="2.4672">
        <ele>44.562647</ele>
        <time>2020-06-06T20:26:42.374Z</time>
      </trkpt>
      <trkpt lat="50.78832" lon="2.46807">
        <ele>44.089</ele>
        <time>2020-06-06T20:26:52.055Z</time>
      </trkpt>
      <trkpt lat="50.78826" lon="2.46854">
        <ele>43.884583</ele>
        <time>2020-06-06T20:26:58.845Z</time>
      </trkpt>
      <trkpt lat="50.78826" lon="2.46892">
        <ele>44.053633</ele>
        <time>2020-06-06T20:27:04.166Z</time>
      </trkpt>
      <trkpt lat="50.78826" lon="2.46895">
        <ele>44.095075</ele>
        <time>2020-06-06T20:27:04.731Z</time>
      </trkpt>
      <trkpt lat="50.78828" lon="2.46949">
        <ele>44.931337</ele>
        <time>2020-06-06T20:27:13.075Z</time>
      </trkpt>
      <trkpt lat="50.7883" lon="2.46961">
        <ele>45.113574</ele>
        <time>2020-06-06T20:27:14.978Z</time>
      </trkpt>
      <trkpt lat="50.78831" lon="2.4697">
        <ele>45.259214</ele>
        <time>2020-06-06T20:27:17.096Z</time>
      </trkpt>
      <trkpt lat="50.78869" lon="2.4707">
        <ele>47.050196</ele>
        <time>2020-06-06T20:27:36.455Z</time>
      </trkpt>
      <trkpt lat="50.78901" lon="2.4725">
        <ele>48.98169</ele>
        <time>2020-06-06T20:28:04.436Z</time>
      </trkpt>
      <trkpt lat="50.7892" lon="2.47305">
        <ele>49.428759</ele>
        <time>2020-06-06T20:28:11.811Z</time>
      </trkpt>
      <trkpt lat="50.7892" lon="2.47329">
        <ele>49.602899</ele>
        <time>2020-06-06T20:28:14.668Z</time>
      </trkpt>
      <trkpt lat="50.7892" lon="2.47339">
        <ele>49.672791</ele>
        <time>2020-06-06T20:28:16.107Z</time>
      </trkpt>
      <trkpt lat="50.78919" lon="2.47342">
        <ele>49.695242</ele>
        <time>2020-06-06T20:28:16.313Z</time>
      </trkpt>
      <trkpt lat="50.78912" lon="2.47401">
        <ele>50.126329</ele>
        <time>2020-06-06T20:28:22.098Z</time>
      </trkpt>
      <trkpt lat="50.78912" lon="2.47403">
        <ele>50.14224</ele>
        <time>2020-06-06T20:28:22.232Z</time>
      </trkpt>
      <trkpt lat="50.7891" lon="2.47424">
        <ele>50.157859</ele>
        <time>2020-06-06T20:28:23.886Z</time>
      </trkpt>
      <trkpt lat="50.78915" lon="2.47567">
        <ele>49.706167</ele>
        <time>2020-06-06T20:28:35.795Z</time>
      </trkpt>
      <trkpt lat="50.78916" lon="2.47578">
        <ele>49.672087</ele>
        <time>2020-06-06T20:28:36.524Z</time>
      </trkpt>
      <trkpt lat="50.78916" lon="2.47584">
        <ele>49.654162</ele>
        <time>2020-06-06T20:28:36.954Z</time>
      </trkpt>
      <trkpt lat="50.78916" lon="2.47596">
        <ele>49.616388</ele>
        <time>2020-06-06T20:28:37.803Z</time>
      </trkpt>
      <trkpt lat="50.78917" lon="2.47627">
        <ele>49.516975</ele>
        <time>2020-06-06T20:28:40.591Z</time>
      </trkpt>
      <trkpt lat="50.78918" lon="2.47653">
        <ele>49.437346</ele>
        <time>2020-06-06T20:28:42.375Z</time>
      </trkpt>
      <trkpt lat="50.78918" lon="2.47662">
        <ele>49.409037</ele>
        <time>2020-06-06T20:28:43.269Z</time>
      </trkpt>
      <trkpt lat="50.78919" lon="2.47703">
        <ele>49.391466</ele>
        <time>2020-06-06T20:28:47.330Z</time>
      </trkpt>
      <trkpt lat="50.78921" lon="2.47759">
        <ele>50.034356</ele>
        <time>2020-06-06T20:28:52.962Z</time>
      </trkpt>
      <trkpt lat="50.78921" lon="2.47763">
        <ele>50.080154</ele>
        <time>2020-06-06T20:28:53.272Z</time>
      </trkpt>
      <trkpt lat="50.78921" lon="2.47774">
        <ele>50.207359</ele>
        <time>2020-06-06T20:28:54.423Z</time>
      </trkpt>
      <trkpt lat="50.78922" lon="2.4785">
        <ele>51.072023</ele>
        <time>2020-06-06T20:29:03.652Z</time>
      </trkpt>
      <trkpt lat="50.78924" lon="2.47908">
        <ele>51.739942</ele>
        <time>2020-06-06T20:29:11.858Z</time>
      </trkpt>
      <trkpt lat="50.78924" lon="2.47931">
        <ele>52.008012</ele>
        <time>2020-06-06T20:29:17.020Z</time>
      </trkpt>
      <trkpt lat="50.78932" lon="2.48038">
        <ele>54.79699</ele>
        <time>2020-06-06T20:29:38.788Z</time>
      </trkpt>
      <trkpt lat="50.78934" lon="2.48049">
        <ele>55.232581</ele>
        <time>2020-06-06T20:29:41.273Z</time>
      </trkpt>
      <trkpt lat="50.78939" lon="2.48071">
        <ele>56.114596</ele>
        <time>2020-06-06T20:29:44.897Z</time>
      </trkpt>
      <trkpt lat="50.78955" lon="2.48126">
        <ele>58.413152</ele>
        <time>2020-06-06T20:29:59.717Z</time>
      </trkpt>
      <trkpt lat="50.78958" lon="2.48131">
        <ele>58.688249</ele>
        <time>2020-06-06T20:30:02.297Z</time>
      </trkpt>
      <trkpt lat="50.78962" lon="2.48135">
        <ele>58.94497</ele>
        <time>2020-06-06T20:30:05.976Z</time>
      </trkpt>
      <trkpt lat="50.79025" lon="2.48167">
        <ele>62.958445</ele>
        <time>2020-06-06T20:30:31.955Z</time>
      </trkpt>
      <trkpt lat="50.79026" lon="2.48168">
        <ele>63.015199</ele>
        <time>2020-06-06T20:30:32.959Z</time>
      </trkpt>
      <trkpt lat="50.79031" lon="2.48172">
        <ele>63.317641</ele>
        <time>2020-06-06T20:30:36.885Z</time>
      </trkpt>
      <trkpt lat="50.79064" lon="2.48229">
        <ele>66.915766</ele>
        <time>2020-06-06T20:30:58.232Z</time>
      </trkpt>
      <trkpt lat="50.79082" lon="2.48273">
        <ele>69.363</ele>
        <time>2020-06-06T20:31:14.129Z</time>
      </trkpt>
      <trkpt lat="50.7909" lon="2.48319">
        <ele>71.601944</ele>
        <time>2020-06-06T20:31:28.123Z</time>
      </trkpt>
      <trkpt lat="50.79086" lon="2.48377">
        <ele>74.27227</ele>
        <time>2020-06-06T20:31:44.714Z</time>
      </trkpt>
      <trkpt lat="50.79088" lon="2.48397">
        <ele>75.222772</ele>
        <time>2020-06-06T20:31:49.900Z</time>
      </trkpt>
      <trkpt lat="50.79098" lon="2.48408">
        <ele>76.150192</ele>
        <time>2020-06-06T20:31:54.910Z</time>
      </trkpt>
      <trkpt lat="50.79157" lon="2.48441">
        <ele>79.381131</ele>
        <time>2020-06-06T20:32:19.150Z</time>
      </trkpt>
      <trkpt lat="50.79184" lon="2.4847">
        <ele>81.006442</ele>
        <time>2020-06-06T20:32:31.372Z</time>
      </trkpt>
      <trkpt lat="50.79241" lon="2.48663">
        <ele>86.427238</ele>
        <time>2020-06-06T20:33:13.360Z</time>
      </trkpt>
      <trkpt lat="50.79298" lon="2.48794">
        <ele>88.418417</ele>
        <time>2020-06-06T20:33:34.159Z</time>
      </trkpt>
      <trkpt lat="50.79302" lon="2.48803">
        <ele>88.552721</ele>
        <time>2020-06-06T20:33:35.842Z</time>
      </trkpt>
      <trkpt lat="50.79405" lon="2.49035">
        <ele>90.45427</ele>
        <time>2020-06-06T20:34:05.695Z</time>
      </trkpt>
      <trkpt lat="50.7943" lon="2.4909">
        <ele>91.028974</ele>
        <time>2020-06-06T20:34:15.151Z</time>
      </trkpt>
      <trkpt lat="50.79454" lon="2.49142">
        <ele>91.988676</ele>
        <time>2020-06-06T20:34:25.124Z</time>
      </trkpt>
      <trkpt lat="50.79467" lon="2.4917">
        <ele>92.491059</ele>
        <time>2020-06-06T20:34:30.674Z</time>
      </trkpt>
      <trkpt lat="50.79468" lon="2.49172">
        <ele>92.537506</ele>
        <time>2020-06-06T20:34:32.127Z</time>
      </trkpt>
      <trkpt lat="50.79505" lon="2.49252">
        <ele>94.011169</ele>
        <time>2020-06-06T20:34:47.310Z</time>
      </trkpt>
      <trkpt lat="50.79511" lon="2.49258">
        <ele>94.172028</ele>
        <time>2020-06-06T20:34:49.556Z</time>
      </trkpt>
      <trkpt lat="50.79518" lon="2.4926">
        <ele>94.33163</ele>
        <time>2020-06-06T20:34:52.232Z</time>
      </trkpt>
      <trkpt lat="50.7955" lon="2.49271">
        <ele>94.842947</ele>
        <time>2020-06-06T20:35:00.485Z</time>
      </trkpt>
      <trkpt lat="50.79577" lon="2.49292">
        <ele>94.518051</ele>
        <time>2020-06-06T20:35:05.391Z</time>
      </trkpt>
      <trkpt lat="50.79582" lon="2.49294">
        <ele>94.464806</ele>
        <time>2020-06-06T20:35:07.888Z</time>
      </trkpt>
      <trkpt lat="50.79582" lon="2.49305">
        <ele>94.390216</ele>
        <time>2020-06-06T20:35:08.679Z</time>
      </trkpt>
      <trkpt lat="50.7959" lon="2.49347">
        <ele>94.096374</ele>
        <time>2020-06-06T20:35:12.719Z</time>
      </trkpt>
      <trkpt lat="50.79588" lon="2.49373">
        <ele>93.915827</ele>
        <time>2020-06-06T20:35:14.746Z</time>
      </trkpt>
      <trkpt lat="50.79513" lon="2.49515">
        <ele>91.228189</ele>
        <time>2020-06-06T20:35:26.847Z</time>
      </trkpt>
      <trkpt lat="50.79482" lon="2.49593">
        <ele>87.975455</ele>
        <time>2020-06-06T20:35:32.154Z</time>
      </trkpt>
      <trkpt lat="50.79467" lon="2.49621">
        <ele>86.653605</ele>
        <time>2020-06-06T20:35:34.296Z</time>
      </trkpt>
      <trkpt lat="50.79457" lon="2.49634">
        <ele>85.919504</ele>
        <time>2020-06-06T20:35:35.501Z</time>
      </trkpt>
      <trkpt lat="50.79447" lon="2.49643">
        <ele>85.306686</ele>
        <time>2020-06-06T20:35:36.529Z</time>
      </trkpt>
      <trkpt lat="50.79441" lon="2.4965">
        <ele>84.851626</ele>
        <time>2020-06-06T20:35:37.288Z</time>
      </trkpt>
      <trkpt lat="50.7944" lon="2.49651">
        <ele>84.79178</ele>
        <time>2020-06-06T20:35:37.381Z</time>
      </trkpt>
      <trkpt lat="50.79384" lon="2.49702">
        <ele>80.807684</ele>
        <time>2020-06-06T20:35:43.263Z</time>
      </trkpt>
      <trkpt lat="50.79366" lon="2.49726">
        <ele>79.240755</ele>
        <time>2020-06-06T20:35:45.309Z</time>
      </trkpt>
      <trkpt lat="50.79339" lon="2.49815">
        <ele>74.969473</ele>
        <time>2020-06-06T20:35:50.909Z</time>
      </trkpt>
      <trkpt lat="50.79296" lon="2.49917">
        <ele>69.9589</ele>
        <time>2020-06-06T20:35:58.030Z</time>
      </trkpt>
      <trkpt lat="50.79271" lon="2.49959">
        <ele>68.119723</ele>
        <time>2020-06-06T20:36:01.358Z</time>
      </trkpt>
      <trkpt lat="50.79261" lon="2.49972">
        <ele>67.447819</ele>
        <time>2020-06-06T20:36:02.600Z</time>
      </trkpt>
      <trkpt lat="50.79256" lon="2.49977">
        <ele>67.163571</ele>
        <time>2020-06-06T20:36:03.100Z</time>
      </trkpt>
      <trkpt lat="50.79202" lon="2.50044">
        <ele>63.698882</ele>
        <time>2020-06-06T20:36:09.520Z</time>
      </trkpt>
      <trkpt lat="50.79195" lon="2.50053">
        <ele>63.24963</ele>
        <time>2020-06-06T20:36:10.341Z</time>
      </trkpt>
      <trkpt lat="50.79195" lon="2.50054">
        <ele>63.189969</ele>
        <time>2020-06-06T20:36:10.437Z</time>
      </trkpt>
      <trkpt lat="50.79086" lon="2.50188">
        <ele>59.98548</ele>
        <time>2020-06-06T20:36:24.768Z</time>
      </trkpt>
      <trkpt lat="50.7906" lon="2.50269">
        <ele>59.125395</ele>
        <time>2020-06-06T20:36:32.961Z</time>
      </trkpt>
      <trkpt lat="50.79057" lon="2.50282">
        <ele>58.992076</ele>
        <time>2020-06-06T20:36:34.245Z</time>
      </trkpt>
      <trkpt lat="50.79054" lon="2.50297">
        <ele>58.896889</ele>
        <time>2020-06-06T20:36:37.041Z</time>
      </trkpt>
      <trkpt lat="50.79039" lon="2.50407">
        <ele>60.245963</ele>
        <time>2020-06-06T20:36:52.653Z</time>
      </trkpt>
      <trkpt lat="50.79021" lon="2.50454">
        <ele>60.903691</ele>
        <time>2020-06-06T20:37:01.123Z</time>
      </trkpt>
      <trkpt lat="50.7897" lon="2.50519">
        <ele>62.143713</ele>
        <time>2020-06-06T20:37:17.612Z</time>
      </trkpt>
      <trkpt lat="50.78892" lon="2.50559">
        <ele>62.917261</ele>
        <time>2020-06-06T20:37:35.267Z</time>
      </trkpt>
      <trkpt lat="50.78866" lon="2.50586">
        <ele>63.190622</ele>
        <time>2020-06-06T20:37:40.837Z</time>
      </trkpt>
      <trkpt lat="50.78863" lon="2.50591">
        <ele>63.227764</ele>
        <time>2020-06-06T20:37:41.781Z</time>
      </trkpt>
      <trkpt lat="50.78856" lon="2.50586">
        <ele>63.291704</ele>
        <time>2020-06-06T20:37:42.961Z</time>
      </trkpt>
      <trkpt lat="50.78851" lon="2.50585">
        <ele>63.338805</ele>
        <time>2020-06-06T20:37:43.767Z</time>
      </trkpt>
      <trkpt lat="50.78837" lon="2.50587">
        <ele>63.457027</ele>
        <time>2020-06-06T20:37:45.916Z</time>
      </trkpt>
      <trkpt lat="50.78789" lon="2.50611">
        <ele>63.728308</ele>
        <time>2020-06-06T20:37:53.278Z</time>
      </trkpt>
      <trkpt lat="50.78787" lon="2.50612">
        <ele>63.702722</ele>
        <time>2020-06-06T20:37:53.549Z</time>
      </trkpt>
      <trkpt lat="50.78781" lon="2.50615">
        <ele>63.622927</ele>
        <time>2020-06-06T20:37:54.367Z</time>
      </trkpt>
      <trkpt lat="50.78586" lon="2.50697">
        <ele>60.674594</ele>
        <time>2020-06-06T20:38:17.772Z</time>
      </trkpt>
      <trkpt lat="50.78499" lon="2.50753">
        <ele>58.296646</ele>
        <time>2020-06-06T20:38:27.627Z</time>
      </trkpt>
      <trkpt lat="50.78441" lon="2.50803">
        <ele>56.399236</ele>
        <time>2020-06-06T20:38:34.376Z</time>
      </trkpt>
      <trkpt lat="50.7844" lon="2.50804">
        <ele>56.364817</ele>
        <time>2020-06-06T20:38:34.457Z</time>
      </trkpt>
      <trkpt lat="50.78434" lon="2.50809">
        <ele>56.118272</ele>
        <time>2020-06-06T20:38:35.082Z</time>
      </trkpt>
      <trkpt lat="50.78427" lon="2.50815">
        <ele>55.799605</ele>
        <time>2020-06-06T20:38:36.009Z</time>
      </trkpt>
      <trkpt lat="50.78423" lon="2.50819">
        <ele>55.645291</ele>
        <time>2020-06-06T20:38:36.430Z</time>
      </trkpt>
      <trkpt lat="50.7842" lon="2.50821">
        <ele>55.507539</ele>
        <time>2020-06-06T20:38:36.818Z</time>
      </trkpt>
      <trkpt lat="50.78416" lon="2.50824">
        <ele>55.327156</ele>
        <time>2020-06-06T20:38:37.319Z</time>
      </trkpt>
      <trkpt lat="50.7841" lon="2.50828">
        <ele>55.089889</ele>
        <time>2020-06-06T20:38:37.930Z</time>
      </trkpt>
      <trkpt lat="50.78377" lon="2.50843">
        <ele>53.783075</ele>
        <time>2020-06-06T20:38:41.327Z</time>
      </trkpt>
      <trkpt lat="50.78368" lon="2.50846">
        <ele>53.455203</ele>
        <time>2020-06-06T20:38:42.143Z</time>
      </trkpt>
      <trkpt lat="50.78364" lon="2.50848">
        <ele>53.300971</ele>
        <time>2020-06-06T20:38:42.548Z</time>
      </trkpt>
      <trkpt lat="50.78341" lon="2.5085">
        <ele>52.421932</ele>
        <time>2020-06-06T20:38:44.851Z</time>
      </trkpt>
      <trkpt lat="50.78321" lon="2.50844">
        <ele>51.651418</ele>
        <time>2020-06-06T20:38:46.862Z</time>
      </trkpt>
      <trkpt lat="50.78309" lon="2.5084">
        <ele>51.209075</ele>
        <time>2020-06-06T20:38:47.970Z</time>
      </trkpt>
      <trkpt lat="50.78298" lon="2.50835">
        <ele>50.755197</ele>
        <time>2020-06-06T20:38:49.115Z</time>
      </trkpt>
      <trkpt lat="50.78252" lon="2.50817">
        <ele>49.123106</ele>
        <time>2020-06-06T20:38:53.836Z</time>
      </trkpt>
      <trkpt lat="50.78249" lon="2.50816">
        <ele>49.040156</ele>
        <time>2020-06-06T20:38:54.060Z</time>
      </trkpt>
      <trkpt lat="50.7824" lon="2.50812">
        <ele>48.72236</ele>
        <time>2020-06-06T20:38:54.989Z</time>
      </trkpt>
      <trkpt lat="50.78171" lon="2.50784">
        <ele>46.334012</ele>
        <time>2020-06-06T20:39:02.177Z</time>
      </trkpt>
      <trkpt lat="50.78048" lon="2.50733">
        <ele>43.010421</ele>
        <time>2020-06-06T20:39:15.383Z</time>
      </trkpt>
      <trkpt lat="50.78032" lon="2.50726">
        <ele>42.693597</ele>
        <time>2020-06-06T20:39:17.128Z</time>
      </trkpt>
      <trkpt lat="50.77979" lon="2.50694">
        <ele>41.600554</ele>
        <time>2020-06-06T20:39:23.671Z</time>
      </trkpt>
      <trkpt lat="50.77946" lon="2.50672">
        <ele>40.900983</ele>
        <time>2020-06-06T20:39:27.941Z</time>
      </trkpt>
      <trkpt lat="50.77927" lon="2.5066">
        <ele>40.720162</ele>
        <time>2020-06-06T20:39:30.306Z</time>
      </trkpt>
      <trkpt lat="50.77915" lon="2.50653">
        <ele>40.6396</ele>
        <time>2020-06-06T20:39:32.072Z</time>
      </trkpt>
      <trkpt lat="50.7778" lon="2.50602">
        <ele>39.79806</ele>
        <time>2020-06-06T20:39:50.900Z</time>
      </trkpt>
      <trkpt lat="50.77751" lon="2.50598">
        <ele>39.520443</ele>
        <time>2020-06-06T20:39:54.635Z</time>
      </trkpt>
      <trkpt lat="50.77744" lon="2.50598">
        <ele>39.434449</ele>
        <time>2020-06-06T20:39:55.669Z</time>
      </trkpt>
      <trkpt lat="50.77734" lon="2.50599">
        <ele>39.324376</ele>
        <time>2020-06-06T20:39:56.868Z</time>
      </trkpt>
      <trkpt lat="50.77723" lon="2.50603">
        <ele>39.183825</ele>
        <time>2020-06-06T20:39:58.224Z</time>
      </trkpt>
      <trkpt lat="50.77721" lon="2.50603">
        <ele>39.162856</ele>
        <time>2020-06-06T20:39:58.497Z</time>
      </trkpt>
      <trkpt lat="50.77717" lon="2.50605">
        <ele>39.11842</ele>
        <time>2020-06-06T20:39:58.912Z</time>
      </trkpt>
      <trkpt lat="50.77672" lon="2.5063">
        <ele>38.543096</ele>
        <time>2020-06-06T20:40:04.869Z</time>
      </trkpt>
      <trkpt lat="50.77664" lon="2.50635">
        <ele>38.440619</ele>
        <time>2020-06-06T20:40:05.886Z</time>
      </trkpt>
      <trkpt lat="50.77656" lon="2.50639">
        <ele>38.337967</ele>
        <time>2020-06-06T20:40:06.817Z</time>
      </trkpt>
      <trkpt lat="50.77517" lon="2.50692">
        <ele>36.712327</ele>
        <time>2020-06-06T20:40:23.008Z</time>
      </trkpt>
      <trkpt lat="50.77474" lon="2.5072">
        <ele>36.196547</ele>
        <time>2020-06-06T20:40:28.785Z</time>
      </trkpt>
      <trkpt lat="50.77434" lon="2.50761">
        <ele>35.678069</ele>
        <time>2020-06-06T20:40:34.917Z</time>
      </trkpt>
      <trkpt lat="50.77431" lon="2.50765">
        <ele>35.628992</ele>
        <time>2020-06-06T20:40:35.441Z</time>
      </trkpt>
      <trkpt lat="50.77429" lon="2.50767">
        <ele>35.605748</ele>
        <time>2020-06-06T20:40:35.781Z</time>
      </trkpt>
      <trkpt lat="50.77398" lon="2.50812">
        <ele>35.756496</ele>
        <time>2020-06-06T20:40:41.654Z</time>
      </trkpt>
      <trkpt lat="50.77387" lon="2.50828">
        <ele>35.808585</ele>
        <time>2020-06-06T20:40:43.850Z</time>
      </trkpt>
      <trkpt lat="50.77376" lon="2.50845">
        <ele>35.866</ele>
        <time>2020-06-06T20:40:46.226Z</time>
      </trkpt>
      <trkpt lat="50.77311" lon="2.5093">
        <ele>36.172512</ele>
        <time>2020-06-06T20:41:00.698Z</time>
      </trkpt>
      <trkpt lat="50.77223" lon="2.51029">
        <ele>37.074662</ele>
        <time>2020-06-06T20:41:22.002Z</time>
      </trkpt>
      <trkpt lat="50.77204" lon="2.51069">
        <ele>37.380763</ele>
        <time>2020-06-06T20:41:28.216Z</time>
      </trkpt>
      <trkpt lat="50.77177" lon="2.51159">
        <ele>37.989</ele>
        <time>2020-06-06T20:41:39.572Z</time>
      </trkpt>
      <trkpt lat="50.77173" lon="2.51167">
        <ele>38.000308</ele>
        <time>2020-06-06T20:41:41.109Z</time>
      </trkpt>
      <trkpt lat="50.7717" lon="2.51173">
        <ele>38.004267</ele>
        <time>2020-06-06T20:41:41.799Z</time>
      </trkpt>
      <trkpt lat="50.77134" lon="2.51215">
        <ele>38.041667</ele>
        <time>2020-06-06T20:41:48.915Z</time>
      </trkpt>
      <trkpt lat="50.77039" lon="2.51285">
        <ele>38.129534</ele>
        <time>2020-06-06T20:42:04.559Z</time>
      </trkpt>
      <trkpt lat="50.77034" lon="2.51288">
        <ele>38.13415</ele>
        <time>2020-06-06T20:42:05.195Z</time>
      </trkpt>
      <trkpt lat="50.77033" lon="2.51289">
        <ele>38.135143</ele>
        <time>2020-06-06T20:42:05.325Z</time>
      </trkpt>
      <trkpt lat="50.76914" lon="2.51339">
        <ele>38.049849</ele>
        <time>2020-06-06T20:42:22.124Z</time>
      </trkpt>
      <trkpt lat="50.76879" lon="2.51367">
        <ele>38.015001</ele>
        <time>2020-06-06T20:42:27.933Z</time>
      </trkpt>
      <trkpt lat="50.76849" lon="2.514">
        <ele>38.023033</ele>
        <time>2020-06-06T20:42:33.746Z</time>
      </trkpt>
      <trkpt lat="50.76843" lon="2.51409">
        <ele>38.073212</ele>
        <time>2020-06-06T20:42:35.051Z</time>
      </trkpt>
      <trkpt lat="50.76838" lon="2.51416">
        <ele>38.113554</ele>
        <time>2020-06-06T20:42:36.293Z</time>
      </trkpt>
      <trkpt lat="50.76726" lon="2.51643">
        <ele>39.261909</ele>
        <time>2020-06-06T20:43:08.008Z</time>
      </trkpt>
      <trkpt lat="50.76684" lon="2.51691">
        <ele>39.711194</ele>
        <time>2020-06-06T20:43:17.470Z</time>
      </trkpt>
      <trkpt lat="50.76634" lon="2.51723">
        <ele>40.180607</ele>
        <time>2020-06-06T20:43:27.311Z</time>
      </trkpt>
      <trkpt lat="50.76632" lon="2.51724">
        <ele>40.203841</ele>
        <time>2020-06-06T20:43:27.949Z</time>
      </trkpt>
      <trkpt lat="50.76625" lon="2.51727">
        <ele>40.263616</ele>
        <time>2020-06-06T20:43:29.364Z</time>
      </trkpt>
      <trkpt lat="50.76584" lon="2.51734">
        <ele>40.622616</ele>
        <time>2020-06-06T20:43:37.131Z</time>
      </trkpt>
      <trkpt lat="50.76535" lon="2.51727">
        <ele>40.983895</ele>
        <time>2020-06-06T20:43:46.408Z</time>
      </trkpt>
      <trkpt lat="50.76514" lon="2.51722">
        <ele>41.133689</ele>
        <time>2020-06-06T20:43:50.483Z</time>
      </trkpt>
      <trkpt lat="50.76476" lon="2.51714">
        <ele>41.411826</ele>
        <time>2020-06-06T20:43:57.529Z</time>
      </trkpt>
      <trkpt lat="50.76407" lon="2.51693">
        <ele>41.929731</ele>
        <time>2020-06-06T20:44:09.666Z</time>
      </trkpt>
      <trkpt lat="50.76284" lon="2.51668">
        <ele>41.342199</ele>
        <time>2020-06-06T20:44:27.225Z</time>
      </trkpt>
      <trkpt lat="50.76237" lon="2.51678">
        <ele>41.111684</ele>
        <time>2020-06-06T20:44:32.847Z</time>
      </trkpt>
      <trkpt lat="50.7618" lon="2.51706">
        <ele>40.638309</ele>
        <time>2020-06-06T20:44:39.636Z</time>
      </trkpt>
      <trkpt lat="50.76159" lon="2.51718">
        <ele>40.44704</ele>
        <time>2020-06-06T20:44:42.210Z</time>
      </trkpt>
      <trkpt lat="50.76148" lon="2.51723">
        <ele>40.351724</ele>
        <time>2020-06-06T20:44:43.411Z</time>
      </trkpt>
      <trkpt lat="50.75919" lon="2.51847">
        <ele>40.023191</ele>
        <time>2020-06-06T20:45:16.909Z</time>
      </trkpt>
      <trkpt lat="50.75909" lon="2.51854">
        <ele>40.060642</ele>
        <time>2020-06-06T20:45:19.948Z</time>
      </trkpt>
      <trkpt lat="50.75894" lon="2.51866">
        <ele>40.116258</ele>
        <time>2020-06-06T20:45:23.359Z</time>
      </trkpt>
      <trkpt lat="50.75866" lon="2.51889">
        <ele>40.682392</ele>
        <time>2020-06-06T20:45:30.979Z</time>
      </trkpt>
      <trkpt lat="50.75858" lon="2.51895">
        <ele>40.884932</ele>
        <time>2020-06-06T20:45:33.235Z</time>
      </trkpt>
      <trkpt lat="50.75858" lon="2.51895">
        <ele>40.884932</ele>
        <time>2020-06-06T20:45:33.318Z</time>
      </trkpt>
      <trkpt lat="50.75847" lon="2.51902">
        <ele>41.155209</ele>
        <time>2020-06-06T20:45:36.317Z</time>
      </trkpt>
      <trkpt lat="50.75813" lon="2.51915">
        <ele>41.920722</ele>
        <time>2020-06-06T20:45:44.963Z</time>
      </trkpt>
      <trkpt lat="50.75811" lon="2.51915">
        <ele>41.958179</ele>
        <time>2020-06-06T20:45:46.025Z</time>
      </trkpt>
      <trkpt lat="50.75809" lon="2.51915">
        <ele>42.008736</ele>
        <time>2020-06-06T20:45:46.973Z</time>
      </trkpt>
      <trkpt lat="50.75708" lon="2.51891">
        <ele>44.117119</ele>
        <time>2020-06-06T20:46:10.921Z</time>
      </trkpt>
      <trkpt lat="50.75701" lon="2.5189">
        <ele>44.140536</ele>
        <time>2020-06-06T20:46:13.302Z</time>
      </trkpt>
      <trkpt lat="50.757" lon="2.5189">
        <ele>44.144781</ele>
        <time>2020-06-06T20:46:13.488Z</time>
      </trkpt>
      <trkpt lat="50.75688" lon="2.5189">
        <ele>44.186899</ele>
        <time>2020-06-06T20:46:15.344Z</time>
      </trkpt>
      <trkpt lat="50.75658" lon="2.51891">
        <ele>44.292359</ele>
        <time>2020-06-06T20:46:20.971Z</time>
      </trkpt>
      <trkpt lat="50.75643" lon="2.51898">
        <ele>44.348755</ele>
        <time>2020-06-06T20:46:23.393Z</time>
      </trkpt>
      <trkpt lat="50.75642" lon="2.51901">
        <ele>44.354467</ele>
        <time>2020-06-06T20:46:23.598Z</time>
      </trkpt>
      <trkpt lat="50.75642" lon="2.51901">
        <ele>44.354467</ele>
        <time>2020-06-06T20:46:23.601Z</time>
      </trkpt>
      <trkpt lat="50.75642" lon="2.51901">
        <ele>44.354467</ele>
        <time>2020-06-06T20:46:23.636Z</time>
      </trkpt>
      <trkpt lat="50.75642" lon="2.51904">
        <ele>44.360996</ele>
        <time>2020-06-06T20:46:23.832Z</time>
      </trkpt>
      <trkpt lat="50.75646" lon="2.51957">
        <ele>44.480473</ele>
        <time>2020-06-06T20:46:28.997Z</time>
      </trkpt>
      <trkpt lat="50.75649" lon="2.52002">
        <ele>44.582182</ele>
        <time>2020-06-06T20:46:33.074Z</time>
      </trkpt>
      <trkpt lat="50.7565" lon="2.52016">
        <ele>44.612784</ele>
        <time>2020-06-06T20:46:34.154Z</time>
      </trkpt>
      <trkpt lat="50.75651" lon="2.52027">
        <ele>44.639427</ele>
        <time>2020-06-06T20:46:35.261Z</time>
      </trkpt>
      <trkpt lat="50.75651" lon="2.52028">
        <ele>44.641693</ele>
        <time>2020-06-06T20:46:35.331Z</time>
      </trkpt>
      <trkpt lat="50.75654" lon="2.52058">
        <ele>44.708013</ele>
        <time>2020-06-06T20:46:37.908Z</time>
      </trkpt>
      <trkpt lat="50.75668" lon="2.52154">
        <ele>44.127656</ele>
        <time>2020-06-06T20:46:45.723Z</time>
      </trkpt>
      <trkpt lat="50.75667" lon="2.52156">
        <ele>44.115742</ele>
        <time>2020-06-06T20:46:45.947Z</time>
      </trkpt>
      <trkpt lat="50.75666" lon="2.52157">
        <ele>44.102201</ele>
        <time>2020-06-06T20:46:46.087Z</time>
      </trkpt>
      <trkpt lat="50.75547" lon="2.52219">
        <ele>42.735518</ele>
        <time>2020-06-06T20:47:01.205Z</time>
      </trkpt>
      <trkpt lat="50.75409" lon="2.52275">
        <ele>40.17634</ele>
        <time>2020-06-06T20:47:17.198Z</time>
      </trkpt>
      <trkpt lat="50.75408" lon="2.52276">
        <ele>40.156038</ele>
        <time>2020-06-06T20:47:17.290Z</time>
      </trkpt>
      <trkpt lat="50.75379" lon="2.52287">
        <ele>39.613288</ele>
        <time>2020-06-06T20:47:20.604Z</time>
      </trkpt>
      <trkpt lat="50.75364" lon="2.52292">
        <ele>39.290378</ele>
        <time>2020-06-06T20:47:22.154Z</time>
      </trkpt>
      <trkpt lat="50.75339" lon="2.52302">
        <ele>38.70907</ele>
        <time>2020-06-06T20:47:25.032Z</time>
      </trkpt>
      <trkpt lat="50.75332" lon="2.52304">
        <ele>38.546979</ele>
        <time>2020-06-06T20:47:25.768Z</time>
      </trkpt>
      <trkpt lat="50.75304" lon="2.52319">
        <ele>37.889079</ele>
        <time>2020-06-06T20:47:28.957Z</time>
      </trkpt>
      <trkpt lat="50.75302" lon="2.52319">
        <ele>37.855535</ele>
        <time>2020-06-06T20:47:29.106Z</time>
      </trkpt>
      <trkpt lat="50.753" lon="2.52317">
        <ele>37.792284</ele>
        <time>2020-06-06T20:47:29.430Z</time>
      </trkpt>
      <trkpt lat="50.75297" lon="2.52316">
        <ele>37.730795</ele>
        <time>2020-06-06T20:47:29.748Z</time>
      </trkpt>
      <trkpt lat="50.75289" lon="2.52318">
        <ele>37.545216</ele>
        <time>2020-06-06T20:47:30.735Z</time>
      </trkpt>
      <trkpt lat="50.75286" lon="2.52321">
        <ele>37.481931</ele>
        <time>2020-06-06T20:47:31.026Z</time>
      </trkpt>
      <trkpt lat="50.75284" lon="2.52324">
        <ele>37.419511</ele>
        <time>2020-06-06T20:47:31.314Z</time>
      </trkpt>
      <trkpt lat="50.75282" lon="2.52325">
        <ele>37.357379</ele>
        <time>2020-06-06T20:47:31.587Z</time>
      </trkpt>
      <trkpt lat="50.75261" lon="2.52329">
        <ele>36.901695</ele>
        <time>2020-06-06T20:47:33.705Z</time>
      </trkpt>
      <trkpt lat="50.75254" lon="2.52332">
        <ele>36.721396</ele>
        <time>2020-06-06T20:47:34.641Z</time>
      </trkpt>
      <trkpt lat="50.75247" lon="2.52335">
        <ele>36.578613</ele>
        <time>2020-06-06T20:47:35.290Z</time>
      </trkpt>
      <trkpt lat="50.7514" lon="2.5237">
        <ele>34.295956</ele>
        <time>2020-06-06T20:47:47.274Z</time>
      </trkpt>
      <trkpt lat="50.75125" lon="2.52375">
        <ele>33.999089</ele>
        <time>2020-06-06T20:47:48.891Z</time>
      </trkpt>
      <trkpt lat="50.75118" lon="2.52377">
        <ele>33.853942</ele>
        <time>2020-06-06T20:47:49.714Z</time>
      </trkpt>
      <trkpt lat="50.75034" lon="2.52405">
        <ele>32.160557</ele>
        <time>2020-06-06T20:47:59.247Z</time>
      </trkpt>
      <trkpt lat="50.75004" lon="2.52415">
        <ele>31.740213</ele>
        <time>2020-06-06T20:48:02.659Z</time>
      </trkpt>
      <trkpt lat="50.74944" lon="2.52435">
        <ele>30.986423</ele>
        <time>2020-06-06T20:48:09.826Z</time>
      </trkpt>
      <trkpt lat="50.74678" lon="2.52523">
        <ele>28.341528</ele>
        <time>2020-06-06T20:48:43.640Z</time>
      </trkpt>
      <trkpt lat="50.74664" lon="2.52528">
        <ele>28.303593</ele>
        <time>2020-06-06T20:48:45.467Z</time>
      </trkpt>
      <trkpt lat="50.74661" lon="2.52529">
        <ele>28.2986</ele>
        <time>2020-06-06T20:48:45.849Z</time>
      </trkpt>
      <trkpt lat="50.74642" lon="2.52535">
        <ele>28.263115</ele>
        <time>2020-06-06T20:48:48.404Z</time>
      </trkpt>
      <trkpt lat="50.74407" lon="2.52613">
        <ele>28.39556</ele>
        <time>2020-06-06T20:49:24.081Z</time>
      </trkpt>
      <trkpt lat="50.74403" lon="2.52614">
        <ele>28.409204</ele>
        <time>2020-06-06T20:49:24.683Z</time>
      </trkpt>
      <trkpt lat="50.74391" lon="2.52617">
        <ele>28.460911</ele>
        <time>2020-06-06T20:49:26.913Z</time>
      </trkpt>
      <trkpt lat="50.74207" lon="2.52679">
        <ele>29.4752</ele>
        <time>2020-06-06T20:50:01.023Z</time>
      </trkpt>
      <trkpt lat="50.74205" lon="2.52679">
        <ele>29.488214</ele>
        <time>2020-06-06T20:50:01.817Z</time>
      </trkpt>
      <trkpt lat="50.74201" lon="2.52681">
        <ele>29.513713</ele>
        <time>2020-06-06T20:50:02.403Z</time>
      </trkpt>
      <trkpt lat="50.74136" lon="2.52716">
        <ele>29.825604</ele>
        <time>2020-06-06T20:50:13.380Z</time>
      </trkpt>
      <trkpt lat="50.74038" lon="2.52818">
        <ele>29.651654</ele>
        <time>2020-06-06T20:50:29.754Z</time>
      </trkpt>
      <trkpt lat="50.7403" lon="2.52827">
        <ele>29.638275</ele>
        <time>2020-06-06T20:50:30.904Z</time>
      </trkpt>
      <trkpt lat="50.74025" lon="2.52834">
        <ele>29.628303</ele>
        <time>2020-06-06T20:50:31.829Z</time>
      </trkpt>
      <trkpt lat="50.74001" lon="2.52878">
        <ele>29.58511</ele>
        <time>2020-06-06T20:50:37.132Z</time>
      </trkpt>
      <trkpt lat="50.74" lon="2.52881">
        <ele>29.586798</ele>
        <time>2020-06-06T20:50:37.378Z</time>
      </trkpt>
      <trkpt lat="50.73995" lon="2.52892">
        <ele>29.593774</ele>
        <time>2020-06-06T20:50:38.632Z</time>
      </trkpt>
      <trkpt lat="50.73955" lon="2.52993">
        <ele>29.658103</ele>
        <time>2020-06-06T20:50:49.786Z</time>
      </trkpt>
      <trkpt lat="50.73948" lon="2.53011">
        <ele>29.669957</ele>
        <time>2020-06-06T20:50:51.835Z</time>
      </trkpt>
      <trkpt lat="50.73923" lon="2.53071">
        <ele>29.708483</ele>
        <time>2020-06-06T20:50:58.935Z</time>
      </trkpt>
      <trkpt lat="50.73886" lon="2.53164">
        <ele>30.085561</ele>
        <time>2020-06-06T20:51:10.231Z</time>
      </trkpt>
      <trkpt lat="50.73862" lon="2.53207">
        <ele>30.404727</ele>
        <time>2020-06-06T20:51:16.748Z</time>
      </trkpt>
      <trkpt lat="50.73858" lon="2.53212">
        <ele>30.447404</ele>
        <time>2020-06-06T20:51:17.859Z</time>
      </trkpt>
      <trkpt lat="50.73853" lon="2.53218">
        <ele>30.502568</ele>
        <time>2020-06-06T20:51:18.832Z</time>
      </trkpt>
      <trkpt lat="50.73819" lon="2.53252">
        <ele>30.858418</ele>
        <time>2020-06-06T20:51:26.347Z</time>
      </trkpt>
      <trkpt lat="50.73804" lon="2.53267">
        <ele>31.019682</ele>
        <time>2020-06-06T20:51:29.729Z</time>
      </trkpt>
      <trkpt lat="50.7379" lon="2.5328">
        <ele>31.160663</ele>
        <time>2020-06-06T20:51:32.957Z</time>
      </trkpt>
      <trkpt lat="50.73775" lon="2.53293">
        <ele>31.30797</ele>
        <time>2020-06-06T20:51:35.981Z</time>
      </trkpt>
      <trkpt lat="50.73774" lon="2.53293">
        <ele>31.318674</ele>
        <time>2020-06-06T20:51:36.341Z</time>
      </trkpt>
      <trkpt lat="50.73766" lon="2.53299">
        <ele>31.472893</ele>
        <time>2020-06-06T20:51:38.392Z</time>
      </trkpt>
      <trkpt lat="50.73717" lon="2.53322">
        <ele>32.438343</ele>
        <time>2020-06-06T20:51:48.822Z</time>
      </trkpt>
      <trkpt lat="50.73539" lon="2.53359">
        <ele>35.539155</ele>
        <time>2020-06-06T20:52:31.112Z</time>
      </trkpt>
      <trkpt lat="50.73537" lon="2.53359">
        <ele>35.561427</ele>
        <time>2020-06-06T20:52:32.196Z</time>
      </trkpt>
      <trkpt lat="50.73538" lon="2.53357">
        <ele>35.576649</ele>
        <time>2020-06-06T20:52:32.387Z</time>
      </trkpt>
      <trkpt lat="50.73538" lon="2.53356">
        <ele>35.583691</ele>
        <time>2020-06-06T20:52:32.476Z</time>
      </trkpt>
      <trkpt lat="50.73537" lon="2.53351">
        <ele>35.627053</ele>
        <time>2020-06-06T20:52:33.039Z</time>
      </trkpt>
      <trkpt lat="50.73536" lon="2.53348">
        <ele>35.660557</ele>
        <time>2020-06-06T20:52:33.474Z</time>
      </trkpt>
      <trkpt lat="50.73529" lon="2.53343">
        <ele>35.766021</ele>
        <time>2020-06-06T20:52:34.848Z</time>
      </trkpt>
      <trkpt lat="50.73526" lon="2.53343">
        <ele>35.802568</ele>
        <time>2020-06-06T20:52:35.321Z</time>
      </trkpt>
      <trkpt lat="50.73524" lon="2.53345">
        <ele>35.83952</ele>
        <time>2020-06-06T20:52:35.832Z</time>
      </trkpt>
      <trkpt lat="50.73521" lon="2.53352">
        <ele>35.917777</ele>
        <time>2020-06-06T20:52:36.832Z</time>
      </trkpt>
      <trkpt lat="50.7352" lon="2.53355">
        <ele>35.93845</ele>
        <time>2020-06-06T20:52:37.118Z</time>
      </trkpt>
      <trkpt lat="50.73517" lon="2.53358">
        <ele>35.991962</ele>
        <time>2020-06-06T20:52:37.852Z</time>
      </trkpt>
      <trkpt lat="50.73507" lon="2.53366">
        <ele>36.146619</ele>
        <time>2020-06-06T20:52:40.534Z</time>
      </trkpt>
      <trkpt lat="50.73499" lon="2.53372">
        <ele>36.267621</ele>
        <time>2020-06-06T20:52:42.014Z</time>
      </trkpt>
      <trkpt lat="50.73494" lon="2.53375">
        <ele>36.341116</ele>
        <time>2020-06-06T20:52:42.953Z</time>
      </trkpt>
      <trkpt lat="50.73438" lon="2.53423">
        <ele>37.219428</ele>
        <time>2020-06-06T20:52:54.763Z</time>
      </trkpt>
      <trkpt lat="50.73413" lon="2.53445">
        <ele>37.197109</ele>
        <time>2020-06-06T20:52:59.591Z</time>
      </trkpt>
      <trkpt lat="50.73403" lon="2.53454">
        <ele>37.187821</ele>
        <time>2020-06-06T20:53:01.235Z</time>
      </trkpt>
      <trkpt lat="50.73394" lon="2.53462">
        <ele>37.179446</ele>
        <time>2020-06-06T20:53:02.669Z</time>
      </trkpt>
      <trkpt lat="50.73382" lon="2.53473">
        <ele>37.168683</ele>
        <time>2020-06-06T20:53:04.575Z</time>
      </trkpt>
      <trkpt lat="50.73337" lon="2.53513">
        <ele>37.127726</ele>
        <time>2020-06-06T20:53:11.689Z</time>
      </trkpt>
      <trkpt lat="50.73331" lon="2.5352">
        <ele>37.121908</ele>
        <time>2020-06-06T20:53:12.630Z</time>
      </trkpt>
      <trkpt lat="50.73331" lon="2.5352">
        <ele>37.121627</ele>
        <time>2020-06-06T20:53:12.677Z</time>
      </trkpt>
      <trkpt lat="50.73311" lon="2.53541">
        <ele>37.10283</ele>
        <time>2020-06-06T20:53:15.987Z</time>
      </trkpt>
      <trkpt lat="50.73299" lon="2.53555">
        <ele>37.090972</ele>
        <time>2020-06-06T20:53:17.966Z</time>
      </trkpt>
      <trkpt lat="50.73295" lon="2.53561">
        <ele>37.086615</ele>
        <time>2020-06-06T20:53:18.730Z</time>
      </trkpt>
      <trkpt lat="50.73213" lon="2.53655">
        <ele>36.863845</ele>
        <time>2020-06-06T20:53:32.698Z</time>
      </trkpt>
      <trkpt lat="50.73181" lon="2.537">
        <ele>36.763016</ele>
        <time>2020-06-06T20:53:38.807Z</time>
      </trkpt>
      <trkpt lat="50.73174" lon="2.5371">
        <ele>36.741263</ele>
        <time>2020-06-06T20:53:40.227Z</time>
      </trkpt>
      <trkpt lat="50.73166" lon="2.53721">
        <ele>36.715973</ele>
        <time>2020-06-06T20:53:41.709Z</time>
      </trkpt>
      <trkpt lat="50.73122" lon="2.53782">
        <ele>36.573351</ele>
        <time>2020-06-06T20:53:50.203Z</time>
      </trkpt>
      <trkpt lat="50.73099" lon="2.53815">
        <ele>36.496153</ele>
        <time>2020-06-06T20:53:54.520Z</time>
      </trkpt>
      <trkpt lat="50.73086" lon="2.53834">
        <ele>36.451371</ele>
        <time>2020-06-06T20:53:57.054Z</time>
      </trkpt>
      <trkpt lat="50.7302" lon="2.53917">
        <ele>36.239808</ele>
        <time>2020-06-06T20:54:08.614Z</time>
      </trkpt>
      <trkpt lat="50.73014" lon="2.53923">
        <ele>36.223148</ele>
        <time>2020-06-06T20:54:09.521Z</time>
      </trkpt>
      <trkpt lat="50.73014" lon="2.53922">
        <ele>36.220073</ele>
        <time>2020-06-06T20:54:09.674Z</time>
      </trkpt>
      <trkpt lat="50.73008" lon="2.53919">
        <ele>36.2052</ele>
        <time>2020-06-06T20:54:10.520Z</time>
      </trkpt>
      <trkpt lat="50.73007" lon="2.53919">
        <ele>36.202394</ele>
        <time>2020-06-06T20:54:10.724Z</time>
      </trkpt>
      <trkpt lat="50.73005" lon="2.53921">
        <ele>36.200719</ele>
        <time>2020-06-06T20:54:10.965Z</time>
      </trkpt>
      <trkpt lat="50.73003" lon="2.53932">
        <ele>36.193113</ele>
        <time>2020-06-06T20:54:12.066Z</time>
      </trkpt>
      <trkpt lat="50.73004" lon="2.53934">
        <ele>36.19149</ele>
        <time>2020-06-06T20:54:12.309Z</time>
      </trkpt>
      <trkpt lat="50.73001" lon="2.53937">
        <ele>36.18818</ele>
        <time>2020-06-06T20:54:12.716Z</time>
      </trkpt>
      <trkpt lat="50.7296" lon="2.53967">
        <ele>36.142466</ele>
        <time>2020-06-06T20:54:19.236Z</time>
      </trkpt>
      <trkpt lat="50.72954" lon="2.53972">
        <ele>36.135121</ele>
        <time>2020-06-06T20:54:20.219Z</time>
      </trkpt>
      <trkpt lat="50.72945" lon="2.53979">
        <ele>36.125353</ele>
        <time>2020-06-06T20:54:21.601Z</time>
      </trkpt>
      <trkpt lat="50.72926" lon="2.53993">
        <ele>36.104524</ele>
        <time>2020-06-06T20:54:24.601Z</time>
      </trkpt>
      <trkpt lat="50.72884" lon="2.54024">
        <ele>36.057102</ele>
        <time>2020-06-06T20:54:31.422Z</time>
      </trkpt>
      <trkpt lat="50.72855" lon="2.54046">
        <ele>36.024333</ele>
        <time>2020-06-06T20:54:36.340Z</time>
      </trkpt>
      <trkpt lat="50.72844" lon="2.54054">
        <ele>36.007085</ele>
        <time>2020-06-06T20:54:38.042Z</time>
      </trkpt>
      <trkpt lat="50.72834" lon="2.54062">
        <ele>35.988195</ele>
        <time>2020-06-06T20:54:39.819Z</time>
      </trkpt>
      <trkpt lat="50.72774" lon="2.54101">
        <ele>35.876796</ele>
        <time>2020-06-06T20:54:49.406Z</time>
      </trkpt>
      <trkpt lat="50.72769" lon="2.54101">
        <ele>35.868109</ele>
        <time>2020-06-06T20:54:50.184Z</time>
      </trkpt>
      <trkpt lat="50.72768" lon="2.54122">
        <ele>35.845107</ele>
        <time>2020-06-06T20:54:52.217Z</time>
      </trkpt>
      <trkpt lat="50.72764" lon="2.54232">
        <ele>35.726825</ele>
        <time>2020-06-06T20:55:01.356Z</time>
      </trkpt>
      <trkpt lat="50.72764" lon="2.54241">
        <ele>35.717652</ele>
        <time>2020-06-06T20:55:02.111Z</time>
      </trkpt>
      <trkpt lat="50.72757" lon="2.54238">
        <ele>35.716045</ele>
        <time>2020-06-06T20:55:03.054Z</time>
      </trkpt>
      <trkpt lat="50.72699" lon="2.5422">
        <ele>35.725555</ele>
        <time>2020-06-06T20:55:11.923Z</time>
      </trkpt>
      <trkpt lat="50.72687" lon="2.54213">
        <ele>35.727653</ele>
        <time>2020-06-06T20:55:13.721Z</time>
      </trkpt>
      <trkpt lat="50.72676" lon="2.5421">
        <ele>35.729524</ele>
        <time>2020-06-06T20:55:16.326Z</time>
      </trkpt>
      <trkpt lat="50.72673" lon="2.5421">
        <ele>35.729933</ele>
        <time>2020-06-06T20:55:16.585Z</time>
      </trkpt>
      <trkpt lat="50.72673" lon="2.54209">
        <ele>35.730064</ele>
        <time>2020-06-06T20:55:16.658Z</time>
      </trkpt>
      <trkpt lat="50.72665" lon="2.5422">
        <ele>35.731727</ele>
        <time>2020-06-06T20:55:18.157Z</time>
      </trkpt>
      <trkpt lat="50.72665" lon="2.54222">
        <ele>35.731895</ele>
        <time>2020-06-06T20:55:18.263Z</time>
      </trkpt>
      <trkpt lat="50.72666" lon="2.54223">
        <ele>35.732067</ele>
        <time>2020-06-06T20:55:18.507Z</time>
      </trkpt>
      <trkpt lat="50.72671" lon="2.5423">
        <ele>35.733165</ele>
        <time>2020-06-06T20:55:19.331Z</time>
      </trkpt>
      <trkpt lat="50.72672" lon="2.5423">
        <ele>35.733328</ele>
        <time>2020-06-06T20:55:19.535Z</time>
      </trkpt>
      <trkpt lat="50.72673" lon="2.54235">
        <ele>35.733886</ele>
        <time>2020-06-06T20:55:20.651Z</time>
      </trkpt>
      <trkpt lat="50.72701" lon="2.54333">
        <ele>35.73196</ele>
        <time>2020-06-06T20:55:30.072Z</time>
      </trkpt>
      <trkpt lat="50.72705" lon="2.54346">
        <ele>35.699793</ele>
        <time>2020-06-06T20:55:32.420Z</time>
      </trkpt>
      <trkpt lat="50.72707" lon="2.54354">
        <ele>35.680645</ele>
        <time>2020-06-06T20:55:33.137Z</time>
      </trkpt>
      <trkpt lat="50.7272" lon="2.54403">
        <ele>35.559783</ele>
        <time>2020-06-06T20:55:38.336Z</time>
      </trkpt>
      <trkpt lat="50.72725" lon="2.54419">
        <ele>35.521424</ele>
        <time>2020-06-06T20:55:39.640Z</time>
      </trkpt>
      <trkpt lat="50.72727" lon="2.54429">
        <ele>35.49856</ele>
        <time>2020-06-06T20:55:40.431Z</time>
      </trkpt>
      <trkpt lat="50.72737" lon="2.54466">
        <ele>35.407934</ele>
        <time>2020-06-06T20:55:45.194Z</time>
      </trkpt>
      <trkpt lat="50.72752" lon="2.54525">
        <ele>35.265702</ele>
        <time>2020-06-06T20:55:50.708Z</time>
      </trkpt>
      <trkpt lat="50.72754" lon="2.54531">
        <ele>35.249175</ele>
        <time>2020-06-06T20:55:51.213Z</time>
      </trkpt>
      <trkpt lat="50.72755" lon="2.54539">
        <ele>35.231733</ele>
        <time>2020-06-06T20:55:51.757Z</time>
      </trkpt>
      <trkpt lat="50.72769" lon="2.54597">
        <ele>35.027229</ele>
        <time>2020-06-06T20:55:56.695Z</time>
      </trkpt>
      <trkpt lat="50.72784" lon="2.54664">
        <ele>34.108141</ele>
        <time>2020-06-06T20:56:01.836Z</time>
      </trkpt>
      <trkpt lat="50.72796" lon="2.54718">
        <ele>33.369599</ele>
        <time>2020-06-06T20:56:05.702Z</time>
      </trkpt>
      <trkpt lat="50.72798" lon="2.54726">
        <ele>33.253842</ele>
        <time>2020-06-06T20:56:06.323Z</time>
      </trkpt>
      <trkpt lat="50.728" lon="2.54737">
        <ele>33.108415</ele>
        <time>2020-06-06T20:56:07.142Z</time>
      </trkpt>
      <trkpt lat="50.72803" lon="2.54749">
        <ele>32.94708</ele>
        <time>2020-06-06T20:56:07.945Z</time>
      </trkpt>
      <trkpt lat="50.72813" lon="2.54793">
        <ele>32.344348</ele>
        <time>2020-06-06T20:56:11.176Z</time>
      </trkpt>
      <trkpt lat="50.72819" lon="2.54823">
        <ele>31.940986</ele>
        <time>2020-06-06T20:56:13.272Z</time>
      </trkpt>
      <trkpt lat="50.72821" lon="2.54837">
        <ele>31.752799</ele>
        <time>2020-06-06T20:56:14.253Z</time>
      </trkpt>
      <trkpt lat="50.72827" lon="2.54868">
        <ele>31.331763</ele>
        <time>2020-06-06T20:56:16.459Z</time>
      </trkpt>
      <trkpt lat="50.72832" lon="2.54889">
        <ele>31.042182</ele>
        <time>2020-06-06T20:56:17.956Z</time>
      </trkpt>
      <trkpt lat="50.72839" lon="2.54921">
        <ele>30.601922</ele>
        <time>2020-06-06T20:56:20.279Z</time>
      </trkpt>
      <trkpt lat="50.72839" lon="2.54922">
        <ele>30.59314</ele>
        <time>2020-06-06T20:56:20.313Z</time>
      </trkpt>
      <trkpt lat="50.72864" lon="2.55032">
        <ele>29.076706</ele>
        <time>2020-06-06T20:56:28.423Z</time>
      </trkpt>
      <trkpt lat="50.72868" lon="2.55056">
        <ele>28.759221</ele>
        <time>2020-06-06T20:56:30.181Z</time>
      </trkpt>
      <trkpt lat="50.7287" lon="2.55072">
        <ele>28.544038</ele>
        <time>2020-06-06T20:56:31.356Z</time>
      </trkpt>
      <trkpt lat="50.72876" lon="2.55111">
        <ele>28.021428</ele>
        <time>2020-06-06T20:56:34.238Z</time>
      </trkpt>
      <trkpt lat="50.72877" lon="2.5512">
        <ele>27.905661</ele>
        <time>2020-06-06T20:56:34.855Z</time>
      </trkpt>
      <trkpt lat="50.72878" lon="2.55124">
        <ele>27.85793</ele>
        <time>2020-06-06T20:56:35.122Z</time>
      </trkpt>
      <trkpt lat="50.72879" lon="2.55129">
        <ele>27.787367</ele>
        <time>2020-06-06T20:56:35.528Z</time>
      </trkpt>
      <trkpt lat="50.72882" lon="2.55152">
        <ele>27.597714</ele>
        <time>2020-06-06T20:56:37.213Z</time>
      </trkpt>
      <trkpt lat="50.72889" lon="2.55197">
        <ele>27.261592</ele>
        <time>2020-06-06T20:56:40.658Z</time>
      </trkpt>
      <trkpt lat="50.72893" lon="2.55222">
        <ele>27.072573</ele>
        <time>2020-06-06T20:56:42.510Z</time>
      </trkpt>
      <trkpt lat="50.72898" lon="2.5526">
        <ele>26.781564</ele>
        <time>2020-06-06T20:56:45.464Z</time>
      </trkpt>
      <trkpt lat="50.72903" lon="2.55293">
        <ele>26.533386</ele>
        <time>2020-06-06T20:56:47.947Z</time>
      </trkpt>
      <trkpt lat="50.72912" lon="2.55356">
        <ele>26.057163</ele>
        <time>2020-06-06T20:56:53.134Z</time>
      </trkpt>
      <trkpt lat="50.72913" lon="2.55361">
        <ele>26.018389</ele>
        <time>2020-06-06T20:56:53.613Z</time>
      </trkpt>
      <trkpt lat="50.72913" lon="2.55361">
        <ele>26.015437</ele>
        <time>2020-06-06T20:56:53.637Z</time>
      </trkpt>
      <trkpt lat="50.72914" lon="2.55369">
        <ele>25.959778</ele>
        <time>2020-06-06T20:56:54.194Z</time>
      </trkpt>
      <trkpt lat="50.72922" lon="2.55421">
        <ele>25.606431</ele>
        <time>2020-06-06T20:56:58.653Z</time>
      </trkpt>
      <trkpt lat="50.72929" lon="2.55465">
        <ele>25.411618</ele>
        <time>2020-06-06T20:57:02.295Z</time>
      </trkpt>
      <trkpt lat="50.7293" lon="2.55467">
        <ele>25.401358</ele>
        <time>2020-06-06T20:57:02.576Z</time>
      </trkpt>
      <trkpt lat="50.72963" lon="2.55652">
        <ele>24.572295</ele>
        <time>2020-06-06T20:57:18.254Z</time>
      </trkpt>
      <trkpt lat="50.72965" lon="2.55659">
        <ele>24.540101</ele>
        <time>2020-06-06T20:57:18.865Z</time>
      </trkpt>
      <trkpt lat="50.72965" lon="2.5566">
        <ele>24.537557</ele>
        <time>2020-06-06T20:57:18.897Z</time>
      </trkpt>
      <trkpt lat="50.72983" lon="2.55731">
        <ele>24.26098</ele>
        <time>2020-06-06T20:57:25.364Z</time>
      </trkpt>
      <trkpt lat="50.72991" lon="2.55756">
        <ele>24.167459</ele>
        <time>2020-06-06T20:57:27.769Z</time>
      </trkpt>
      <trkpt lat="50.72999" lon="2.55777">
        <ele>24.090157</ele>
        <time>2020-06-06T20:57:29.661Z</time>
      </trkpt>
      <trkpt lat="50.73004" lon="2.5579">
        <ele>24.038955</ele>
        <time>2020-06-06T20:57:30.944Z</time>
      </trkpt>
      <trkpt lat="50.73007" lon="2.55797">
        <ele>24.009018</ele>
        <time>2020-06-06T20:57:31.706Z</time>
      </trkpt>
      <trkpt lat="50.73013" lon="2.55814">
        <ele>23.946239</ele>
        <time>2020-06-06T20:57:33.260Z</time>
      </trkpt>
      <trkpt lat="50.73013" lon="2.55815">
        <ele>23.94316</ele>
        <time>2020-06-06T20:57:33.329Z</time>
      </trkpt>
      <trkpt lat="50.7302" lon="2.55836">
        <ele>23.863871</ele>
        <time>2020-06-06T20:57:35.281Z</time>
      </trkpt>
      <trkpt lat="50.73045" lon="2.55927">
        <ele>23.536354</ele>
        <time>2020-06-06T20:57:43.595Z</time>
      </trkpt>
      <trkpt lat="50.73069" lon="2.56058">
        <ele>23.159605</ele>
        <time>2020-06-06T20:57:55.411Z</time>
      </trkpt>
      <trkpt lat="50.73071" lon="2.56069">
        <ele>23.128274</ele>
        <time>2020-06-06T20:57:56.308Z</time>
      </trkpt>
      <trkpt lat="50.73074" lon="2.5609">
        <ele>23.06915</ele>
        <time>2020-06-06T20:57:58.482Z</time>
      </trkpt>
      <trkpt lat="50.73079" lon="2.56125">
        <ele>22.971545</ele>
        <time>2020-06-06T20:58:01.540Z</time>
      </trkpt>
      <trkpt lat="50.73081" lon="2.5614">
        <ele>22.930014</ele>
        <time>2020-06-06T20:58:03.087Z</time>
      </trkpt>
      <trkpt lat="50.73083" lon="2.56159">
        <ele>22.877392</ele>
        <time>2020-06-06T20:58:04.904Z</time>
      </trkpt>
      <trkpt lat="50.73107" lon="2.56438">
        <ele>21.633038</ele>
        <time>2020-06-06T20:58:27.374Z</time>
      </trkpt>
      <trkpt lat="50.73109" lon="2.56451">
        <ele>21.570922</ele>
        <time>2020-06-06T20:58:28.320Z</time>
      </trkpt>
      <trkpt lat="50.73112" lon="2.56471">
        <ele>21.467811</ele>
        <time>2020-06-06T20:58:29.948Z</time>
      </trkpt>
      <trkpt lat="50.73126" lon="2.56539">
        <ele>21.362508</ele>
        <time>2020-06-06T20:58:36.053Z</time>
      </trkpt>
      <trkpt lat="50.73134" lon="2.56569">
        <ele>21.364662</ele>
        <time>2020-06-06T20:58:38.674Z</time>
      </trkpt>
      <trkpt lat="50.73138" lon="2.56582">
        <ele>21.365628</ele>
        <time>2020-06-06T20:58:39.943Z</time>
      </trkpt>
      <trkpt lat="50.73161" lon="2.56643">
        <ele>21.370288</ele>
        <time>2020-06-06T20:58:46.652Z</time>
      </trkpt>
      <trkpt lat="50.73162" lon="2.56647">
        <ele>21.37063</ele>
        <time>2020-06-06T20:58:47.287Z</time>
      </trkpt>
      <trkpt lat="50.73174" lon="2.56677">
        <ele>21.372976</ele>
        <time>2020-06-06T20:58:50.134Z</time>
      </trkpt>
      <trkpt lat="50.73179" lon="2.56695">
        <ele>21.374257</ele>
        <time>2020-06-06T20:58:52.613Z</time>
      </trkpt>
      <trkpt lat="50.73186" lon="2.56718">
        <ele>21.375936</ele>
        <time>2020-06-06T20:58:55.119Z</time>
      </trkpt>
      <trkpt lat="50.73187" lon="2.56745">
        <ele>21.37777</ele>
        <time>2020-06-06T20:58:58.532Z</time>
      </trkpt>
      <trkpt lat="50.73187" lon="2.56755">
        <ele>21.400299</ele>
        <time>2020-06-06T20:58:59.829Z</time>
      </trkpt>
      <trkpt lat="50.73183" lon="2.56763">
        <ele>21.445986</ele>
        <time>2020-06-06T20:59:00.767Z</time>
      </trkpt>
      <trkpt lat="50.73178" lon="2.5678">
        <ele>21.536119</ele>
        <time>2020-06-06T20:59:02.848Z</time>
      </trkpt>
      <trkpt lat="50.73177" lon="2.5679">
        <ele>21.5818</ele>
        <time>2020-06-06T20:59:04.069Z</time>
      </trkpt>
      <trkpt lat="50.73177" lon="2.56797">
        <ele>21.616992</ele>
        <time>2020-06-06T20:59:05.163Z</time>
      </trkpt>
      <trkpt lat="50.73181" lon="2.56818">
        <ele>21.721317</ele>
        <time>2020-06-06T20:59:07.998Z</time>
      </trkpt>
      <trkpt lat="50.7319" lon="2.56835">
        <ele>21.8266</ele>
        <time>2020-06-06T20:59:10.524Z</time>
      </trkpt>
      <trkpt lat="50.73194" lon="2.56839">
        <ele>21.861443</ele>
        <time>2020-06-06T20:59:11.548Z</time>
      </trkpt>
      <trkpt lat="50.73198" lon="2.56842">
        <ele>21.893575</ele>
        <time>2020-06-06T20:59:12.460Z</time>
      </trkpt>
      <trkpt lat="50.7321" lon="2.56847">
        <ele>21.988654</ele>
        <time>2020-06-06T20:59:14.943Z</time>
      </trkpt>
      <trkpt lat="50.73214" lon="2.56847">
        <ele>22.020975</ele>
        <time>2020-06-06T20:59:15.722Z</time>
      </trkpt>
      <trkpt lat="50.73223" lon="2.56853">
        <ele>22.089955</ele>
        <time>2020-06-06T20:59:17.320Z</time>
      </trkpt>
      <trkpt lat="50.73233" lon="2.5687">
        <ele>22.203075</ele>
        <time>2020-06-06T20:59:20.349Z</time>
      </trkpt>
      <trkpt lat="50.73239" lon="2.56889">
        <ele>22.302431</ele>
        <time>2020-06-06T20:59:22.514Z</time>
      </trkpt>
      <trkpt lat="50.73243" lon="2.56904">
        <ele>22.37901</ele>
        <time>2020-06-06T20:59:24.145Z</time>
      </trkpt>
      <trkpt lat="50.73248" lon="2.56919">
        <ele>22.462317</ele>
        <time>2020-06-06T20:59:26.237Z</time>
      </trkpt>
      <trkpt lat="50.73252" lon="2.56941">
        <ele>22.569773</ele>
        <time>2020-06-06T20:59:28.566Z</time>
      </trkpt>
      <trkpt lat="50.7326" lon="2.56989">
        <ele>22.719441</ele>
        <time>2020-06-06T20:59:33.720Z</time>
      </trkpt>
      <trkpt lat="50.73262" lon="2.57">
        <ele>22.71274</ele>
        <time>2020-06-06T20:59:34.796Z</time>
      </trkpt>
      <trkpt lat="50.7327" lon="2.57045">
        <ele>22.683757</ele>
        <time>2020-06-06T20:59:39.337Z</time>
      </trkpt>
      <trkpt lat="50.73291" lon="2.57218">
        <ele>22.57515</ele>
        <time>2020-06-06T20:59:54.813Z</time>
      </trkpt>
      <trkpt lat="50.73295" lon="2.57272">
        <ele>22.586308</ele>
        <time>2020-06-06T20:59:59.585Z</time>
      </trkpt>
      <trkpt lat="50.73296" lon="2.57297">
        <ele>22.624824</ele>
        <time>2020-06-06T21:00:01.824Z</time>
      </trkpt>
      <trkpt lat="50.73297" lon="2.57328">
        <ele>22.67434</ele>
        <time>2020-06-06T21:00:04.763Z</time>
      </trkpt>
      <trkpt lat="50.73298" lon="2.57376">
        <ele>22.748699</ele>
        <time>2020-06-06T21:00:09.253Z</time>
      </trkpt>
      <trkpt lat="50.73299" lon="2.57402">
        <ele>22.788197</ele>
        <time>2020-06-06T21:00:11.689Z</time>
      </trkpt>
      <trkpt lat="50.73298" lon="2.57462">
        <ele>22.881492</ele>
        <time>2020-06-06T21:00:17.867Z</time>
      </trkpt>
      <trkpt lat="50.73294" lon="2.57606">
        <ele>23.447794</ele>
        <time>2020-06-06T21:00:34.392Z</time>
      </trkpt>
      <trkpt lat="50.73292" lon="2.57671">
        <ele>23.866817</ele>
        <time>2020-06-06T21:00:42.361Z</time>
      </trkpt>
      <trkpt lat="50.7329" lon="2.57695">
        <ele>24.018604</ele>
        <time>2020-06-06T21:00:45.385Z</time>
      </trkpt>
      <trkpt lat="50.73288" lon="2.57721">
        <ele>24.190417</ele>
        <time>2020-06-06T21:00:48.428Z</time>
      </trkpt>
      <trkpt lat="50.73283" lon="2.57746">
        <ele>24.355711</ele>
        <time>2020-06-06T21:00:51.771Z</time>
      </trkpt>
      <trkpt lat="50.73274" lon="2.57782">
        <ele>24.605015</ele>
        <time>2020-06-06T21:00:56.399Z</time>
      </trkpt>
      <trkpt lat="50.7323" lon="2.5789">
        <ele>25.584272</ele>
        <time>2020-06-06T21:01:12.044Z</time>
      </trkpt>
      <trkpt lat="50.73222" lon="2.57918">
        <ele>25.833425</ele>
        <time>2020-06-06T21:01:15.555Z</time>
      </trkpt>
      <trkpt lat="50.73218" lon="2.57929">
        <ele>25.935575</ele>
        <time>2020-06-06T21:01:17.160Z</time>
      </trkpt>
      <trkpt lat="50.7319" lon="2.58032">
        <ele>26.846203</ele>
        <time>2020-06-06T21:01:31.366Z</time>
      </trkpt>
      <trkpt lat="50.73158" lon="2.58176">
        <ele>28.874038</ele>
        <time>2020-06-06T21:01:53.101Z</time>
      </trkpt>
      <trkpt lat="50.73156" lon="2.58188">
        <ele>29.066178</ele>
        <time>2020-06-06T21:01:55.185Z</time>
      </trkpt>
      <trkpt lat="50.73148" lon="2.58217">
        <ele>29.536928</ele>
        <time>2020-06-06T21:02:00.451Z</time>
      </trkpt>
      <trkpt lat="50.73124" lon="2.58299">
        <ele>30.88838</ele>
        <time>2020-06-06T21:02:14.993Z</time>
      </trkpt>
      <trkpt lat="50.73119" lon="2.58318">
        <ele>31.187956</ele>
        <time>2020-06-06T21:02:18.466Z</time>
      </trkpt>
      <trkpt lat="50.73117" lon="2.58338">
        <ele>31.452649</ele>
        <time>2020-06-06T21:02:21.725Z</time>
      </trkpt>
      <trkpt lat="50.73118" lon="2.58395">
        <ele>32.063284</ele>
        <time>2020-06-06T21:02:30.943Z</time>
      </trkpt>
      <trkpt lat="50.7312" lon="2.58424">
        <ele>32.373483</ele>
        <time>2020-06-06T21:02:35.841Z</time>
      </trkpt>
      <trkpt lat="50.73125" lon="2.5847">
        <ele>32.879777</ele>
        <time>2020-06-06T21:02:42.791Z</time>
      </trkpt>
      <trkpt lat="50.73128" lon="2.585">
        <ele>33.202016</ele>
        <time>2020-06-06T21:02:46.961Z</time>
      </trkpt>
      <trkpt lat="50.7313" lon="2.58515">
        <ele>33.369268</ele>
        <time>2020-06-06T21:02:48.859Z</time>
      </trkpt>
      <trkpt lat="50.73131" lon="2.58533">
        <ele>33.566667</ele>
        <time>2020-06-06T21:02:51.323Z</time>
      </trkpt>
      <trkpt lat="50.73132" lon="2.58552">
        <ele>33.771944</ele>
        <time>2020-06-06T21:02:53.763Z</time>
      </trkpt>
      <trkpt lat="50.73133" lon="2.58566">
        <ele>33.91993</ele>
        <time>2020-06-06T21:02:55.408Z</time>
      </trkpt>
      <trkpt lat="50.73132" lon="2.58626">
        <ele>34.308703</ele>
        <time>2020-06-06T21:03:01.517Z</time>
      </trkpt>
      <trkpt lat="50.7313" lon="2.58644">
        <ele>34.20621</ele>
        <time>2020-06-06T21:03:03.371Z</time>
      </trkpt>
      <trkpt lat="50.73129" lon="2.58652">
        <ele>34.160995</ele>
        <time>2020-06-06T21:03:04.128Z</time>
      </trkpt>
      <trkpt lat="50.73126" lon="2.58675">
        <ele>34.024707</ele>
        <time>2020-06-06T21:03:06.180Z</time>
      </trkpt>
      <trkpt lat="50.73122" lon="2.58716">
        <ele>33.788549</ele>
        <time>2020-06-06T21:03:09.566Z</time>
      </trkpt>
      <trkpt lat="50.73119" lon="2.58753">
        <ele>33.574786</ele>
        <time>2020-06-06T21:03:12.401Z</time>
      </trkpt>
      <trkpt lat="50.73121" lon="2.58806">
        <ele>33.26968</ele>
        <time>2020-06-06T21:03:16.442Z</time>
      </trkpt>
      <trkpt lat="50.73182" lon="2.59288">
        <ele>28.33676</ele>
        <time>2020-06-06T21:03:51.316Z</time>
      </trkpt>
      <trkpt lat="50.73206" lon="2.59523">
        <ele>26.465213</ele>
        <time>2020-06-06T21:04:08.988Z</time>
      </trkpt>
      <trkpt lat="50.73219" lon="2.59651">
        <ele>25.948101</ele>
        <time>2020-06-06T21:04:19.686Z</time>
      </trkpt>
      <trkpt lat="50.7324" lon="2.59896">
        <ele>25.686299</ele>
        <time>2020-06-06T21:04:42.934Z</time>
      </trkpt>
      <trkpt lat="50.73242" lon="2.59988">
        <ele>25.71935</ele>
        <time>2020-06-06T21:04:51.821Z</time>
      </trkpt>
      <trkpt lat="50.73237" lon="2.60023">
        <ele>25.754039</ele>
        <time>2020-06-06T21:04:55.357Z</time>
      </trkpt>
      <trkpt lat="50.7321" lon="2.60216">
        <ele>26.19481</ele>
        <time>2020-06-06T21:05:15.879Z</time>
      </trkpt>
      <trkpt lat="50.73199" lon="2.60294">
        <ele>26.368773</ele>
        <time>2020-06-06T21:05:24.331Z</time>
      </trkpt>
      <trkpt lat="50.7319" lon="2.60356">
        <ele>26.454606</ele>
        <time>2020-06-06T21:05:30.800Z</time>
      </trkpt>
      <trkpt lat="50.73177" lon="2.60448">
        <ele>26.581046</ele>
        <time>2020-06-06T21:05:40.196Z</time>
      </trkpt>
      <trkpt lat="50.73146" lon="2.60622">
        <ele>26.757419</ele>
        <time>2020-06-06T21:05:57.841Z</time>
      </trkpt>
      <trkpt lat="50.73132" lon="2.60708">
        <ele>26.774598</ele>
        <time>2020-06-06T21:06:05.899Z</time>
      </trkpt>
      <trkpt lat="50.73126" lon="2.60745">
        <ele>26.781903</ele>
        <time>2020-06-06T21:06:09.271Z</time>
      </trkpt>
      <trkpt lat="50.7308" lon="2.61039">
        <ele>27.111549</ele>
        <time>2020-06-06T21:06:39.050Z</time>
      </trkpt>
      <trkpt lat="50.73064" lon="2.61111">
        <ele>27.22772</ele>
        <time>2020-06-06T21:06:46.921Z</time>
      </trkpt>
      <trkpt lat="50.73043" lon="2.61214">
        <ele>27.72117</ele>
        <time>2020-06-06T21:06:58.479Z</time>
      </trkpt>
      <trkpt lat="50.73009" lon="2.61432">
        <ele>28.851402</ele>
        <time>2020-06-06T21:07:24.879Z</time>
      </trkpt>
      <trkpt lat="50.72978" lon="2.61631">
        <ele>30.195946</ele>
        <time>2020-06-06T21:07:49.842Z</time>
      </trkpt>
      <trkpt lat="50.72966" lon="2.61737">
        <ele>30.945881</ele>
        <time>2020-06-06T21:08:02.826Z</time>
      </trkpt>
      <trkpt lat="50.72959" lon="2.61824">
        <ele>31.575496</ele>
        <time>2020-06-06T21:08:13.316Z</time>
      </trkpt>
      <trkpt lat="50.72961" lon="2.61869">
        <ele>31.900575</ele>
        <time>2020-06-06T21:08:18.665Z</time>
      </trkpt>
      <trkpt lat="50.72969" lon="2.61912">
        <ele>32.222366</ele>
        <time>2020-06-06T21:08:24.069Z</time>
      </trkpt>
      <trkpt lat="50.73033" lon="2.62197">
        <ele>35.106521</ele>
        <time>2020-06-06T21:09:03.770Z</time>
      </trkpt>
      <trkpt lat="50.7303" lon="2.62244">
        <ele>35.832064</ele>
        <time>2020-06-06T21:09:10.861Z</time>
      </trkpt>
      <trkpt lat="50.73021" lon="2.62271">
        <ele>36.384331</ele>
        <time>2020-06-06T21:09:15.384Z</time>
      </trkpt>
      <trkpt lat="50.73005" lon="2.62304">
        <ele>37.134015</ele>
        <time>2020-06-06T21:09:22.040Z</time>
      </trkpt>
      <trkpt lat="50.72991" lon="2.62318">
        <ele>37.604544</ele>
        <time>2020-06-06T21:09:25.699Z</time>
      </trkpt>
      <trkpt lat="50.72983" lon="2.62325">
        <ele>37.86023</ele>
        <time>2020-06-06T21:09:28.845Z</time>
      </trkpt>
      <trkpt lat="50.72968" lon="2.6233">
        <ele>38.279943</ele>
        <time>2020-06-06T21:09:32.880Z</time>
      </trkpt>
      <trkpt lat="50.72951" lon="2.62338">
        <ele>38.778242</ele>
        <time>2020-06-06T21:09:37.396Z</time>
      </trkpt>
      <trkpt lat="50.72946" lon="2.62337">
        <ele>38.928662</ele>
        <time>2020-06-06T21:09:39.319Z</time>
      </trkpt>
      <trkpt lat="50.72943" lon="2.62334">
        <ele>39.027629</ele>
        <time>2020-06-06T21:09:40.312Z</time>
      </trkpt>
      <trkpt lat="50.7294" lon="2.62332">
        <ele>39.127228</ele>
        <time>2020-06-06T21:09:41.268Z</time>
      </trkpt>
      <trkpt lat="50.72935" lon="2.6233">
        <ele>39.263827</ele>
        <time>2020-06-06T21:09:42.592Z</time>
      </trkpt>
      <trkpt lat="50.72922" lon="2.62336">
        <ele>39.658902</ele>
        <time>2020-06-06T21:09:45.827Z</time>
      </trkpt>
      <trkpt lat="50.72919" lon="2.62342">
        <ele>39.792221</ele>
        <time>2020-06-06T21:09:47.528Z</time>
      </trkpt>
      <trkpt lat="50.72916" lon="2.62348">
        <ele>39.91801</ele>
        <time>2020-06-06T21:09:49.201Z</time>
      </trkpt>
      <trkpt lat="50.72915" lon="2.62354">
        <ele>40.044538</ele>
        <time>2020-06-06T21:09:50.546Z</time>
      </trkpt>
      <trkpt lat="50.72911" lon="2.62362">
        <ele>40.233698</ele>
        <time>2020-06-06T21:09:52.442Z</time>
      </trkpt>
      <trkpt lat="50.72905" lon="2.62373">
        <ele>40.527721</ele>
        <time>2020-06-06T21:09:54.616Z</time>
      </trkpt>
      <trkpt lat="50.72898" lon="2.62396">
        <ele>41.12993</ele>
        <time>2020-06-06T21:09:59.708Z</time>
      </trkpt>
      <trkpt lat="50.72894" lon="2.62412">
        <ele>41.542393</ele>
        <time>2020-06-06T21:10:03.014Z</time>
      </trkpt>
      <trkpt lat="50.72888" lon="2.62432">
        <ele>42.084754</ele>
        <time>2020-06-06T21:10:06.584Z</time>
      </trkpt>
      <trkpt lat="50.72879" lon="2.62456">
        <ele>42.728357</ele>
        <time>2020-06-06T21:10:12.685Z</time>
      </trkpt>
      <trkpt lat="50.72847" lon="2.62647">
        <ele>47.436417</ele>
        <time>2020-06-06T21:10:50.061Z</time>
      </trkpt>
      <trkpt lat="50.72828" lon="2.62753">
        <ele>49.962646</ele>
        <time>2020-06-06T21:11:11.471Z</time>
      </trkpt>
      <trkpt lat="50.7281" lon="2.62847">
        <ele>52.2041</ele>
        <time>2020-06-06T21:11:29.417Z</time>
      </trkpt>
      <trkpt lat="50.72795" lon="2.62923">
        <ele>53.899632</ele>
        <time>2020-06-06T21:11:43.834Z</time>
      </trkpt>
      <trkpt lat="50.72791" lon="2.62939">
        <ele>54.151084</ele>
        <time>2020-06-06T21:11:47.158Z</time>
      </trkpt>
      <trkpt lat="50.72756" lon="2.63095">
        <ele>56.59329</ele>
        <time>2020-06-06T21:12:13.959Z</time>
      </trkpt>
      <trkpt lat="50.72756" lon="2.63109">
        <ele>56.792801</ele>
        <time>2020-06-06T21:12:16.496Z</time>
      </trkpt>
      <trkpt lat="50.72785" lon="2.63201">
        <ele>57.823275</ele>
        <time>2020-06-06T21:12:28.273Z</time>
      </trkpt>
      <trkpt lat="50.72786" lon="2.63204">
        <ele>57.822913</ele>
        <time>2020-06-06T21:12:28.938Z</time>
      </trkpt>
      <trkpt lat="50.72717" lon="2.63243">
        <ele>57.810302</ele>
        <time>2020-06-06T21:12:40.339Z</time>
      </trkpt>
      <trkpt lat="50.72715" lon="2.63244">
        <ele>57.809931</ele>
        <time>2020-06-06T21:12:40.764Z</time>
      </trkpt>
      <trkpt lat="50.72703" lon="2.63251">
        <ele>57.80774</ele>
        <time>2020-06-06T21:12:42.441Z</time>
      </trkpt>
      <trkpt lat="50.72677" lon="2.63263">
        <ele>57.802973</ele>
        <time>2020-06-06T21:12:46.146Z</time>
      </trkpt>
      <trkpt lat="50.72665" lon="2.63269">
        <ele>57.800703</ele>
        <time>2020-06-06T21:12:47.774Z</time>
      </trkpt>
      <trkpt lat="50.72661" lon="2.63269">
        <ele>57.800043</ele>
        <time>2020-06-06T21:12:48.245Z</time>
      </trkpt>
      <trkpt lat="50.72637" lon="2.63328">
        <ele>57.591545</ele>
        <time>2020-06-06T21:12:53.743Z</time>
      </trkpt>
      <trkpt lat="50.72605" lon="2.63418">
        <ele>56.852471</ele>
        <time>2020-06-06T21:13:01.551Z</time>
      </trkpt>
      <trkpt lat="50.72576" lon="2.63494">
        <ele>56.221639</ele>
        <time>2020-06-06T21:13:08.316Z</time>
      </trkpt>
      <trkpt lat="50.72546" lon="2.63574">
        <ele>55.478671</ele>
        <time>2020-06-06T21:13:15.315Z</time>
      </trkpt>
      <trkpt lat="50.72505" lon="2.63657">
        <ele>54.422018</ele>
        <time>2020-06-06T21:13:23.133Z</time>
      </trkpt>
      <trkpt lat="50.72293" lon="2.64286">
        <ele>47.14124</ele>
        <time>2020-06-06T21:14:14.420Z</time>
      </trkpt>
      <trkpt lat="50.7227" lon="2.64328">
        <ele>46.618639</ele>
        <time>2020-06-06T21:14:18.322Z</time>
      </trkpt>
      <trkpt lat="50.72241" lon="2.64356">
        <ele>46.11718</ele>
        <time>2020-06-06T21:14:22.115Z</time>
      </trkpt>
      <trkpt lat="50.72145" lon="2.64406">
        <ele>44.610082</ele>
        <time>2020-06-06T21:14:33.946Z</time>
      </trkpt>
      <trkpt lat="50.72128" lon="2.64438">
        <ele>44.316146</ele>
        <time>2020-06-06T21:14:37.097Z</time>
      </trkpt>
      <trkpt lat="50.72111" lon="2.64493">
        <ele>44.008896</ele>
        <time>2020-06-06T21:14:41.829Z</time>
      </trkpt>
      <trkpt lat="50.72106" lon="2.64555">
        <ele>43.691192</ele>
        <time>2020-06-06T21:14:46.931Z</time>
      </trkpt>
      <trkpt lat="50.72114" lon="2.64613">
        <ele>43.39709</ele>
        <time>2020-06-06T21:14:51.752Z</time>
      </trkpt>
      <trkpt lat="50.72126" lon="2.64723">
        <ele>42.855866</ele>
        <time>2020-06-06T21:15:01.232Z</time>
      </trkpt>
      <trkpt lat="50.72124" lon="2.64925">
        <ele>41.989145</ele>
        <time>2020-06-06T21:15:17.632Z</time>
      </trkpt>
      <trkpt lat="50.72123" lon="2.64958">
        <ele>41.847481</ele>
        <time>2020-06-06T21:15:20.238Z</time>
      </trkpt>
      <trkpt lat="50.72116" lon="2.65057">
        <ele>41.297471</ele>
        <time>2020-06-06T21:15:28.257Z</time>
      </trkpt>
      <trkpt lat="50.72022" lon="2.6553">
        <ele>38.246566</ele>
        <time>2020-06-06T21:16:06.917Z</time>
      </trkpt>
      <trkpt lat="50.7201" lon="2.6559">
        <ele>37.708769</ele>
        <time>2020-06-06T21:16:11.714Z</time>
      </trkpt>
      <trkpt lat="50.71916" lon="2.66044">
        <ele>33.391731</ele>
        <time>2020-06-06T21:16:46.641Z</time>
      </trkpt>
      <trkpt lat="50.7191" lon="2.66055">
        <ele>33.242007</ele>
        <time>2020-06-06T21:16:47.724Z</time>
      </trkpt>
      <trkpt lat="50.71899" lon="2.66056">
        <ele>33.097525</ele>
        <time>2020-06-06T21:16:48.955Z</time>
      </trkpt>
      <trkpt lat="50.71722" lon="2.66012">
        <ele>30.691588</ele>
        <time>2020-06-06T21:17:10.078Z</time>
      </trkpt>
      <trkpt lat="50.71681" lon="2.66003">
        <ele>30.13823</ele>
        <time>2020-06-06T21:17:14.944Z</time>
      </trkpt>
      <trkpt lat="50.7166" lon="2.65999">
        <ele>29.8505</ele>
        <time>2020-06-06T21:17:17.430Z</time>
      </trkpt>
      <trkpt lat="50.71652" lon="2.66001">
        <ele>29.735938</ele>
        <time>2020-06-06T21:17:18.384Z</time>
      </trkpt>
      <trkpt lat="50.71645" lon="2.66013">
        <ele>29.591639</ele>
        <time>2020-06-06T21:17:19.717Z</time>
      </trkpt>
      <trkpt lat="50.7163" lon="2.66047">
        <ele>29.242218</ele>
        <time>2020-06-06T21:17:22.673Z</time>
      </trkpt>
      <trkpt lat="50.71626" lon="2.66055">
        <ele>29.149955</ele>
        <time>2020-06-06T21:17:23.558Z</time>
      </trkpt>
      <trkpt lat="50.71614" lon="2.66074">
        <ele>28.928361</ele>
        <time>2020-06-06T21:17:25.438Z</time>
      </trkpt>
      <trkpt lat="50.71589" lon="2.66111">
        <ele>28.456056</ele>
        <time>2020-06-06T21:17:29.479Z</time>
      </trkpt>
      <trkpt lat="50.71578" lon="2.66125">
        <ele>28.251034</ele>
        <time>2020-06-06T21:17:31.072Z</time>
      </trkpt>
      <trkpt lat="50.71565" lon="2.66143">
        <ele>27.998481</ele>
        <time>2020-06-06T21:17:33.063Z</time>
      </trkpt>
      <trkpt lat="50.71555" lon="2.66161">
        <ele>27.756238</ele>
        <time>2020-06-06T21:17:34.864Z</time>
      </trkpt>
      <trkpt lat="50.7155" lon="2.66173">
        <ele>27.624601</ele>
        <time>2020-06-06T21:17:35.935Z</time>
      </trkpt>
      <trkpt lat="50.71549" lon="2.6618">
        <ele>27.551947</ele>
        <time>2020-06-06T21:17:36.492Z</time>
      </trkpt>
      <trkpt lat="50.7153" lon="2.66335">
        <ele>26.044206</ele>
        <time>2020-06-06T21:17:47.901Z</time>
      </trkpt>
      <trkpt lat="50.71485" lon="2.66486">
        <ele>24.545284</ele>
        <time>2020-06-06T21:18:00.195Z</time>
      </trkpt>
      <trkpt lat="50.71438" lon="2.66706">
        <ele>22.715629</ele>
        <time>2020-06-06T21:18:17.475Z</time>
      </trkpt>
      <trkpt lat="50.71414" lon="2.66795">
        <ele>22.136579</ele>
        <time>2020-06-06T21:18:24.974Z</time>
      </trkpt>
      <trkpt lat="50.71382" lon="2.66903">
        <ele>21.436131</ele>
        <time>2020-06-06T21:18:34.659Z</time>
      </trkpt>
      <trkpt lat="50.71298" lon="2.67102">
        <ele>20.668593</ele>
        <time>2020-06-06T21:18:54.751Z</time>
      </trkpt>
      <trkpt lat="50.71271" lon="2.67164">
        <ele>20.567534</ele>
        <time>2020-06-06T21:19:01.238Z</time>
      </trkpt>
      <trkpt lat="50.71253" lon="2.67207">
        <ele>20.597865</ele>
        <time>2020-06-06T21:19:05.665Z</time>
      </trkpt>
      <trkpt lat="50.71135" lon="2.67435">
        <ele>21.306713</ele>
        <time>2020-06-06T21:19:35.784Z</time>
      </trkpt>
      <trkpt lat="50.7113" lon="2.67446">
        <ele>21.385337</ele>
        <time>2020-06-06T21:19:37.238Z</time>
      </trkpt>
      <trkpt lat="50.71125" lon="2.6746">
        <ele>21.485883</ele>
        <time>2020-06-06T21:19:39.415Z</time>
      </trkpt>
      <trkpt lat="50.71083" lon="2.67535">
        <ele>22.085047</ele>
        <time>2020-06-06T21:19:51.246Z</time>
      </trkpt>
      <trkpt lat="50.71037" lon="2.67624">
        <ele>23.079553</ele>
        <time>2020-06-06T21:20:07.062Z</time>
      </trkpt>
      <trkpt lat="50.71043" lon="2.67663">
        <ele>23.540726</ele>
        <time>2020-06-06T21:20:13.072Z</time>
      </trkpt>
      <trkpt lat="50.71047" lon="2.67691">
        <ele>23.860166</ele>
        <time>2020-06-06T21:20:17.190Z</time>
      </trkpt>
      <trkpt lat="50.71065" lon="2.67745">
        <ele>24.550168</ele>
        <time>2020-06-06T21:20:25.677Z</time>
      </trkpt>
      <trkpt lat="50.71081" lon="2.6779">
        <ele>25.133227</ele>
        <time>2020-06-06T21:20:32.805Z</time>
      </trkpt>
      <trkpt lat="50.71099" lon="2.67845">
        <ele>25.710288</ele>
        <time>2020-06-06T21:20:41.400Z</time>
      </trkpt>
      <trkpt lat="50.71121" lon="2.67959">
        <ele>26.29244</ele>
        <time>2020-06-06T21:20:58.318Z</time>
      </trkpt>
      <trkpt lat="50.71197" lon="2.68181">
        <ele>26.03591</ele>
        <time>2020-06-06T21:21:20.926Z</time>
      </trkpt>
      <trkpt lat="50.71201" lon="2.68193">
        <ele>25.911068</ele>
        <time>2020-06-06T21:21:21.976Z</time>
      </trkpt>
      <trkpt lat="50.71198" lon="2.68196">
        <ele>25.8653</ele>
        <time>2020-06-06T21:21:22.454Z</time>
      </trkpt>
      <trkpt lat="50.71196" lon="2.68198">
        <ele>25.825883</ele>
        <time>2020-06-06T21:21:22.842Z</time>
      </trkpt>
      <trkpt lat="50.71182" lon="2.68195">
        <ele>25.621108</ele>
        <time>2020-06-06T21:21:25.267Z</time>
      </trkpt>
      <trkpt lat="50.71162" lon="2.68192">
        <ele>25.339642</ele>
        <time>2020-06-06T21:21:28.301Z</time>
      </trkpt>
      <trkpt lat="50.71048" lon="2.68219">
        <ele>23.36005</ele>
        <time>2020-06-06T21:21:45.864Z</time>
      </trkpt>
      <trkpt lat="50.70871" lon="2.68319">
        <ele>19.883782</ele>
        <time>2020-06-06T21:22:15.781Z</time>
      </trkpt>
      <trkpt lat="50.70853" lon="2.68329">
        <ele>19.614075</ele>
        <time>2020-06-06T21:22:19.057Z</time>
      </trkpt>
      <trkpt lat="50.70801" lon="2.68362">
        <ele>18.836581</ele>
        <time>2020-06-06T21:22:28.443Z</time>
      </trkpt>
      <trkpt lat="50.70714" lon="2.68397">
        <ele>17.810002</ele>
        <time>2020-06-06T21:22:43.929Z</time>
      </trkpt>
      <trkpt lat="50.70667" lon="2.68426">
        <ele>17.361539</ele>
        <time>2020-06-06T21:22:52.865Z</time>
      </trkpt>
      <trkpt lat="50.70581" lon="2.68471">
        <ele>16.603827</ele>
        <time>2020-06-06T21:23:09.036Z</time>
      </trkpt>
      <trkpt lat="50.70463" lon="2.68534">
        <ele>16.248601</ele>
        <time>2020-06-06T21:23:32.402Z</time>
      </trkpt>
      <trkpt lat="50.70438" lon="2.68545">
        <ele>16.175646</ele>
        <time>2020-06-06T21:23:37.487Z</time>
      </trkpt>
      <trkpt lat="50.70249" lon="2.68626">
        <ele>16.422622</ele>
        <time>2020-06-06T21:24:19.108Z</time>
      </trkpt>
      <trkpt lat="50.70081" lon="2.6869">
        <ele>16.337962</ele>
        <time>2020-06-06T21:24:54.034Z</time>
      </trkpt>
      <trkpt lat="50.70012" lon="2.68713">
        <ele>16.250171</ele>
        <time>2020-06-06T21:25:07.584Z</time>
      </trkpt>
      <trkpt lat="50.69912" lon="2.6873">
        <ele>16.107887</ele>
        <time>2020-06-06T21:25:27.276Z</time>
      </trkpt>
      <trkpt lat="50.69852" lon="2.6873">
        <ele>16.093329</ele>
        <time>2020-06-06T21:25:39.373Z</time>
      </trkpt>
      <trkpt lat="50.69771" lon="2.68692">
        <ele>16.132894</ele>
        <time>2020-06-06T21:25:56.516Z</time>
      </trkpt>
      <trkpt lat="50.69692" lon="2.68654">
        <ele>16.190435</ele>
        <time>2020-06-06T21:26:13.566Z</time>
      </trkpt>
      <trkpt lat="50.69658" lon="2.6866">
        <ele>16.234439</ele>
        <time>2020-06-06T21:26:20.816Z</time>
      </trkpt>
      <trkpt lat="50.69747" lon="2.69045">
        <ele>16.628201</ele>
        <time>2020-06-06T21:27:15.158Z</time>
      </trkpt>
      <trkpt lat="50.69781" lon="2.6916">
        <ele>16.766664</ele>
        <time>2020-06-06T21:27:32.018Z</time>
      </trkpt>
      <trkpt lat="50.69804" lon="2.69285">
        <ele>16.909307</ele>
        <time>2020-06-06T21:27:49.344Z</time>
      </trkpt>
      <trkpt lat="50.6981" lon="2.69321">
        <ele>16.949701</ele>
        <time>2020-06-06T21:27:54.248Z</time>
      </trkpt>
      <trkpt lat="50.69815" lon="2.69349">
        <ele>16.981514</ele>
        <time>2020-06-06T21:27:58.084Z</time>
      </trkpt>
      <trkpt lat="50.69826" lon="2.69473">
        <ele>17.07219</ele>
        <time>2020-06-06T21:28:14.500Z</time>
      </trkpt>
      <trkpt lat="50.69825" lon="2.69549">
        <ele>17.120543</ele>
        <time>2020-06-06T21:28:24.519Z</time>
      </trkpt>
      <trkpt lat="50.69815" lon="2.69626">
        <ele>17.169982</ele>
        <time>2020-06-06T21:28:34.711Z</time>
      </trkpt>
      <trkpt lat="50.69811" lon="2.69712">
        <ele>17.204033</ele>
        <time>2020-06-06T21:28:45.937Z</time>
      </trkpt>
      <trkpt lat="50.69821" lon="2.698">
        <ele>17.228458</ele>
        <time>2020-06-06T21:28:57.594Z</time>
      </trkpt>
      <trkpt lat="50.6985" lon="2.69878">
        <ele>17.253292</ele>
        <time>2020-06-06T21:29:09.426Z</time>
      </trkpt>
      <trkpt lat="50.69994" lon="2.70174">
        <ele>17.002124</ele>
        <time>2020-06-06T21:29:56.807Z</time>
      </trkpt>
      <trkpt lat="50.7006" lon="2.70439">
        <ele>16.42474</ele>
        <time>2020-06-06T21:30:30.590Z</time>
      </trkpt>
      <trkpt lat="50.70107" lon="2.70595">
        <ele>16.088029</ele>
        <time>2020-06-06T21:30:51.428Z</time>
      </trkpt>
      <trkpt lat="50.70086" lon="2.70576">
        <ele>16.012306</ele>
        <time>2020-06-06T21:30:54.921Z</time>
      </trkpt>
      <trkpt lat="50.69883" lon="2.7072">
        <ele>15.923942</ele>
        <time>2020-06-06T21:31:27.910Z</time>
      </trkpt>
      <trkpt lat="50.69799" lon="2.7079">
        <ele>15.96879</ele>
        <time>2020-06-06T21:31:42.220Z</time>
      </trkpt>
      <trkpt lat="50.6966" lon="2.70905">
        <ele>16.059522</ele>
        <time>2020-06-06T21:32:05.527Z</time>
      </trkpt>
      <trkpt lat="50.69518" lon="2.70978">
        <ele>16.241764</ele>
        <time>2020-06-06T21:32:28.664Z</time>
      </trkpt>
      <trkpt lat="50.6944" lon="2.71033">
        <ele>16.407249</ele>
        <time>2020-06-06T21:32:42.094Z</time>
      </trkpt>
      <trkpt lat="50.69154" lon="2.71237">
        <ele>16.995551</ele>
        <time>2020-06-06T21:33:31.241Z</time>
      </trkpt>
      <trkpt lat="50.69099" lon="2.71279">
        <ele>17.071028</ele>
        <time>2020-06-06T21:33:40.566Z</time>
      </trkpt>
      <trkpt lat="50.69076" lon="2.71296">
        <ele>17.078396</ele>
        <time>2020-06-06T21:33:44.349Z</time>
      </trkpt>
      <trkpt lat="50.69075" lon="2.71332">
        <ele>17.057842</ele>
        <time>2020-06-06T21:33:49.002Z</time>
      </trkpt>
      <trkpt lat="50.69064" lon="2.71731">
        <ele>16.729019</ele>
        <time>2020-06-06T21:34:39.201Z</time>
      </trkpt>
      <trkpt lat="50.6906" lon="2.71848">
        <ele>16.591584</ele>
        <time>2020-06-06T21:34:53.380Z</time>
      </trkpt>
      <trkpt lat="50.69022" lon="2.72154">
        <ele>16.075084</ele>
        <time>2020-06-06T21:35:31.374Z</time>
      </trkpt>
      <trkpt lat="50.69021" lon="2.72163">
        <ele>16.067357</ele>
        <time>2020-06-06T21:35:32.536Z</time>
      </trkpt>
      <trkpt lat="50.69012" lon="2.72207">
        <ele>16.030138</ele>
        <time>2020-06-06T21:35:38.247Z</time>
      </trkpt>
      <trkpt lat="50.69013" lon="2.72245">
        <ele>15.998929</ele>
        <time>2020-06-06T21:35:43.034Z</time>
      </trkpt>
      <trkpt lat="50.69052" lon="2.72465">
        <ele>15.865458</ele>
        <time>2020-06-06T21:36:11.682Z</time>
      </trkpt>
      <trkpt lat="50.69059" lon="2.72591">
        <ele>15.861093</ele>
        <time>2020-06-06T21:36:28.030Z</time>
      </trkpt>
      <trkpt lat="50.69123" lon="2.72601">
        <ele>15.873128</ele>
        <time>2020-06-06T21:36:37.742Z</time>
      </trkpt>
      <trkpt lat="50.6914" lon="2.72608">
        <ele>15.908712</ele>
        <time>2020-06-06T21:36:40.414Z</time>
      </trkpt>
      <trkpt lat="50.6915" lon="2.72622">
        <ele>15.936968</ele>
        <time>2020-06-06T21:36:42.539Z</time>
      </trkpt>
      <trkpt lat="50.69219" lon="2.72946">
        <ele>16.378316</ele>
        <time>2020-06-06T21:37:16.723Z</time>
      </trkpt>
      <trkpt lat="50.69322" lon="2.73253">
        <ele>16.786071</ele>
        <time>2020-06-06T21:37:51.219Z</time>
      </trkpt>
      <trkpt lat="50.69339" lon="2.73295">
        <ele>16.839509</ele>
        <time>2020-06-06T21:37:56.107Z</time>
      </trkpt>
      <trkpt lat="50.69446" lon="2.73545">
        <ele>16.932198</ele>
        <time>2020-06-06T21:38:24.865Z</time>
      </trkpt>
      <trkpt lat="50.69472" lon="2.73632">
        <ele>16.91983</ele>
        <time>2020-06-06T21:38:33.510Z</time>
      </trkpt>
      <trkpt lat="50.69496" lon="2.73728">
        <ele>16.890613</ele>
        <time>2020-06-06T21:38:43.130Z</time>
      </trkpt>
      <trkpt lat="50.69502" lon="2.73748">
        <ele>16.884584</ele>
        <time>2020-06-06T21:38:45.098Z</time>
      </trkpt>
      <trkpt lat="50.69513" lon="2.73784">
        <ele>16.873335</ele>
        <time>2020-06-06T21:38:48.907Z</time>
      </trkpt>
      <trkpt lat="50.69553" lon="2.73907">
        <ele>16.976591</ele>
        <time>2020-06-06T21:39:02.333Z</time>
      </trkpt>
      <trkpt lat="50.69571" lon="2.74021">
        <ele>17.147565</ele>
        <time>2020-06-06T21:39:14.354Z</time>
      </trkpt>
      <trkpt lat="50.6963" lon="2.74195">
        <ele>17.290585</ele>
        <time>2020-06-06T21:39:34.163Z</time>
      </trkpt>
      <trkpt lat="50.69638" lon="2.74222">
        <ele>17.295857</ele>
        <time>2020-06-06T21:39:37.121Z</time>
      </trkpt>
      <trkpt lat="50.69644" lon="2.74245">
        <ele>17.300315</ele>
        <time>2020-06-06T21:39:39.468Z</time>
      </trkpt>
      <trkpt lat="50.69664" lon="2.74387">
        <ele>17.267129</ele>
        <time>2020-06-06T21:39:52.647Z</time>
      </trkpt>
      <trkpt lat="50.69688" lon="2.7452">
        <ele>17.01168</ele>
        <time>2020-06-06T21:40:04.413Z</time>
      </trkpt>
      <trkpt lat="50.69728" lon="2.74858">
        <ele>16.574509</ele>
        <time>2020-06-06T21:40:34.852Z</time>
      </trkpt>
      <trkpt lat="50.69732" lon="2.74893">
        <ele>16.539614</ele>
        <time>2020-06-06T21:40:38.232Z</time>
      </trkpt>
      <trkpt lat="50.69733" lon="2.74925">
        <ele>16.533809</ele>
        <time>2020-06-06T21:40:41.659Z</time>
      </trkpt>
      <trkpt lat="50.69732" lon="2.74961">
        <ele>16.583636</ele>
        <time>2020-06-06T21:40:45.087Z</time>
      </trkpt>
      <trkpt lat="50.69728" lon="2.75003">
        <ele>16.643505</ele>
        <time>2020-06-06T21:40:49.379Z</time>
      </trkpt>
      <trkpt lat="50.69725" lon="2.75026">
        <ele>16.677289</ele>
        <time>2020-06-06T21:40:51.943Z</time>
      </trkpt>
      <trkpt lat="50.69708" lon="2.75105">
        <ele>16.795036</ele>
        <time>2020-06-06T21:41:00.511Z</time>
      </trkpt>
      <trkpt lat="50.69481" lon="2.75581">
        <ele>16.959018</ele>
        <time>2020-06-06T21:41:57.419Z</time>
      </trkpt>
      <trkpt lat="50.69461" lon="2.75627">
        <ele>16.942469</ele>
        <time>2020-06-06T21:42:02.356Z</time>
      </trkpt>
      <trkpt lat="50.6949" lon="2.75649">
        <ele>16.834281</ele>
        <time>2020-06-06T21:42:06.751Z</time>
      </trkpt>
      <trkpt lat="50.69525" lon="2.7567">
        <ele>16.699065</ele>
        <time>2020-06-06T21:42:11.847Z</time>
      </trkpt>
      <trkpt lat="50.69554" lon="2.7569">
        <ele>16.584345</ele>
        <time>2020-06-06T21:42:16.122Z</time>
      </trkpt>
      <trkpt lat="50.69593" lon="2.75726">
        <ele>16.418909</ele>
        <time>2020-06-06T21:42:22.299Z</time>
      </trkpt>
      <trkpt lat="50.69622" lon="2.75767">
        <ele>16.282425</ele>
        <time>2020-06-06T21:42:27.570Z</time>
      </trkpt>
      <trkpt lat="50.69679" lon="2.75891">
        <ele>16.038692</ele>
        <time>2020-06-06T21:42:40.745Z</time>
      </trkpt>
      <trkpt lat="50.69708" lon="2.75963">
        <ele>15.902405</ele>
        <time>2020-06-06T21:42:48.452Z</time>
      </trkpt>
      <trkpt lat="50.6974" lon="2.76012">
        <ele>15.849145</ele>
        <time>2020-06-06T21:42:55.024Z</time>
      </trkpt>
      <trkpt lat="50.69809" lon="2.76095">
        <ele>15.900345</ele>
        <time>2020-06-06T21:43:08.202Z</time>
      </trkpt>
      <trkpt lat="50.69821" lon="2.76183">
        <ele>15.934166</ele>
        <time>2020-06-06T21:43:16.915Z</time>
      </trkpt>
      <trkpt lat="50.69822" lon="2.76195">
        <ele>15.938538</ele>
        <time>2020-06-06T21:43:18.069Z</time>
      </trkpt>
      <trkpt lat="50.69854" lon="2.7648">
        <ele>16.208204</ele>
        <time>2020-06-06T21:43:46.245Z</time>
      </trkpt>
      <trkpt lat="50.69892" lon="2.76718">
        <ele>16.647109</ele>
        <time>2020-06-06T21:44:10.784Z</time>
      </trkpt>
      <trkpt lat="50.69911" lon="2.76843">
        <ele>16.945344</ele>
        <time>2020-06-06T21:44:24.873Z</time>
      </trkpt>
      <trkpt lat="50.6992" lon="2.76902">
        <ele>17.1045</ele>
        <time>2020-06-06T21:44:31.651Z</time>
      </trkpt>
      <trkpt lat="50.6992" lon="2.76902">
        <ele>17.1045</ele>
        <time>2020-06-06T21:44:31.653Z</time>
      </trkpt>
      <trkpt lat="50.6992" lon="2.76902">
        <ele>17.1045</ele>
        <time>2020-06-06T21:44:31.672Z</time>
      </trkpt>
      <trkpt lat="50.69933" lon="2.76983">
        <ele>17.32203</ele>
        <time>2020-06-06T21:44:40.392Z</time>
      </trkpt>
      <trkpt lat="50.69934" lon="2.76991">
        <ele>17.343534</ele>
        <time>2020-06-06T21:44:41.370Z</time>
      </trkpt>
      <trkpt lat="50.69944" lon="2.77042">
        <ele>17.470281</ele>
        <time>2020-06-06T21:44:46.476Z</time>
      </trkpt>
      <trkpt lat="50.69933" lon="2.7706">
        <ele>17.419326</ele>
        <time>2020-06-06T21:44:49.772Z</time>
      </trkpt>
      <trkpt lat="50.69908" lon="2.77139">
        <ele>17.232765</ele>
        <time>2020-06-06T21:45:00.509Z</time>
      </trkpt>
      <trkpt lat="50.699" lon="2.77163">
        <ele>17.176841</ele>
        <time>2020-06-06T21:45:03.647Z</time>
      </trkpt>
      <trkpt lat="50.69891" lon="2.77185">
        <ele>17.1229</ele>
        <time>2020-06-06T21:45:06.631Z</time>
      </trkpt>
      <trkpt lat="50.69857" lon="2.77287">
        <ele>16.884105</ele>
        <time>2020-06-06T21:45:20.259Z</time>
      </trkpt>
      <trkpt lat="50.69855" lon="2.77293">
        <ele>16.898613</ele>
        <time>2020-06-06T21:45:21.046Z</time>
      </trkpt>
      <trkpt lat="50.69855" lon="2.77293">
        <ele>16.898613</ele>
        <time>2020-06-06T21:45:21.052Z</time>
      </trkpt>
      <trkpt lat="50.69881" lon="2.77322">
        <ele>17.001019</ele>
        <time>2020-06-06T21:45:25.801Z</time>
      </trkpt>
      <trkpt lat="50.69908" lon="2.7735">
        <ele>17.105933</ele>
        <time>2020-06-06T21:45:30.652Z</time>
      </trkpt>
      <trkpt lat="50.69924" lon="2.77368">
        <ele>17.167353</ele>
        <time>2020-06-06T21:45:33.612Z</time>
      </trkpt>
      <trkpt lat="50.69956" lon="2.77406">
        <ele>17.294986</ele>
        <time>2020-06-06T21:45:40.378Z</time>
      </trkpt>
      <trkpt lat="50.69978" lon="2.77431">
        <ele>17.384496</ele>
        <time>2020-06-06T21:45:44.962Z</time>
      </trkpt>
      <trkpt lat="50.69983" lon="2.77437">
        <ele>17.40429</ele>
        <time>2020-06-06T21:45:46.251Z</time>
      </trkpt>
      <trkpt lat="50.70004" lon="2.77452">
        <ele>17.508327</ele>
        <time>2020-06-06T21:45:50.361Z</time>
      </trkpt>
      <trkpt lat="50.70038" lon="2.77475">
        <ele>17.877762</ele>
        <time>2020-06-06T21:45:57.641Z</time>
      </trkpt>
      <trkpt lat="50.70067" lon="2.77502">
        <ele>18.212242</ele>
        <time>2020-06-06T21:46:04.365Z</time>
      </trkpt>
      <trkpt lat="50.70051" lon="2.77581">
        <ele>18.728293</ele>
        <time>2020-06-06T21:46:17.391Z</time>
      </trkpt>
      <trkpt lat="50.70046" lon="2.77613">
        <ele>18.93967</ele>
        <time>2020-06-06T21:46:22.672Z</time>
      </trkpt>
      <trkpt lat="50.70044" lon="2.77636">
        <ele>19.085762</ele>
        <time>2020-06-06T21:46:26.119Z</time>
      </trkpt>
      <trkpt lat="50.70042" lon="2.77652">
        <ele>19.188649</ele>
        <time>2020-06-06T21:46:28.491Z</time>
      </trkpt>
      <trkpt lat="50.70041" lon="2.77659">
        <ele>19.234329</ele>
        <time>2020-06-06T21:46:29.576Z</time>
      </trkpt>
      <trkpt lat="50.70072" lon="2.77681">
        <ele>19.332123</ele>
        <time>2020-06-06T21:46:37.187Z</time>
      </trkpt>
      <trkpt lat="50.70099" lon="2.77707">
        <ele>19.409572</ele>
        <time>2020-06-06T21:46:43.977Z</time>
      </trkpt>
      <trkpt lat="50.70082" lon="2.77785">
        <ele>19.536963</ele>
        <time>2020-06-06T21:46:55.066Z</time>
      </trkpt>
      <trkpt lat="50.70076" lon="2.77812">
        <ele>19.581769</ele>
        <time>2020-06-06T21:46:58.878Z</time>
      </trkpt>
      <trkpt lat="50.70141" lon="2.77865">
        <ele>19.487432</ele>
        <time>2020-06-06T21:47:13.357Z</time>
      </trkpt>
      <trkpt lat="50.70147" lon="2.7787">
        <ele>19.432522</ele>
        <time>2020-06-06T21:47:14.727Z</time>
      </trkpt>
      <trkpt lat="50.7014" lon="2.77887">
        <ele>19.337272</ele>
        <time>2020-06-06T21:47:16.546Z</time>
      </trkpt>
      <trkpt lat="50.701" lon="2.78044">
        <ele>18.539631</ele>
        <time>2020-06-06T21:47:29.933Z</time>
      </trkpt>
      <trkpt lat="50.70078" lon="2.78127">
        <ele>17.979064</ele>
        <time>2020-06-06T21:47:36.725Z</time>
      </trkpt>
      <trkpt lat="50.70043" lon="2.78265">
        <ele>16.876204</ele>
        <time>2020-06-06T21:47:47.828Z</time>
      </trkpt>
      <trkpt lat="50.70019" lon="2.78368">
        <ele>16.17268</ele>
        <time>2020-06-06T21:47:56.122Z</time>
      </trkpt>
      <trkpt lat="50.70021" lon="2.78626">
        <ele>15.413844</ele>
        <time>2020-06-06T21:48:18.370Z</time>
      </trkpt>
      <trkpt lat="50.70022" lon="2.78721">
        <ele>15.380778</ele>
        <time>2020-06-06T21:48:27.401Z</time>
      </trkpt>
      <trkpt lat="50.70023" lon="2.78841">
        <ele>15.340668</ele>
        <time>2020-06-06T21:48:38.679Z</time>
      </trkpt>
      <trkpt lat="50.70019" lon="2.78955">
        <ele>15.35004</ele>
        <time>2020-06-06T21:48:49.491Z</time>
      </trkpt>
      <trkpt lat="50.69992" lon="2.79121">
        <ele>15.475057</ele>
        <time>2020-06-06T21:49:05.887Z</time>
      </trkpt>
      <trkpt lat="50.6999" lon="2.79129">
        <ele>15.481155</ele>
        <time>2020-06-06T21:49:06.893Z</time>
      </trkpt>
      <trkpt lat="50.69987" lon="2.79243">
        <ele>15.572403</ele>
        <time>2020-06-06T21:49:18.006Z</time>
      </trkpt>
      <trkpt lat="50.69989" lon="2.79252">
        <ele>15.580745</ele>
        <time>2020-06-06T21:49:19.119Z</time>
      </trkpt>
      <trkpt lat="50.69965" lon="2.79257">
        <ele>15.614022</ele>
        <time>2020-06-06T21:49:23.840Z</time>
      </trkpt>
      <trkpt lat="50.69942" lon="2.79274">
        <ele>15.64918</ele>
        <time>2020-06-06T21:49:29.385Z</time>
      </trkpt>
      <trkpt lat="50.69929" lon="2.79296">
        <ele>15.675477</ele>
        <time>2020-06-06T21:49:33.581Z</time>
      </trkpt>
      <trkpt lat="50.69912" lon="2.79319">
        <ele>15.706917</ele>
        <time>2020-06-06T21:49:38.286Z</time>
      </trkpt>
      <trkpt lat="50.69825" lon="2.79401">
        <ele>15.751563</ele>
        <time>2020-06-06T21:49:58.849Z</time>
      </trkpt>
      <trkpt lat="50.69795" lon="2.79439">
        <ele>15.735937</ele>
        <time>2020-06-06T21:50:06.434Z</time>
      </trkpt>
      <trkpt lat="50.69763" lon="2.79525">
        <ele>15.710104</ele>
        <time>2020-06-06T21:50:19.135Z</time>
      </trkpt>
      <trkpt lat="50.69699" lon="2.79654">
        <ele>15.700013</ele>
        <time>2020-06-06T21:50:39.988Z</time>
      </trkpt>
      <trkpt lat="50.69662" lon="2.79691">
        <ele>15.700008</ele>
        <time>2020-06-06T21:50:48.863Z</time>
      </trkpt>
      <trkpt lat="50.69649" lon="2.79722">
        <ele>15.700005</ele>
        <time>2020-06-06T21:50:53.634Z</time>
      </trkpt>
      <trkpt lat="50.69643" lon="2.79756">
        <ele>15.700002</ele>
        <time>2020-06-06T21:50:58.245Z</time>
      </trkpt>
      <trkpt lat="50.6964" lon="2.79827">
        <ele>15.699493</ele>
        <time>2020-06-06T21:51:07.337Z</time>
      </trkpt>
      <trkpt lat="50.69621" lon="2.79857">
        <ele>15.699089</ele>
        <time>2020-06-06T21:51:12.778Z</time>
      </trkpt>
      <trkpt lat="50.69575" lon="2.8">
        <ele>15.69755</ele>
        <time>2020-06-06T21:51:33.265Z</time>
      </trkpt>
      <trkpt lat="50.69548" lon="2.79979">
        <ele>15.693258</ele>
        <time>2020-06-06T21:51:39.247Z</time>
      </trkpt>
      <trkpt lat="50.69511" lon="2.79981">
        <ele>15.680246</ele>
        <time>2020-06-06T21:51:46.648Z</time>
      </trkpt>
      <trkpt lat="50.69345" lon="2.80062">
        <ele>15.65848</ele>
        <time>2020-06-06T21:52:21.646Z</time>
      </trkpt>
      <trkpt lat="50.69145" lon="2.8012">
        <ele>15.816725</ele>
        <time>2020-06-06T21:53:03.569Z</time>
      </trkpt>
      <trkpt lat="50.69016" lon="2.80196">
        <ele>15.972293</ele>
        <time>2020-06-06T21:53:32.450Z</time>
      </trkpt>
      <trkpt lat="50.6889" lon="2.80259">
        <ele>16.058257</ele>
        <time>2020-06-06T21:53:59.666Z</time>
      </trkpt>
      <trkpt lat="50.68865" lon="2.80263">
        <ele>16.071409</ele>
        <time>2020-06-06T21:54:04.620Z</time>
      </trkpt>
      <trkpt lat="50.68854" lon="2.80264">
        <ele>16.052881</ele>
        <time>2020-06-06T21:54:06.901Z</time>
      </trkpt>
      <trkpt lat="50.68676" lon="2.80337">
        <ele>15.711008</ele>
        <time>2020-06-06T21:54:42.691Z</time>
      </trkpt>
      <trkpt lat="50.68594" lon="2.8037">
        <ele>15.34844</ele>
        <time>2020-06-06T21:54:58.524Z</time>
      </trkpt>
      <trkpt lat="50.68543" lon="2.80411">
        <ele>15.102544</ele>
        <time>2020-06-06T21:55:09.160Z</time>
      </trkpt>
      <trkpt lat="50.68444" lon="2.80489">
        <ele>14.788863</ele>
        <time>2020-06-06T21:55:29.726Z</time>
      </trkpt>
      <trkpt lat="50.68255" lon="2.8068">
        <ele>14.578512</ele>
        <time>2020-06-06T21:56:14.935Z</time>
      </trkpt>
      <trkpt lat="50.6817" lon="2.80831">
        <ele>14.746954</ele>
        <time>2020-06-06T21:56:41.714Z</time>
      </trkpt>
      <trkpt lat="50.68165" lon="2.80839">
        <ele>14.761145</ele>
        <time>2020-06-06T21:56:43.332Z</time>
      </trkpt>
      <trkpt lat="50.68211" lon="2.80896">
        <ele>14.876435</ele>
        <time>2020-06-06T21:56:52.334Z</time>
      </trkpt>
      <trkpt lat="50.68241" lon="2.80941">
        <ele>14.964793</ele>
        <time>2020-06-06T21:56:58.808Z</time>
      </trkpt>
      <trkpt lat="50.68252" lon="2.80961">
        <ele>15.011531</ele>
        <time>2020-06-06T21:57:01.599Z</time>
      </trkpt>
      <trkpt lat="50.68262" lon="2.80977">
        <ele>15.048561</ele>
        <time>2020-06-06T21:57:03.690Z</time>
      </trkpt>
      <trkpt lat="50.68308" lon="2.8109">
        <ele>15.279527</ele>
        <time>2020-06-06T21:57:17.176Z</time>
      </trkpt>
      <trkpt lat="50.68376" lon="2.81341">
        <ele>15.806892</ele>
        <time>2020-06-06T21:57:45.763Z</time>
      </trkpt>
      <trkpt lat="50.68404" lon="2.81436">
        <ele>16.002056</ele>
        <time>2020-06-06T21:57:56.159Z</time>
      </trkpt>
      <trkpt lat="50.68453" lon="2.81604">
        <ele>15.891913</ele>
        <time>2020-06-06T21:58:13.197Z</time>
      </trkpt>
      <trkpt lat="50.68463" lon="2.81638">
        <ele>15.869647</ele>
        <time>2020-06-06T21:58:16.551Z</time>
      </trkpt>
      <trkpt lat="50.68505" lon="2.81782">
        <ele>15.746703</ele>
        <time>2020-06-06T21:58:30.565Z</time>
      </trkpt>
      <trkpt lat="50.68514" lon="2.81818">
        <ele>15.713129</ele>
        <time>2020-06-06T21:58:34.032Z</time>
      </trkpt>
      <trkpt lat="50.68522" lon="2.8185">
        <ele>15.682887</ele>
        <time>2020-06-06T21:58:37.233Z</time>
      </trkpt>
      <trkpt lat="50.68524" lon="2.81954">
        <ele>15.591782</ele>
        <time>2020-06-06T21:58:46.859Z</time>
      </trkpt>
      <trkpt lat="50.68532" lon="2.82008">
        <ele>15.5732</ele>
        <time>2020-06-06T21:58:52.027Z</time>
      </trkpt>
      <trkpt lat="50.6855" lon="2.82136">
        <ele>15.533093</ele>
        <time>2020-06-06T21:59:04.345Z</time>
      </trkpt>
      <trkpt lat="50.68581" lon="2.82309">
        <ele>15.534771</ele>
        <time>2020-06-06T21:59:20.981Z</time>
      </trkpt>
      <trkpt lat="50.68583" lon="2.82436">
        <ele>15.586747</ele>
        <time>2020-06-06T21:59:33.157Z</time>
      </trkpt>
      <trkpt lat="50.68586" lon="2.82571">
        <ele>15.655298</ele>
        <time>2020-06-06T21:59:46.507Z</time>
      </trkpt>
      <trkpt lat="50.68592" lon="2.82678">
        <ele>15.723727</ele>
        <time>2020-06-06T21:59:57.072Z</time>
      </trkpt>
      <trkpt lat="50.68587" lon="2.82797">
        <ele>15.799116</ele>
        <time>2020-06-06T22:00:08.545Z</time>
      </trkpt>
      <trkpt lat="50.68602" lon="2.8292">
        <ele>15.805184</ele>
        <time>2020-06-06T22:00:20.163Z</time>
      </trkpt>
      <trkpt lat="50.68612" lon="2.83055">
        <ele>15.81174</ele>
        <time>2020-06-06T22:00:33.035Z</time>
      </trkpt>
      <trkpt lat="50.68613" lon="2.83152">
        <ele>15.865977</ele>
        <time>2020-06-06T22:00:42.307Z</time>
      </trkpt>
      <trkpt lat="50.68602" lon="2.83212">
        <ele>15.911036</ele>
        <time>2020-06-06T22:00:48.509Z</time>
      </trkpt>
      <trkpt lat="50.68578" lon="2.83266">
        <ele>15.958591</ele>
        <time>2020-06-06T22:00:55.006Z</time>
      </trkpt>
      <trkpt lat="50.68543" lon="2.83314">
        <ele>16.010717</ele>
        <time>2020-06-06T22:01:02.116Z</time>
      </trkpt>
      <trkpt lat="50.68493" lon="2.8334">
        <ele>15.918893</ele>
        <time>2020-06-06T22:01:10.326Z</time>
      </trkpt>
      <trkpt lat="50.68379" lon="2.83413">
        <ele>15.670995</ele>
        <time>2020-06-06T22:01:27.368Z</time>
      </trkpt>
      <trkpt lat="50.6828" lon="2.83499">
        <ele>14.948725</ele>
        <time>2020-06-06T22:01:41.946Z</time>
      </trkpt>
      <trkpt lat="50.68196" lon="2.83558">
        <ele>14.32945</ele>
        <time>2020-06-06T22:01:53.561Z</time>
      </trkpt>
      <trkpt lat="50.68011" lon="2.8365">
        <ele>13.224531</ele>
        <time>2020-06-06T22:02:18.463Z</time>
      </trkpt>
      <trkpt lat="50.67968" lon="2.83673">
        <ele>13.188156</ele>
        <time>2020-06-06T22:02:24.771Z</time>
      </trkpt>
      <trkpt lat="50.67945" lon="2.83677">
        <ele>13.169834</ele>
        <time>2020-06-06T22:02:28.083Z</time>
      </trkpt>
      <trkpt lat="50.67923" lon="2.8367">
        <ele>13.151405</ele>
        <time>2020-06-06T22:02:31.461Z</time>
      </trkpt>
      <trkpt lat="50.67899" lon="2.83683">
        <ele>13.131645</ele>
        <time>2020-06-06T22:02:35.182Z</time>
      </trkpt>
      <trkpt lat="50.67895" lon="2.83687">
        <ele>13.127853</ele>
        <time>2020-06-06T22:02:35.930Z</time>
      </trkpt>
      <trkpt lat="50.67843" lon="2.83625">
        <ele>13.414618</ele>
        <time>2020-06-06T22:02:46.960Z</time>
      </trkpt>
      <trkpt lat="50.67781" lon="2.83553">
        <ele>14.063584</ele>
        <time>2020-06-06T22:03:00.726Z</time>
      </trkpt>
      <trkpt lat="50.67764" lon="2.83539">
        <ele>14.229351</ele>
        <time>2020-06-06T22:03:04.612Z</time>
      </trkpt>
      <trkpt lat="50.67663" lon="2.83478">
        <ele>15.349155</ele>
        <time>2020-06-06T22:03:31.958Z</time>
      </trkpt>
      <trkpt lat="50.67592" lon="2.83435">
        <ele>16.262849</ele>
        <time>2020-06-06T22:03:46.753Z</time>
      </trkpt>
      <trkpt lat="50.67579" lon="2.83424">
        <ele>16.438538</ele>
        <time>2020-06-06T22:03:49.796Z</time>
      </trkpt>
      <trkpt lat="50.6756" lon="2.83401">
        <ele>16.727176</ele>
        <time>2020-06-06T22:03:54.389Z</time>
      </trkpt>
      <trkpt lat="50.67551" lon="2.83378">
        <ele>16.826978</ele>
        <time>2020-06-06T22:03:57.627Z</time>
      </trkpt>
      <trkpt lat="50.67549" lon="2.83368">
        <ele>16.856235</ele>
        <time>2020-06-06T22:03:59.071Z</time>
      </trkpt>
      <trkpt lat="50.67548" lon="2.83363">
        <ele>16.868555</ele>
        <time>2020-06-06T22:03:59.546Z</time>
      </trkpt>
      <trkpt lat="50.67547" lon="2.83359">
        <ele>16.881149</ele>
        <time>2020-06-06T22:04:00.040Z</time>
      </trkpt>
      <trkpt lat="50.67546" lon="2.83355">
        <ele>16.893771</ele>
        <time>2020-06-06T22:04:00.514Z</time>
      </trkpt>
      <trkpt lat="50.67531" lon="2.83341">
        <ele>16.966831</ele>
        <time>2020-06-06T22:04:03.817Z</time>
      </trkpt>
      <trkpt lat="50.67528" lon="2.8334">
        <ele>16.979307</ele>
        <time>2020-06-06T22:04:04.237Z</time>
      </trkpt>
      <trkpt lat="50.67525" lon="2.83341">
        <ele>16.991762</ele>
        <time>2020-06-06T22:04:04.774Z</time>
      </trkpt>
      <trkpt lat="50.67522" lon="2.83342">
        <ele>17.004849</ele>
        <time>2020-06-06T22:04:05.422Z</time>
      </trkpt>
      <trkpt lat="50.67508" lon="2.83364">
        <ele>17.092687</ele>
        <time>2020-06-06T22:04:08.862Z</time>
      </trkpt>
      <trkpt lat="50.67507" lon="2.83369">
        <ele>17.105799</ele>
        <time>2020-06-06T22:04:09.404Z</time>
      </trkpt>
      <trkpt lat="50.67507" lon="2.83371">
        <ele>17.112331</ele>
        <time>2020-06-06T22:04:09.652Z</time>
      </trkpt>
      <trkpt lat="50.67507" lon="2.83374">
        <ele>17.118592</ele>
        <time>2020-06-06T22:04:09.868Z</time>
      </trkpt>
      <trkpt lat="50.67507" lon="2.83376">
        <ele>17.125124</ele>
        <time>2020-06-06T22:04:10.076Z</time>
      </trkpt>
      <trkpt lat="50.67508" lon="2.83381">
        <ele>17.139945</ele>
        <time>2020-06-06T22:04:10.590Z</time>
      </trkpt>
      <trkpt lat="50.67512" lon="2.83396">
        <ele>17.183694</ele>
        <time>2020-06-06T22:04:12.320Z</time>
      </trkpt>
      <trkpt lat="50.67515" lon="2.834">
        <ele>17.19857</ele>
        <time>2020-06-06T22:04:12.824Z</time>
      </trkpt>
      <trkpt lat="50.67518" lon="2.83409">
        <ele>17.227705</ele>
        <time>2020-06-06T22:04:14.010Z</time>
      </trkpt>
      <trkpt lat="50.67523" lon="2.83458">
        <ele>17.364372</ele>
        <time>2020-06-06T22:04:18.747Z</time>
      </trkpt>
      <trkpt lat="50.67525" lon="2.83466">
        <ele>17.38599</ele>
        <time>2020-06-06T22:04:19.597Z</time>
      </trkpt>
      <trkpt lat="50.67529" lon="2.83478">
        <ele>17.423279</ele>
        <time>2020-06-06T22:04:20.792Z</time>
      </trkpt>
      <trkpt lat="50.67535" lon="2.83498">
        <ele>17.48362</ele>
        <time>2020-06-06T22:04:22.913Z</time>
      </trkpt>
      <trkpt lat="50.67542" lon="2.83521">
        <ele>17.536508</ele>
        <time>2020-06-06T22:04:25.207Z</time>
      </trkpt>
      <trkpt lat="50.67548" lon="2.83542">
        <ele>17.504433</ele>
        <time>2020-06-06T22:04:27.198Z</time>
      </trkpt>
      <trkpt lat="50.67551" lon="2.83557">
        <ele>17.481548</ele>
        <time>2020-06-06T22:04:28.787Z</time>
      </trkpt>
      <trkpt lat="50.67555" lon="2.83574">
        <ele>17.456618</ele>
        <time>2020-06-06T22:04:30.451Z</time>
      </trkpt>
      <trkpt lat="50.67558" lon="2.83594">
        <ele>17.427808</ele>
        <time>2020-06-06T22:04:32.248Z</time>
      </trkpt>
      <trkpt lat="50.67562" lon="2.83617">
        <ele>17.394231</ele>
        <time>2020-06-06T22:04:34.482Z</time>
      </trkpt>
      <trkpt lat="50.67604" lon="2.83799">
        <ele>17.130436</ele>
        <time>2020-06-06T22:04:51.309Z</time>
      </trkpt>
      <trkpt lat="50.67606" lon="2.83812">
        <ele>17.118011</ele>
        <time>2020-06-06T22:04:52.531Z</time>
      </trkpt>
      <trkpt lat="50.67609" lon="2.83827">
        <ele>17.104559</ele>
        <time>2020-06-06T22:04:53.970Z</time>
      </trkpt>
      <trkpt lat="50.67611" lon="2.83842">
        <ele>17.090698</ele>
        <time>2020-06-06T22:04:55.515Z</time>
      </trkpt>
      <trkpt lat="50.67614" lon="2.83871">
        <ele>17.063972</ele>
        <time>2020-06-06T22:04:58.523Z</time>
      </trkpt>
      <trkpt lat="50.67617" lon="2.83892">
        <ele>17.044953</ele>
        <time>2020-06-06T22:05:00.585Z</time>
      </trkpt>
      <trkpt lat="50.6762" lon="2.83914">
        <ele>17.024909</ele>
        <time>2020-06-06T22:05:02.777Z</time>
      </trkpt>
      <trkpt lat="50.67624" lon="2.8394">
        <ele>17.001201</ele>
        <time>2020-06-06T22:05:05.079Z</time>
      </trkpt>
      <trkpt lat="50.67629" lon="2.83975">
        <ele>16.968819</ele>
        <time>2020-06-06T22:05:08.524Z</time>
      </trkpt>
      <trkpt lat="50.67632" lon="2.83994">
        <ele>16.951051</ele>
        <time>2020-06-06T22:05:10.182Z</time>
      </trkpt>
      <trkpt lat="50.67636" lon="2.84023">
        <ele>16.924584</ele>
        <time>2020-06-06T22:05:12.794Z</time>
      </trkpt>
      <trkpt lat="50.67644" lon="2.84077">
        <ele>16.895694</ele>
        <time>2020-06-06T22:05:17.505Z</time>
      </trkpt>
      <trkpt lat="50.67648" lon="2.84093">
        <ele>16.902425</ele>
        <time>2020-06-06T22:05:19.049Z</time>
      </trkpt>
      <trkpt lat="50.67609" lon="2.84116">
        <ele>16.928972</ele>
        <time>2020-06-06T22:05:27.263Z</time>
      </trkpt>
      <trkpt lat="50.67609" lon="2.84118">
        <ele>16.930023</ele>
        <time>2020-06-06T22:05:27.497Z</time>
      </trkpt>
      <trkpt lat="50.67603" lon="2.84136">
        <ele>16.938146</ele>
        <time>2020-06-06T22:05:30.394Z</time>
      </trkpt>
      <trkpt lat="50.67551" lon="2.84167">
        <ele>16.973457</ele>
        <time>2020-06-06T22:05:42.117Z</time>
      </trkpt>
      <trkpt lat="50.67554" lon="2.84179">
        <ele>16.978505</ele>
        <time>2020-06-06T22:05:43.562Z</time>
      </trkpt>
      <trkpt lat="50.67547" lon="2.84202">
        <ele>16.988671</ele>
        <time>2020-06-06T22:05:47.043Z</time>
      </trkpt>
      <trkpt lat="50.67542" lon="2.84222">
        <ele>16.997421</ele>
        <time>2020-06-06T22:05:49.966Z</time>
      </trkpt>
      <trkpt lat="50.67535" lon="2.84245">
        <ele>17.032548</ele>
        <time>2020-06-06T22:05:53.472Z</time>
      </trkpt>
      <trkpt lat="50.67465" lon="2.84288">
        <ele>17.356971</ele>
        <time>2020-06-06T22:06:09.810Z</time>
      </trkpt>
      <trkpt lat="50.67428" lon="2.84308">
        <ele>17.526908</ele>
        <time>2020-06-06T22:06:18.617Z</time>
      </trkpt>
      <trkpt lat="50.67447" lon="2.84401">
        <ele>17.784285</ele>
        <time>2020-06-06T22:06:32.688Z</time>
      </trkpt>
      <trkpt lat="50.67462" lon="2.84482">
        <ele>17.787949</ele>
        <time>2020-06-06T22:06:44.098Z</time>
      </trkpt>
      <trkpt lat="50.67465" lon="2.84498">
        <ele>17.788689</ele>
        <time>2020-06-06T22:06:46.234Z</time>
      </trkpt>
      <trkpt lat="50.67475" lon="2.84546">
        <ele>17.790868</ele>
        <time>2020-06-06T22:06:52.543Z</time>
      </trkpt>
      <trkpt lat="50.67475" lon="2.84585">
        <ele>17.792549</ele>
        <time>2020-06-06T22:06:57.457Z</time>
      </trkpt>
      <trkpt lat="50.67504" lon="2.84585">
        <ele>17.794546</ele>
        <time>2020-06-06T22:07:01.685Z</time>
      </trkpt>
      <trkpt lat="50.67508" lon="2.84627">
        <ele>17.79641</ele>
        <time>2020-06-06T22:07:06.921Z</time>
      </trkpt>
      <trkpt lat="50.67517" lon="2.84713">
        <ele>17.521576</ele>
        <time>2020-06-06T22:07:17.231Z</time>
      </trkpt>
      <trkpt lat="50.67514" lon="2.84719">
        <ele>17.497474</ele>
        <time>2020-06-06T22:07:18.217Z</time>
      </trkpt>
      <trkpt lat="50.67498" lon="2.84727">
        <ele>17.409423</ele>
        <time>2020-06-06T22:07:21.550Z</time>
      </trkpt>
      <trkpt lat="50.67476" lon="2.84734">
        <ele>17.297315</ele>
        <time>2020-06-06T22:07:25.840Z</time>
      </trkpt>
      <trkpt lat="50.67499" lon="2.84902">
        <ele>16.613034</ele>
        <time>2020-06-06T22:07:45.524Z</time>
      </trkpt>
      <trkpt lat="50.67497" lon="2.84909">
        <ele>16.569925</ele>
        <time>2020-06-06T22:07:46.303Z</time>
      </trkpt>
      <trkpt lat="50.67468" lon="2.84924">
        <ele>16.272065</ele>
        <time>2020-06-06T22:07:51.650Z</time>
      </trkpt>
      <trkpt lat="50.67482" lon="2.85023">
        <ele>15.643321</ele>
        <time>2020-06-06T22:08:02.599Z</time>
      </trkpt>
      <trkpt lat="50.67417" lon="2.8505">
        <ele>15.070188</ele>
        <time>2020-06-06T22:08:14.185Z</time>
      </trkpt>
      <trkpt lat="50.67405" lon="2.85057">
        <ele>15.018595</ele>
        <time>2020-06-06T22:08:16.445Z</time>
      </trkpt>
      <trkpt lat="50.67352" lon="2.85085">
        <ele>14.794252</ele>
        <time>2020-06-06T22:08:26.766Z</time>
      </trkpt>
      <trkpt lat="50.67319" lon="2.85109">
        <ele>14.649505</ele>
        <time>2020-06-06T22:08:33.746Z</time>
      </trkpt>
      <trkpt lat="50.67299" lon="2.85131">
        <ele>14.554835</ele>
        <time>2020-06-06T22:08:38.320Z</time>
      </trkpt>
      <trkpt lat="50.67293" lon="2.85142">
        <ele>14.518688</ele>
        <time>2020-06-06T22:08:40.220Z</time>
      </trkpt>
      <trkpt lat="50.67285" lon="2.85157">
        <ele>14.46789</ele>
        <time>2020-06-06T22:08:42.920Z</time>
      </trkpt>
      <trkpt lat="50.67256" lon="2.85214">
        <ele>14.50445</ele>
        <time>2020-06-06T22:08:52.466Z</time>
      </trkpt>
      <trkpt lat="50.6714" lon="2.85371">
        <ele>14.943033</ele>
        <time>2020-06-06T22:09:25.761Z</time>
      </trkpt>
      <trkpt lat="50.67094" lon="2.85455">
        <ele>15.113331</ele>
        <time>2020-06-06T22:09:40.476Z</time>
      </trkpt>
      <trkpt lat="50.66994" lon="2.85535">
        <ele>15.387994</ele>
        <time>2020-06-06T22:10:04.309Z</time>
      </trkpt>
      <trkpt lat="50.66985" lon="2.85549">
        <ele>15.421775</ele>
        <time>2020-06-06T22:10:06.912Z</time>
      </trkpt>
      <trkpt lat="50.66935" lon="2.85631">
        <ele>15.618936</ele>
        <time>2020-06-06T22:10:22.436Z</time>
      </trkpt>
      <trkpt lat="50.6682" lon="2.85727">
        <ele>15.930949</ele>
        <time>2020-06-06T22:10:50.329Z</time>
      </trkpt>
      <trkpt lat="50.66662" lon="2.85794">
        <ele>16.201967</ele>
        <time>2020-06-06T22:11:24.261Z</time>
      </trkpt>
      <trkpt lat="50.66588" lon="2.85833">
        <ele>16.302557</ele>
        <time>2020-06-06T22:11:40.426Z</time>
      </trkpt>
      <trkpt lat="50.66452" lon="2.8594">
        <ele>16.441091</ele>
        <time>2020-06-06T22:12:11.693Z</time>
      </trkpt>
      <trkpt lat="50.66387" lon="2.85957">
        <ele>16.477969</ele>
        <time>2020-06-06T22:12:25.235Z</time>
      </trkpt>
      <trkpt lat="50.66282" lon="2.85958">
        <ele>16.461995</ele>
        <time>2020-06-06T22:12:46.478Z</time>
      </trkpt>
      <trkpt lat="50.66071" lon="2.86089">
        <ele>16.340992</ele>
        <time>2020-06-06T22:13:31.597Z</time>
      </trkpt>
      <trkpt lat="50.66064" lon="2.86093">
        <ele>16.337189</ele>
        <time>2020-06-06T22:13:33.027Z</time>
      </trkpt>
      <trkpt lat="50.66078" lon="2.8616">
        <ele>16.313676</ele>
        <time>2020-06-06T22:13:39.574Z</time>
      </trkpt>
      <trkpt lat="50.66099" lon="2.86259">
        <ele>16.37714</ele>
        <time>2020-06-06T22:13:49.528Z</time>
      </trkpt>
      <trkpt lat="50.66113" lon="2.86374">
        <ele>16.475601</ele>
        <time>2020-06-06T22:14:01.011Z</time>
      </trkpt>
      <trkpt lat="50.66116" lon="2.864">
        <ele>16.498236</ele>
        <time>2020-06-06T22:14:03.718Z</time>
      </trkpt>
      <trkpt lat="50.6614" lon="2.86576">
        <ele>16.61111</ele>
        <time>2020-06-06T22:14:21.481Z</time>
      </trkpt>
      <trkpt lat="50.66143" lon="2.866">
        <ele>16.624049</ele>
        <time>2020-06-06T22:14:23.894Z</time>
      </trkpt>
      <trkpt lat="50.66143" lon="2.86607">
        <ele>16.62757</ele>
        <time>2020-06-06T22:14:24.546Z</time>
      </trkpt>
      <trkpt lat="50.66154" lon="2.86681">
        <ele>16.667494</ele>
        <time>2020-06-06T22:14:31.837Z</time>
      </trkpt>
      <trkpt lat="50.66159" lon="2.86713">
        <ele>16.684689</ele>
        <time>2020-06-06T22:14:34.930Z</time>
      </trkpt>
      <trkpt lat="50.66188" lon="2.86809">
        <ele>16.706559</ele>
        <time>2020-06-06T22:14:44.912Z</time>
      </trkpt>
      <trkpt lat="50.6624" lon="2.86903">
        <ele>16.722789</ele>
        <time>2020-06-06T22:14:56.448Z</time>
      </trkpt>
      <trkpt lat="50.66395" lon="2.87116">
        <ele>17.146839</ele>
        <time>2020-06-06T22:15:28.698Z</time>
      </trkpt>
      <trkpt lat="50.66449" lon="2.87176">
        <ele>17.293273</ele>
        <time>2020-06-06T22:15:39.654Z</time>
      </trkpt>
      <trkpt lat="50.66471" lon="2.87191">
        <ele>17.342517</ele>
        <time>2020-06-06T22:15:43.553Z</time>
      </trkpt>
      <trkpt lat="50.66498" lon="2.87206">
        <ele>17.399037</ele>
        <time>2020-06-06T22:15:48.037Z</time>
      </trkpt>
      <trkpt lat="50.66574" lon="2.8724">
        <ele>17.559448</ele>
        <time>2020-06-06T22:16:00.037Z</time>
      </trkpt>
      <trkpt lat="50.66581" lon="2.87241">
        <ele>17.561335</ele>
        <time>2020-06-06T22:16:01.203Z</time>
      </trkpt>
      <trkpt lat="50.66581" lon="2.87247">
        <ele>17.557756</ele>
        <time>2020-06-06T22:16:01.752Z</time>
      </trkpt>
      <trkpt lat="50.66575" lon="2.87262">
        <ele>17.54716</ele>
        <time>2020-06-06T22:16:03.374Z</time>
      </trkpt>
      <trkpt lat="50.66569" lon="2.87268">
        <ele>17.540316</ele>
        <time>2020-06-06T22:16:04.448Z</time>
      </trkpt>
      <trkpt lat="50.66534" lon="2.87294">
        <ele>17.502943</ele>
        <time>2020-06-06T22:16:10.099Z</time>
      </trkpt>
      <trkpt lat="50.66514" lon="2.87309">
        <ele>17.482139</ele>
        <time>2020-06-06T22:16:13.265Z</time>
      </trkpt>
      <trkpt lat="50.66416" lon="2.87382">
        <ele>17.390904</ele>
        <time>2020-06-06T22:16:28.654Z</time>
      </trkpt>
      <trkpt lat="50.66397" lon="2.87396">
        <ele>17.387448</ele>
        <time>2020-06-06T22:16:31.584Z</time>
      </trkpt>
      <trkpt lat="50.66388" lon="2.87404">
        <ele>17.385719</ele>
        <time>2020-06-06T22:16:33.198Z</time>
      </trkpt>
      <trkpt lat="50.66357" lon="2.87422">
        <ele>17.380278</ele>
        <time>2020-06-06T22:16:38.091Z</time>
      </trkpt>
      <trkpt lat="50.66266" lon="2.87445">
        <ele>17.365097</ele>
        <time>2020-06-06T22:16:52.101Z</time>
      </trkpt>
      <trkpt lat="50.66103" lon="2.8751">
        <ele>17.268685</ele>
        <time>2020-06-06T22:17:16.840Z</time>
      </trkpt>
      <trkpt lat="50.66098" lon="2.87511">
        <ele>17.265665</ele>
        <time>2020-06-06T22:17:17.513Z</time>
      </trkpt>
      <trkpt lat="50.66086" lon="2.8753">
        <ele>17.255055</ele>
        <time>2020-06-06T22:17:20.787Z</time>
      </trkpt>
      <trkpt lat="50.66082" lon="2.8754">
        <ele>17.248987</ele>
        <time>2020-06-06T22:17:22.313Z</time>
      </trkpt>
      <trkpt lat="50.6608" lon="2.87553">
        <ele>17.242284</ele>
        <time>2020-06-06T22:17:23.974Z</time>
      </trkpt>
      <trkpt lat="50.66079" lon="2.87588">
        <ele>17.224504</ele>
        <time>2020-06-06T22:17:28.208Z</time>
      </trkpt>
      <trkpt lat="50.66079" lon="2.87643">
        <ele>17.196331</ele>
        <time>2020-06-06T22:17:35.024Z</time>
      </trkpt>
      <trkpt lat="50.66099" lon="2.87863">
        <ele>17.179564</ele>
        <time>2020-06-06T22:18:03.511Z</time>
      </trkpt>
      <trkpt lat="50.66099" lon="2.87958">
        <ele>17.288255</ele>
        <time>2020-06-06T22:18:16.405Z</time>
      </trkpt>
      <trkpt lat="50.66075" lon="2.88014">
        <ele>17.365661</ele>
        <time>2020-06-06T22:18:25.591Z</time>
      </trkpt>
      <trkpt lat="50.66042" lon="2.88065">
        <ele>17.442287</ele>
        <time>2020-06-06T22:18:35.349Z</time>
      </trkpt>
      <trkpt lat="50.65878" lon="2.88231">
        <ele>17.681888</ele>
        <time>2020-06-06T22:19:15.276Z</time>
      </trkpt>
      <trkpt lat="50.65859" lon="2.88256">
        <ele>17.773492</ele>
        <time>2020-06-06T22:19:20.157Z</time>
      </trkpt>
      <trkpt lat="50.65835" lon="2.88294">
        <ele>17.903601</ele>
        <time>2020-06-06T22:19:27.382Z</time>
      </trkpt>
      <trkpt lat="50.65813" lon="2.88318">
        <ele>18.005416</ele>
        <time>2020-06-06T22:19:33.183Z</time>
      </trkpt>
      <trkpt lat="50.65716" lon="2.88397">
        <ele>18.502433</ele>
        <time>2020-06-06T22:19:58.359Z</time>
      </trkpt>
      <trkpt lat="50.65647" lon="2.88473">
        <ele>19.007297</ele>
        <time>2020-06-06T22:20:18.230Z</time>
      </trkpt>
      <trkpt lat="50.65595" lon="2.88543">
        <ele>19.347077</ele>
        <time>2020-06-06T22:20:32.949Z</time>
      </trkpt>
      <trkpt lat="50.65618" lon="2.88574">
        <ele>19.302734</ele>
        <time>2020-06-06T22:20:37.467Z</time>
      </trkpt>
      <trkpt lat="50.65672" lon="2.88659">
        <ele>19.190048</ele>
        <time>2020-06-06T22:20:48.616Z</time>
      </trkpt>
      <trkpt lat="50.65679" lon="2.88672">
        <ele>19.173294</ele>
        <time>2020-06-06T22:20:50.054Z</time>
      </trkpt>
      <trkpt lat="50.65685" lon="2.88684">
        <ele>19.158469</ele>
        <time>2020-06-06T22:20:51.416Z</time>
      </trkpt>
      <trkpt lat="50.65706" lon="2.88739">
        <ele>19.098272</ele>
        <time>2020-06-06T22:20:56.770Z</time>
      </trkpt>
      <trkpt lat="50.6578" lon="2.89002">
        <ele>18.399682</ele>
        <time>2020-06-06T22:21:21.433Z</time>
      </trkpt>
      <trkpt lat="50.65792" lon="2.8904">
        <ele>18.376253</ele>
        <time>2020-06-06T22:21:25.226Z</time>
      </trkpt>
      <trkpt lat="50.65791" lon="2.89052">
        <ele>18.369694</ele>
        <time>2020-06-06T22:21:26.815Z</time>
      </trkpt>
      <trkpt lat="50.65807" lon="2.89115">
        <ele>18.334832</ele>
        <time>2020-06-06T22:21:35.438Z</time>
      </trkpt>
      <trkpt lat="50.65804" lon="2.89138">
        <ele>18.322633</ele>
        <time>2020-06-06T22:21:38.581Z</time>
      </trkpt>
      <trkpt lat="50.65801" lon="2.89174">
        <ele>18.304265</ele>
        <time>2020-06-06T22:21:42.958Z</time>
      </trkpt>
      <trkpt lat="50.65801" lon="2.89179">
        <ele>18.301312</ele>
        <time>2020-06-06T22:21:43.662Z</time>
      </trkpt>
      <trkpt lat="50.65803" lon="2.89185">
        <ele>18.297805</ele>
        <time>2020-06-06T22:21:44.523Z</time>
      </trkpt>
      <trkpt lat="50.65802" lon="2.89186">
        <ele>18.296839</ele>
        <time>2020-06-06T22:21:44.803Z</time>
      </trkpt>
      <trkpt lat="50.65768" lon="2.89212">
        <ele>18.26673</ele>
        <time>2020-06-06T22:21:50.101Z</time>
      </trkpt>
      <trkpt lat="50.65749" lon="2.89241">
        <ele>18.258856</ele>
        <time>2020-06-06T22:21:53.912Z</time>
      </trkpt>
      <trkpt lat="50.65741" lon="2.89258">
        <ele>18.275589</ele>
        <time>2020-06-06T22:21:56.219Z</time>
      </trkpt>
      <trkpt lat="50.65732" lon="2.89276">
        <ele>18.292625</ele>
        <time>2020-06-06T22:21:58.288Z</time>
      </trkpt>
      <trkpt lat="50.65724" lon="2.89294">
        <ele>18.309121</ele>
        <time>2020-06-06T22:22:00.417Z</time>
      </trkpt>
      <trkpt lat="50.65721" lon="2.89304">
        <ele>18.317407</ele>
        <time>2020-06-06T22:22:01.639Z</time>
      </trkpt>
      <trkpt lat="50.65711" lon="2.89336">
        <ele>18.344359</ele>
        <time>2020-06-06T22:22:05.003Z</time>
      </trkpt>
      <trkpt lat="50.65698" lon="2.89379">
        <ele>18.380064</ele>
        <time>2020-06-06T22:22:09.778Z</time>
      </trkpt>
      <trkpt lat="50.65666" lon="2.89491">
        <ele>18.468899</ele>
        <time>2020-06-06T22:22:21.869Z</time>
      </trkpt>
      <trkpt lat="50.65611" lon="2.89679">
        <ele>18.553047</ele>
        <time>2020-06-06T22:22:41.307Z</time>
      </trkpt>
      <trkpt lat="50.65593" lon="2.89741">
        <ele>18.585907</ele>
        <time>2020-06-06T22:22:47.850Z</time>
      </trkpt>
      <trkpt lat="50.65545" lon="2.89895">
        <ele>19.026511</ele>
        <time>2020-06-06T22:23:05.729Z</time>
      </trkpt>
      <trkpt lat="50.65541" lon="2.89905">
        <ele>19.056448</ele>
        <time>2020-06-06T22:23:06.738Z</time>
      </trkpt>
      <trkpt lat="50.65539" lon="2.89909">
        <ele>19.069513</ele>
        <time>2020-06-06T22:23:07.609Z</time>
      </trkpt>
      <trkpt lat="50.65517" lon="2.89945">
        <ele>19.199148</ele>
        <time>2020-06-06T22:23:12.732Z</time>
      </trkpt>
      <trkpt lat="50.655" lon="2.89969">
        <ele>19.289949</ele>
        <time>2020-06-06T22:23:16.914Z</time>
      </trkpt>
      <trkpt lat="50.65445" lon="2.90043">
        <ele>19.555804</ele>
        <time>2020-06-06T22:23:29.326Z</time>
      </trkpt>
      <trkpt lat="50.65438" lon="2.90049">
        <ele>19.586804</ele>
        <time>2020-06-06T22:23:30.649Z</time>
      </trkpt>
      <trkpt lat="50.65425" lon="2.90056">
        <ele>19.638028</ele>
        <time>2020-06-06T22:23:33.167Z</time>
      </trkpt>
      <trkpt lat="50.6542" lon="2.90057">
        <ele>19.655756</ele>
        <time>2020-06-06T22:23:34.049Z</time>
      </trkpt>
      <trkpt lat="50.65418" lon="2.90057">
        <ele>19.660896</ele>
        <time>2020-06-06T22:23:34.299Z</time>
      </trkpt>
      <trkpt lat="50.65417" lon="2.90057">
        <ele>19.665864</ele>
        <time>2020-06-06T22:23:34.540Z</time>
      </trkpt>
      <trkpt lat="50.65416" lon="2.90058">
        <ele>19.67107</ele>
        <time>2020-06-06T22:23:34.790Z</time>
      </trkpt>
      <trkpt lat="50.65415" lon="2.90059">
        <ele>19.676281</ele>
        <time>2020-06-06T22:23:35.036Z</time>
      </trkpt>
      <trkpt lat="50.65413" lon="2.90078">
        <ele>19.71917</ele>
        <time>2020-06-06T22:23:36.946Z</time>
      </trkpt>
      <trkpt lat="50.65414" lon="2.9008">
        <ele>19.724912</ele>
        <time>2020-06-06T22:23:37.183Z</time>
      </trkpt>
      <trkpt lat="50.65415" lon="2.90081">
        <ele>19.730245</ele>
        <time>2020-06-06T22:23:37.403Z</time>
      </trkpt>
      <trkpt lat="50.65416" lon="2.90082">
        <ele>19.735769</ele>
        <time>2020-06-06T22:23:37.624Z</time>
      </trkpt>
      <trkpt lat="50.65419" lon="2.90088">
        <ele>19.754414</ele>
        <time>2020-06-06T22:23:38.451Z</time>
      </trkpt>
      <trkpt lat="50.65424" lon="2.901">
        <ele>19.785848</ele>
        <time>2020-06-06T22:23:39.960Z</time>
      </trkpt>
      <trkpt lat="50.6543" lon="2.90113">
        <ele>19.822964</ele>
        <time>2020-06-06T22:23:41.627Z</time>
      </trkpt>
      <trkpt lat="50.65492" lon="2.90301">
        <ele>19.708004</ele>
        <time>2020-06-06T22:24:00.515Z</time>
      </trkpt>
      <trkpt lat="50.6554" lon="2.90451">
        <ele>19.440187</ele>
        <time>2020-06-06T22:24:14.925Z</time>
      </trkpt>
      <trkpt lat="50.65574" lon="2.90553">
        <ele>19.315612</ele>
        <time>2020-06-06T22:24:25.077Z</time>
      </trkpt>
      <trkpt lat="50.6555" lon="2.9057">
        <ele>19.271386</ele>
        <time>2020-06-06T22:24:28.799Z</time>
      </trkpt>
      <trkpt lat="50.65234" lon="2.90799">
        <ele>19.552152</ele>
        <time>2020-06-06T22:25:22.154Z</time>
      </trkpt>
      <trkpt lat="50.65095" lon="2.90954">
        <ele>19.704112</ele>
        <time>2020-06-06T22:25:48.853Z</time>
      </trkpt>
      <trkpt lat="50.64875" lon="2.91116">
        <ele>19.332794</ele>
        <time>2020-06-06T22:26:23.087Z</time>
      </trkpt>
      <trkpt lat="50.64835" lon="2.91145">
        <ele>19.184196</ele>
        <time>2020-06-06T22:26:28.947Z</time>
      </trkpt>
      <trkpt lat="50.64863" lon="2.91211">
        <ele>18.97803</ele>
        <time>2020-06-06T22:26:35.764Z</time>
      </trkpt>
      <trkpt lat="50.64979" lon="2.91488">
        <ele>18.388481</ele>
        <time>2020-06-06T22:27:04.024Z</time>
      </trkpt>
      <trkpt lat="50.65001" lon="2.91548">
        <ele>18.318723</ele>
        <time>2020-06-06T22:27:10.627Z</time>
      </trkpt>
      <trkpt lat="50.65013" lon="2.91593">
        <ele>18.28028</ele>
        <time>2020-06-06T22:27:15.668Z</time>
      </trkpt>
      <trkpt lat="50.65022" lon="2.91626">
        <ele>18.358659</ele>
        <time>2020-06-06T22:27:19.535Z</time>
      </trkpt>
      <trkpt lat="50.6506" lon="2.91776">
        <ele>18.717465</ele>
        <time>2020-06-06T22:27:36.887Z</time>
      </trkpt>
      <trkpt lat="50.65105" lon="2.91862">
        <ele>18.829437</ele>
        <time>2020-06-06T22:27:47.988Z</time>
      </trkpt>
      <trkpt lat="50.65167" lon="2.91941">
        <ele>18.520824</ele>
        <time>2020-06-06T22:27:59.145Z</time>
      </trkpt>
      <trkpt lat="50.65298" lon="2.92098">
        <ele>17.754016</ele>
        <time>2020-06-06T22:28:20.149Z</time>
      </trkpt>
      <trkpt lat="50.65456" lon="2.92313">
        <ele>17.234432</ele>
        <time>2020-06-06T22:28:48.375Z</time>
      </trkpt>
      <trkpt lat="50.65603" lon="2.92511">
        <ele>18.137483</ele>
        <time>2020-06-06T22:29:21.865Z</time>
      </trkpt>
      <trkpt lat="50.65709" lon="2.92645">
        <ele>19.171666</ele>
        <time>2020-06-06T22:29:47.357Z</time>
      </trkpt>
      <trkpt lat="50.65751" lon="2.92698">
        <ele>19.585339</ele>
        <time>2020-06-06T22:29:56.890Z</time>
      </trkpt>
      <trkpt lat="50.65776" lon="2.9273">
        <ele>19.83507</ele>
        <time>2020-06-06T22:30:02.547Z</time>
      </trkpt>
      <trkpt lat="50.65835" lon="2.92807">
        <ele>20.073926</ele>
        <time>2020-06-06T22:30:15.462Z</time>
      </trkpt>
      <trkpt lat="50.65894" lon="2.92881">
        <ele>20.230665</ele>
        <time>2020-06-06T22:30:27.199Z</time>
      </trkpt>
      <trkpt lat="50.65899" lon="2.92887">
        <ele>20.244306</ele>
        <time>2020-06-06T22:30:28.265Z</time>
      </trkpt>
      <trkpt lat="50.65904" lon="2.92894">
        <ele>20.258545</ele>
        <time>2020-06-06T22:30:29.183Z</time>
      </trkpt>
      <trkpt lat="50.65993" lon="2.93017">
        <ele>19.997585</ele>
        <time>2020-06-06T22:30:45.568Z</time>
      </trkpt>
      <trkpt lat="50.66028" lon="2.93068">
        <ele>19.825501</ele>
        <time>2020-06-06T22:30:51.937Z</time>
      </trkpt>
      <trkpt lat="50.66099" lon="2.93169">
        <ele>19.498689</ele>
        <time>2020-06-06T22:31:04.485Z</time>
      </trkpt>
      <trkpt lat="50.66163" lon="2.93269">
        <ele>19.199741</ele>
        <time>2020-06-06T22:31:16.713Z</time>
      </trkpt>
      <trkpt lat="50.6646" lon="2.937">
        <ele>19.406336</ele>
        <time>2020-06-06T22:32:18.349Z</time>
      </trkpt>
      <trkpt lat="50.66462" lon="2.93704">
        <ele>19.403837</ele>
        <time>2020-06-06T22:32:18.958Z</time>
      </trkpt>
      <trkpt lat="50.66486" lon="2.93757">
        <ele>19.371726</ele>
        <time>2020-06-06T22:32:25.044Z</time>
      </trkpt>
      <trkpt lat="50.66553" lon="2.93919">
        <ele>19.276765</ele>
        <time>2020-06-06T22:32:42.585Z</time>
      </trkpt>
      <trkpt lat="50.66661" lon="2.94123">
        <ele>18.940985</ele>
        <time>2020-06-06T22:33:06.312Z</time>
      </trkpt>
      <trkpt lat="50.66719" lon="2.94273">
        <ele>18.82438</ele>
        <time>2020-06-06T22:33:22.424Z</time>
      </trkpt>
      <trkpt lat="50.66822" lon="2.9449">
        <ele>18.726204</ele>
        <time>2020-06-06T22:33:47.569Z</time>
      </trkpt>
      <trkpt lat="50.66855" lon="2.9457">
        <ele>18.709193</ele>
        <time>2020-06-06T22:33:56.455Z</time>
      </trkpt>
      <trkpt lat="50.66864" lon="2.9459">
        <ele>18.704775</ele>
        <time>2020-06-06T22:33:58.742Z</time>
      </trkpt>
      <trkpt lat="50.6691" lon="2.94683">
        <ele>18.702908</ele>
        <time>2020-06-06T22:34:09.852Z</time>
      </trkpt>
      <trkpt lat="50.66921" lon="2.94699">
        <ele>18.703666</ele>
        <time>2020-06-06T22:34:12.099Z</time>
      </trkpt>
      <trkpt lat="50.66934" lon="2.94717">
        <ele>18.704522</ele>
        <time>2020-06-06T22:34:14.607Z</time>
      </trkpt>
      <trkpt lat="50.66974" lon="2.94758">
        <ele>18.70693</ele>
        <time>2020-06-06T22:34:21.783Z</time>
      </trkpt>
      <trkpt lat="50.67026" lon="2.94789">
        <ele>18.714587</ele>
        <time>2020-06-06T22:34:30.201Z</time>
      </trkpt>
      <trkpt lat="50.67204" lon="2.94843">
        <ele>18.791803</ele>
        <time>2020-06-06T22:34:57.438Z</time>
      </trkpt>
      <trkpt lat="50.67213" lon="2.94848">
        <ele>18.796313</ele>
        <time>2020-06-06T22:34:58.855Z</time>
      </trkpt>
      <trkpt lat="50.67224" lon="2.94855">
        <ele>18.801622</ele>
        <time>2020-06-06T22:35:00.620Z</time>
      </trkpt>
      <trkpt lat="50.67256" lon="2.9488">
        <ele>18.817758</ele>
        <time>2020-06-06T22:35:05.946Z</time>
      </trkpt>
      <trkpt lat="50.67293" lon="2.94929">
        <ele>18.839772</ele>
        <time>2020-06-06T22:35:13.295Z</time>
      </trkpt>
      <trkpt lat="50.67433" lon="2.95204">
        <ele>18.729126</ele>
        <time>2020-06-06T22:35:46.434Z</time>
      </trkpt>
      <trkpt lat="50.67441" lon="2.95219">
        <ele>18.718534</ele>
        <time>2020-06-06T22:35:48.346Z</time>
      </trkpt>
      <trkpt lat="50.67438" lon="2.95222">
        <ele>18.715039</ele>
        <time>2020-06-06T22:35:48.923Z</time>
      </trkpt>
      <trkpt lat="50.67368" lon="2.9526">
        <ele>18.405592</ele>
        <time>2020-06-06T22:36:02.735Z</time>
      </trkpt>
      <trkpt lat="50.67345" lon="2.9528">
        <ele>18.295684</ele>
        <time>2020-06-06T22:36:07.708Z</time>
      </trkpt>
      <trkpt lat="50.67317" lon="2.95367">
        <ele>18.035568</ele>
        <time>2020-06-06T22:36:19.002Z</time>
      </trkpt>
      <trkpt lat="50.67268" lon="2.95428">
        <ele>17.905911</ele>
        <time>2020-06-06T22:36:30.654Z</time>
      </trkpt>
      <trkpt lat="50.6717" lon="2.95572">
        <ele>17.743541</ele>
        <time>2020-06-06T22:36:57.509Z</time>
      </trkpt>
      <trkpt lat="50.67142" lon="2.95617">
        <ele>18.021584</ele>
        <time>2020-06-06T22:37:06.223Z</time>
      </trkpt>
      <trkpt lat="50.67103" lon="2.95698">
        <ele>18.496309</ele>
        <time>2020-06-06T22:37:21.011Z</time>
      </trkpt>
      <trkpt lat="50.67014" lon="2.95807">
        <ele>19.515166</ele>
        <time>2020-06-06T22:37:48.669Z</time>
      </trkpt>
      <trkpt lat="50.66999" lon="2.95819">
        <ele>19.73399</ele>
        <time>2020-06-06T22:37:53.051Z</time>
      </trkpt>
      <trkpt lat="50.66966" lon="2.95815">
        <ele>20.150658</ele>
        <time>2020-06-06T22:38:01.378Z</time>
      </trkpt>
      <trkpt lat="50.66956" lon="2.95828">
        <ele>20.319376</ele>
        <time>2020-06-06T22:38:04.750Z</time>
      </trkpt>
      <trkpt lat="50.66953" lon="2.95843">
        <ele>20.442998</ele>
        <time>2020-06-06T22:38:07.213Z</time>
      </trkpt>
      <trkpt lat="50.66949" lon="2.95881">
        <ele>20.763208</ele>
        <time>2020-06-06T22:38:13.664Z</time>
      </trkpt>
      <trkpt lat="50.66951" lon="2.95905">
        <ele>20.953326</ele>
        <time>2020-06-06T22:38:17.496Z</time>
      </trkpt>
      <trkpt lat="50.6689" lon="2.96352">
        <ele>24.380496</ele>
        <time>2020-06-06T22:39:30.666Z</time>
      </trkpt>
      <trkpt lat="50.66884" lon="2.96394">
        <ele>24.669416</ele>
        <time>2020-06-06T22:39:37.445Z</time>
      </trkpt>
      <trkpt lat="50.66895" lon="2.96398">
        <ele>24.782066</ele>
        <time>2020-06-06T22:39:39.810Z</time>
      </trkpt>
      <trkpt lat="50.66908" lon="2.96404">
        <ele>24.925815</ele>
        <time>2020-06-06T22:39:43.141Z</time>
      </trkpt>
      <trkpt lat="50.66921" lon="2.96431">
        <ele>25.155384</ele>
        <time>2020-06-06T22:39:48.293Z</time>
      </trkpt>
      <trkpt lat="50.66925" lon="2.96439">
        <ele>25.21983</ele>
        <time>2020-06-06T22:39:49.641Z</time>
      </trkpt>
      <trkpt lat="50.66982" lon="2.96564">
        <ele>26.217953</ele>
        <time>2020-06-06T22:40:13.018Z</time>
      </trkpt>
      <trkpt lat="50.66992" lon="2.96585">
        <ele>26.377833</ele>
        <time>2020-06-06T22:40:16.426Z</time>
      </trkpt>
      <trkpt lat="50.67058" lon="2.96732">
        <ele>27.642082</ele>
        <time>2020-06-06T22:40:45.057Z</time>
      </trkpt>
      <trkpt lat="50.67051" lon="2.96741">
        <ele>27.775386</ele>
        <time>2020-06-06T22:40:48.074Z</time>
      </trkpt>
      <trkpt lat="50.67001" lon="2.96803">
        <ele>28.697126</ele>
        <time>2020-06-06T22:41:03.686Z</time>
      </trkpt>
      <trkpt lat="50.66996" lon="2.96808">
        <ele>28.775972</ele>
        <time>2020-06-06T22:41:05.546Z</time>
      </trkpt>
      <trkpt lat="50.66999" lon="2.96815">
        <ele>28.847919</ele>
        <time>2020-06-06T22:41:07.047Z</time>
      </trkpt>
      <trkpt lat="50.6707" lon="2.97">
        <ele>30.787275</ele>
        <time>2020-06-06T22:41:43.216Z</time>
      </trkpt>
      <trkpt lat="50.67084" lon="2.97028">
        <ele>31.098824</ele>
        <time>2020-06-06T22:41:49.047Z</time>
      </trkpt>
      <trkpt lat="50.67087" lon="2.97034">
        <ele>31.169688</ele>
        <time>2020-06-06T22:41:50.475Z</time>
      </trkpt>
      <trkpt lat="50.67075" lon="2.97046">
        <ele>31.375942</ele>
        <time>2020-06-06T22:41:53.622Z</time>
      </trkpt>
      <trkpt lat="50.6697" lon="2.97158">
        <ele>32.34242</ele>
        <time>2020-06-06T22:42:18.195Z</time>
      </trkpt>
      <trkpt lat="50.66965" lon="2.97164">
        <ele>32.34242</ele>
        <time>2020-06-06T22:42:19.768Z</time>
      </trkpt>
      <trkpt lat="50.66908" lon="2.97235">
        <ele>32.34242</ele>
        <time>2020-06-06T22:42:32.843Z</time>
      </trkpt>
    </trkseg>
  </trk>
</gpx>